<?xml version="1.0" encoding="UTF-8" standalone="no" ?>
<gpx xmlns="http://www.topografix.com/GPX/1/1" xmlns:xsi="http://www.w3.org/2001/XMLSchema-instance" xsi:schemaLocation="http://www.topografix.com/GPX/1/1 http://www.topografix.com/GPX/1/1/gpx.xsd" version="1.1" creator="VisuGPX - https://www.visugpx.com">
  <metadata>
    <name>RSPG la Piarre le Duffre</name>
    <desc><![CDATA[A la Piarre, avant le hameau du Château, en voiture, prendre à gauche le chemin qui monte  le long du ruisseau de Gourenc vers en direction de Val-drome. après 2 km environ garer les véhicules  sur un emplacement qui borde le chemin. Partir ensuite en randonnée vers le crêtes qui limitent le département des Hautes Alpes et de la Drôme. Parcourir les crêtes jusqu'au sommet du Duffre. Pour le retour parcourir une boucle qui passe par la station de Valdrôme pour retrouver le sentier qui ramène au point de départ.]]></desc>
  </metadata>
  <trk>
    <name><![CDATA[La Piarre Le Duffrel: 04 OCT 2018 09:15]]></name>
    <trkseg>
      <trkpt lat="44.49546" lon="5.64086">
        <ele>1060.47</ele>
        <time>2018-10-04T07:15:37Z</time>
      </trkpt>
      <trkpt lat="44.49546" lon="5.64085">
        <ele>1060.47</ele>
        <time>2018-10-04T07:15:38Z</time>
      </trkpt>
      <trkpt lat="44.49546" lon="5.64086">
        <ele>1063.36</ele>
        <time>2018-10-04T07:15:40Z</time>
      </trkpt>
      <trkpt lat="44.49545" lon="5.64086">
        <ele>1067.68</ele>
        <time>2018-10-04T07:15:43Z</time>
      </trkpt>
      <trkpt lat="44.49545" lon="5.64086">
        <ele>1072.01</ele>
        <time>2018-10-04T07:15:46Z</time>
      </trkpt>
      <trkpt lat="44.49545" lon="5.64086">
        <ele>1075.37</ele>
        <time>2018-10-04T07:15:49Z</time>
      </trkpt>
      <trkpt lat="44.49545" lon="5.64087">
        <ele>1078.74</ele>
        <time>2018-10-04T07:15:52Z</time>
      </trkpt>
      <trkpt lat="44.49545" lon="5.64086">
        <ele>1081.62</ele>
        <time>2018-10-04T07:15:56Z</time>
      </trkpt>
      <trkpt lat="44.49544" lon="5.64081">
        <ele>1084.99</ele>
        <time>2018-10-04T07:16:00Z</time>
      </trkpt>
      <trkpt lat="44.49544" lon="5.64079">
        <ele>1087.39</ele>
        <time>2018-10-04T07:16:03Z</time>
      </trkpt>
      <trkpt lat="44.49545" lon="5.64078">
        <ele>1091.23</ele>
        <time>2018-10-04T07:16:08Z</time>
      </trkpt>
      <trkpt lat="44.49544" lon="5.64075">
        <ele>1094.6</ele>
        <time>2018-10-04T07:16:14Z</time>
      </trkpt>
      <trkpt lat="44.49545" lon="5.64076">
        <ele>1097.48</ele>
        <time>2018-10-04T07:16:20Z</time>
      </trkpt>
      <trkpt lat="44.49546" lon="5.64078">
        <ele>1100.37</ele>
        <time>2018-10-04T07:16:27Z</time>
      </trkpt>
      <trkpt lat="44.49546" lon="5.64081">
        <ele>1100.85</ele>
        <time>2018-10-04T07:16:35Z</time>
      </trkpt>
      <trkpt lat="44.49547" lon="5.64081">
        <ele>1105.17</ele>
        <time>2018-10-04T07:16:37Z</time>
      </trkpt>
      <trkpt lat="44.49547" lon="5.64081">
        <ele>1104.21</ele>
        <time>2018-10-04T07:16:38Z</time>
      </trkpt>
      <trkpt lat="44.49544" lon="5.64081">
        <ele>1107.58</ele>
        <time>2018-10-04T07:16:51Z</time>
      </trkpt>
      <trkpt lat="44.49545" lon="5.64077">
        <ele>1110.46</ele>
        <time>2018-10-04T07:17:05Z</time>
      </trkpt>
      <trkpt lat="44.49546" lon="5.64083">
        <ele>1111.42</ele>
        <time>2018-10-04T07:17:29Z</time>
      </trkpt>
      <trkpt lat="44.49545" lon="5.64081">
        <ele>1111.42</ele>
        <time>2018-10-04T07:17:52Z</time>
      </trkpt>
      <trkpt lat="44.49543" lon="5.6408">
        <ele>1112.38</ele>
        <time>2018-10-04T07:18:07Z</time>
      </trkpt>
      <trkpt lat="44.49544" lon="5.64081">
        <ele>1112.38</ele>
        <time>2018-10-04T07:18:22Z</time>
      </trkpt>
      <trkpt lat="44.49547" lon="5.6408">
        <ele>1111.9</ele>
        <time>2018-10-04T07:18:53Z</time>
      </trkpt>
      <trkpt lat="44.49543" lon="5.64079">
        <ele>1112.38</ele>
        <time>2018-10-04T07:19:13Z</time>
      </trkpt>
      <trkpt lat="44.49548" lon="5.64082">
        <ele>1111.9</ele>
        <time>2018-10-04T07:19:33Z</time>
      </trkpt>
      <trkpt lat="44.49548" lon="5.64083">
        <ele>1111.9</ele>
        <time>2018-10-04T07:20:03Z</time>
      </trkpt>
      <trkpt lat="44.49548" lon="5.64083">
        <ele>1111.9</ele>
        <time>2018-10-04T07:20:33Z</time>
      </trkpt>
      <trkpt lat="44.49547" lon="5.64082">
        <ele>1111.42</ele>
        <time>2018-10-04T07:20:56Z</time>
      </trkpt>
      <trkpt lat="44.49551" lon="5.64075">
        <ele>1111.9</ele>
        <time>2018-10-04T07:21:18Z</time>
      </trkpt>
      <trkpt lat="44.49554" lon="5.64071">
        <ele>1112.38</ele>
        <time>2018-10-04T07:21:23Z</time>
      </trkpt>
      <trkpt lat="44.49563" lon="5.64061">
        <ele>1113.34</ele>
        <time>2018-10-04T07:21:38Z</time>
      </trkpt>
      <trkpt lat="44.49568" lon="5.64044">
        <ele>1114.79</ele>
        <time>2018-10-04T07:21:54Z</time>
      </trkpt>
      <trkpt lat="44.49574" lon="5.64032">
        <ele>1115.75</ele>
        <time>2018-10-04T07:22:07Z</time>
      </trkpt>
      <trkpt lat="44.4958" lon="5.64018">
        <ele>1116.71</ele>
        <time>2018-10-04T07:22:20Z</time>
      </trkpt>
      <trkpt lat="44.49586" lon="5.64002">
        <ele>1117.67</ele>
        <time>2018-10-04T07:22:34Z</time>
      </trkpt>
      <trkpt lat="44.49594" lon="5.63985">
        <ele>1119.11</ele>
        <time>2018-10-04T07:22:50Z</time>
      </trkpt>
      <trkpt lat="44.496" lon="5.63972">
        <ele>1120.55</ele>
        <time>2018-10-04T07:23:03Z</time>
      </trkpt>
      <trkpt lat="44.49606" lon="5.63958">
        <ele>1121.52</ele>
        <time>2018-10-04T07:23:18Z</time>
      </trkpt>
      <trkpt lat="44.49612" lon="5.63944">
        <ele>1122.48</ele>
        <time>2018-10-04T07:23:32Z</time>
      </trkpt>
      <trkpt lat="44.4962" lon="5.63931">
        <ele>1123.92</ele>
        <time>2018-10-04T07:23:47Z</time>
      </trkpt>
      <trkpt lat="44.49628" lon="5.63918">
        <ele>1125.36</ele>
        <time>2018-10-04T07:24:02Z</time>
      </trkpt>
      <trkpt lat="44.49635" lon="5.63902">
        <ele>1127.28</ele>
        <time>2018-10-04T07:24:20Z</time>
      </trkpt>
      <trkpt lat="44.49641" lon="5.63893">
        <ele>1127.76</ele>
        <time>2018-10-04T07:24:35Z</time>
      </trkpt>
      <trkpt lat="44.49645" lon="5.63883">
        <ele>1129.21</ele>
        <time>2018-10-04T07:24:53Z</time>
      </trkpt>
      <trkpt lat="44.49646" lon="5.6388">
        <ele>1102.77</ele>
        <time>2018-10-04T07:24:57Z</time>
      </trkpt>
      <trkpt lat="44.49647" lon="5.63877">
        <ele>1104.69</ele>
        <time>2018-10-04T07:25:01Z</time>
      </trkpt>
      <trkpt lat="44.49647" lon="5.63875">
        <ele>1107.58</ele>
        <time>2018-10-04T07:25:04Z</time>
      </trkpt>
      <trkpt lat="44.49649" lon="5.6386">
        <ele>1110.46</ele>
        <time>2018-10-04T07:25:19Z</time>
      </trkpt>
      <trkpt lat="44.49651" lon="5.63849">
        <ele>1112.38</ele>
        <time>2018-10-04T07:25:32Z</time>
      </trkpt>
      <trkpt lat="44.49654" lon="5.63836">
        <ele>1114.79</ele>
        <time>2018-10-04T07:25:49Z</time>
      </trkpt>
      <trkpt lat="44.49658" lon="5.63823">
        <ele>1116.71</ele>
        <time>2018-10-04T07:26:04Z</time>
      </trkpt>
      <trkpt lat="44.4966" lon="5.63811">
        <ele>1118.63</ele>
        <time>2018-10-04T07:26:18Z</time>
      </trkpt>
      <trkpt lat="44.49662" lon="5.63796">
        <ele>1120.07</ele>
        <time>2018-10-04T07:26:32Z</time>
      </trkpt>
      <trkpt lat="44.49664" lon="5.63777">
        <ele>1122.48</ele>
        <time>2018-10-04T07:26:50Z</time>
      </trkpt>
      <trkpt lat="44.4967" lon="5.63761">
        <ele>1124.4</ele>
        <time>2018-10-04T07:27:05Z</time>
      </trkpt>
      <trkpt lat="44.49674" lon="5.63746">
        <ele>1125.84</ele>
        <time>2018-10-04T07:27:19Z</time>
      </trkpt>
      <trkpt lat="44.49678" lon="5.63728">
        <ele>1128.24</ele>
        <time>2018-10-04T07:27:36Z</time>
      </trkpt>
      <trkpt lat="44.4968" lon="5.63714">
        <ele>1130.65</ele>
        <time>2018-10-04T07:27:50Z</time>
      </trkpt>
      <trkpt lat="44.49683" lon="5.63703">
        <ele>1132.57</ele>
        <time>2018-10-04T07:28:02Z</time>
      </trkpt>
      <trkpt lat="44.49682" lon="5.63691">
        <ele>1134.49</ele>
        <time>2018-10-04T07:28:16Z</time>
      </trkpt>
      <trkpt lat="44.49681" lon="5.63688">
        <ele>1134.97</ele>
        <time>2018-10-04T07:28:19Z</time>
      </trkpt>
      <trkpt lat="44.49676" lon="5.63675">
        <ele>1136.42</ele>
        <time>2018-10-04T07:28:35Z</time>
      </trkpt>
      <trkpt lat="44.49674" lon="5.63663">
        <ele>1137.86</ele>
        <time>2018-10-04T07:28:49Z</time>
      </trkpt>
      <trkpt lat="44.49667" lon="5.6365">
        <ele>1140.26</ele>
        <time>2018-10-04T07:29:05Z</time>
      </trkpt>
      <trkpt lat="44.49659" lon="5.6364">
        <ele>1142.18</ele>
        <time>2018-10-04T07:29:19Z</time>
      </trkpt>
      <trkpt lat="44.49653" lon="5.63625">
        <ele>1143.14</ele>
        <time>2018-10-04T07:29:33Z</time>
      </trkpt>
      <trkpt lat="44.4965" lon="5.63608">
        <ele>1145.07</ele>
        <time>2018-10-04T07:29:48Z</time>
      </trkpt>
      <trkpt lat="44.49647" lon="5.63594">
        <ele>1146.99</ele>
        <time>2018-10-04T07:30:02Z</time>
      </trkpt>
      <trkpt lat="44.49645" lon="5.63581">
        <ele>1148.91</ele>
        <time>2018-10-04T07:30:16Z</time>
      </trkpt>
      <trkpt lat="44.49644" lon="5.63565">
        <ele>1150.84</ele>
        <time>2018-10-04T07:30:31Z</time>
      </trkpt>
      <trkpt lat="44.4964" lon="5.63551">
        <ele>1152.76</ele>
        <time>2018-10-04T07:30:46Z</time>
      </trkpt>
      <trkpt lat="44.49633" lon="5.63539">
        <ele>1154.2</ele>
        <time>2018-10-04T07:31:00Z</time>
      </trkpt>
      <trkpt lat="44.49631" lon="5.63534">
        <ele>1154.68</ele>
        <time>2018-10-04T07:31:06Z</time>
      </trkpt>
      <trkpt lat="44.49624" lon="5.63516">
        <ele>1156.12</ele>
        <time>2018-10-04T07:31:23Z</time>
      </trkpt>
      <trkpt lat="44.49618" lon="5.63504">
        <ele>1157.56</ele>
        <time>2018-10-04T07:31:38Z</time>
      </trkpt>
      <trkpt lat="44.49616" lon="5.63489">
        <ele>1159.49</ele>
        <time>2018-10-04T07:31:52Z</time>
      </trkpt>
      <trkpt lat="44.49615" lon="5.63473">
        <ele>1161.89</ele>
        <time>2018-10-04T07:32:09Z</time>
      </trkpt>
      <trkpt lat="44.49613" lon="5.63461">
        <ele>1163.81</ele>
        <time>2018-10-04T07:32:23Z</time>
      </trkpt>
      <trkpt lat="44.49611" lon="5.63447">
        <ele>1165.74</ele>
        <time>2018-10-04T07:32:36Z</time>
      </trkpt>
      <trkpt lat="44.49607" lon="5.63433">
        <ele>1167.66</ele>
        <time>2018-10-04T07:32:52Z</time>
      </trkpt>
      <trkpt lat="44.49602" lon="5.63419">
        <ele>1169.58</ele>
        <time>2018-10-04T07:33:07Z</time>
      </trkpt>
      <trkpt lat="44.49596" lon="5.63404">
        <ele>1171.5</ele>
        <time>2018-10-04T07:33:24Z</time>
      </trkpt>
      <trkpt lat="44.49589" lon="5.63389">
        <ele>1173.43</ele>
        <time>2018-10-04T07:33:41Z</time>
      </trkpt>
      <trkpt lat="44.49585" lon="5.63378">
        <ele>1175.35</ele>
        <time>2018-10-04T07:33:54Z</time>
      </trkpt>
      <trkpt lat="44.49579" lon="5.63364">
        <ele>1176.79</ele>
        <time>2018-10-04T07:34:11Z</time>
      </trkpt>
      <trkpt lat="44.49573" lon="5.63352">
        <ele>1178.71</ele>
        <time>2018-10-04T07:34:27Z</time>
      </trkpt>
      <trkpt lat="44.49565" lon="5.63343">
        <ele>1181.12</ele>
        <time>2018-10-04T07:34:43Z</time>
      </trkpt>
      <trkpt lat="44.49555" lon="5.63332">
        <ele>1183.52</ele>
        <time>2018-10-04T07:35:03Z</time>
      </trkpt>
      <trkpt lat="44.49551" lon="5.63316">
        <ele>1184.96</ele>
        <time>2018-10-04T07:35:17Z</time>
      </trkpt>
      <trkpt lat="44.49546" lon="5.63303">
        <ele>1185.92</ele>
        <time>2018-10-04T07:35:27Z</time>
      </trkpt>
      <trkpt lat="44.49546" lon="5.63301">
        <ele>1186.88</ele>
        <time>2018-10-04T07:35:29Z</time>
      </trkpt>
      <trkpt lat="44.49543" lon="5.63286">
        <ele>1187.37</ele>
        <time>2018-10-04T07:35:43Z</time>
      </trkpt>
      <trkpt lat="44.4954" lon="5.63269">
        <ele>1188.81</ele>
        <time>2018-10-04T07:35:58Z</time>
      </trkpt>
      <trkpt lat="44.49538" lon="5.63265">
        <ele>1188.81</ele>
        <time>2018-10-04T07:36:02Z</time>
      </trkpt>
      <trkpt lat="44.4953" lon="5.63254">
        <ele>1190.73</ele>
        <time>2018-10-04T07:36:18Z</time>
      </trkpt>
      <trkpt lat="44.49523" lon="5.63242">
        <ele>1193.13</ele>
        <time>2018-10-04T07:36:33Z</time>
      </trkpt>
      <trkpt lat="44.49516" lon="5.63234">
        <ele>1196.5</ele>
        <time>2018-10-04T07:36:48Z</time>
      </trkpt>
      <trkpt lat="44.49512" lon="5.63221">
        <ele>1196.5</ele>
        <time>2018-10-04T07:37:02Z</time>
      </trkpt>
      <trkpt lat="44.49504" lon="5.63207">
        <ele>1198.42</ele>
        <time>2018-10-04T07:37:18Z</time>
      </trkpt>
      <trkpt lat="44.49498" lon="5.63194">
        <ele>1199.86</ele>
        <time>2018-10-04T07:37:32Z</time>
      </trkpt>
      <trkpt lat="44.49491" lon="5.63182">
        <ele>1200.82</ele>
        <time>2018-10-04T07:37:46Z</time>
      </trkpt>
      <trkpt lat="44.49482" lon="5.6317">
        <ele>1201.79</ele>
        <time>2018-10-04T07:38:01Z</time>
      </trkpt>
      <trkpt lat="44.49474" lon="5.6316">
        <ele>1202.75</ele>
        <time>2018-10-04T07:38:13Z</time>
      </trkpt>
      <trkpt lat="44.49465" lon="5.63149">
        <ele>1203.23</ele>
        <time>2018-10-04T07:38:28Z</time>
      </trkpt>
      <trkpt lat="44.49453" lon="5.63136">
        <ele>1203.71</ele>
        <time>2018-10-04T07:38:43Z</time>
      </trkpt>
      <trkpt lat="44.49443" lon="5.63121">
        <ele>1204.19</ele>
        <time>2018-10-04T07:38:57Z</time>
      </trkpt>
      <trkpt lat="44.49436" lon="5.63102">
        <ele>1205.63</ele>
        <time>2018-10-04T07:39:12Z</time>
      </trkpt>
      <trkpt lat="44.49431" lon="5.63087">
        <ele>1207.07</ele>
        <time>2018-10-04T07:39:28Z</time>
      </trkpt>
      <trkpt lat="44.49424" lon="5.63069">
        <ele>1208.03</ele>
        <time>2018-10-04T07:39:44Z</time>
      </trkpt>
      <trkpt lat="44.49416" lon="5.63051">
        <ele>1208.51</ele>
        <time>2018-10-04T07:39:59Z</time>
      </trkpt>
      <trkpt lat="44.49406" lon="5.63037">
        <ele>1209</ele>
        <time>2018-10-04T07:40:13Z</time>
      </trkpt>
      <trkpt lat="44.49392" lon="5.63029">
        <ele>1209.48</ele>
        <time>2018-10-04T07:40:29Z</time>
      </trkpt>
      <trkpt lat="44.49376" lon="5.63022">
        <ele>1209</ele>
        <time>2018-10-04T07:40:46Z</time>
      </trkpt>
      <trkpt lat="44.49363" lon="5.63018">
        <ele>1209</ele>
        <time>2018-10-04T07:41:00Z</time>
      </trkpt>
      <trkpt lat="44.49348" lon="5.63011">
        <ele>1209</ele>
        <time>2018-10-04T07:41:16Z</time>
      </trkpt>
      <trkpt lat="44.49338" lon="5.63">
        <ele>1209.48</ele>
        <time>2018-10-04T07:41:31Z</time>
      </trkpt>
      <trkpt lat="44.49327" lon="5.62984">
        <ele>1209.48</ele>
        <time>2018-10-04T07:41:47Z</time>
      </trkpt>
      <trkpt lat="44.49325" lon="5.62981">
        <ele>1209.96</ele>
        <time>2018-10-04T07:41:50Z</time>
      </trkpt>
      <trkpt lat="44.49314" lon="5.62963">
        <ele>1210.92</ele>
        <time>2018-10-04T07:42:06Z</time>
      </trkpt>
      <trkpt lat="44.49301" lon="5.62951">
        <ele>1211.4</ele>
        <time>2018-10-04T07:42:21Z</time>
      </trkpt>
      <trkpt lat="44.49289" lon="5.62935">
        <ele>1210.44</ele>
        <time>2018-10-04T07:42:38Z</time>
      </trkpt>
      <trkpt lat="44.49283" lon="5.6293">
        <ele>1209.96</ele>
        <time>2018-10-04T07:42:45Z</time>
      </trkpt>
      <trkpt lat="44.49266" lon="5.62919">
        <ele>1209.96</ele>
        <time>2018-10-04T07:43:02Z</time>
      </trkpt>
      <trkpt lat="44.49253" lon="5.62905">
        <ele>1209.96</ele>
        <time>2018-10-04T07:43:19Z</time>
      </trkpt>
      <trkpt lat="44.49239" lon="5.62891">
        <ele>1210.92</ele>
        <time>2018-10-04T07:43:37Z</time>
      </trkpt>
      <trkpt lat="44.49224" lon="5.62885">
        <ele>1211.88</ele>
        <time>2018-10-04T07:43:52Z</time>
      </trkpt>
      <trkpt lat="44.49211" lon="5.62877">
        <ele>1212.36</ele>
        <time>2018-10-04T07:44:07Z</time>
      </trkpt>
      <trkpt lat="44.49197" lon="5.6287">
        <ele>1213.32</ele>
        <time>2018-10-04T07:44:21Z</time>
      </trkpt>
      <trkpt lat="44.49195" lon="5.6287">
        <ele>1213.32</ele>
        <time>2018-10-04T07:44:22Z</time>
      </trkpt>
      <trkpt lat="44.49183" lon="5.62862">
        <ele>1213.8</ele>
        <time>2018-10-04T07:44:37Z</time>
      </trkpt>
      <trkpt lat="44.49178" lon="5.62844">
        <ele>1215.72</ele>
        <time>2018-10-04T07:44:53Z</time>
      </trkpt>
      <trkpt lat="44.49181" lon="5.62827">
        <ele>1218.13</ele>
        <time>2018-10-04T07:45:10Z</time>
      </trkpt>
      <trkpt lat="44.49187" lon="5.62817">
        <ele>1219.57</ele>
        <time>2018-10-04T07:45:23Z</time>
      </trkpt>
      <trkpt lat="44.49192" lon="5.62804">
        <ele>1221.01</ele>
        <time>2018-10-04T07:45:36Z</time>
      </trkpt>
      <trkpt lat="44.49191" lon="5.62795">
        <ele>1222.45</ele>
        <time>2018-10-04T07:45:47Z</time>
      </trkpt>
      <trkpt lat="44.49185" lon="5.62786">
        <ele>1223.9</ele>
        <time>2018-10-04T07:46:02Z</time>
      </trkpt>
      <trkpt lat="44.49184" lon="5.62783">
        <ele>1224.86</ele>
        <time>2018-10-04T07:46:06Z</time>
      </trkpt>
      <trkpt lat="44.49175" lon="5.62774">
        <ele>1226.78</ele>
        <time>2018-10-04T07:46:22Z</time>
      </trkpt>
      <trkpt lat="44.49168" lon="5.62765">
        <ele>1228.7</ele>
        <time>2018-10-04T07:46:37Z</time>
      </trkpt>
      <trkpt lat="44.49162" lon="5.6275">
        <ele>1230.62</ele>
        <time>2018-10-04T07:46:52Z</time>
      </trkpt>
      <trkpt lat="44.49153" lon="5.6274">
        <ele>1232.07</ele>
        <time>2018-10-04T07:47:07Z</time>
      </trkpt>
      <trkpt lat="44.49142" lon="5.62735">
        <ele>1233.51</ele>
        <time>2018-10-04T07:47:23Z</time>
      </trkpt>
      <trkpt lat="44.49131" lon="5.62729">
        <ele>1235.43</ele>
        <time>2018-10-04T07:47:39Z</time>
      </trkpt>
      <trkpt lat="44.49125" lon="5.62723">
        <ele>1237.35</ele>
        <time>2018-10-04T07:47:55Z</time>
      </trkpt>
      <trkpt lat="44.49118" lon="5.62711">
        <ele>1240.24</ele>
        <time>2018-10-04T07:48:12Z</time>
      </trkpt>
      <trkpt lat="44.49108" lon="5.6271">
        <ele>1242.16</ele>
        <time>2018-10-04T07:48:26Z</time>
      </trkpt>
      <trkpt lat="44.491" lon="5.62715">
        <ele>1244.08</ele>
        <time>2018-10-04T07:48:40Z</time>
      </trkpt>
      <trkpt lat="44.49089" lon="5.62722">
        <ele>1246.49</ele>
        <time>2018-10-04T07:48:56Z</time>
      </trkpt>
      <trkpt lat="44.4908" lon="5.62724">
        <ele>1248.41</ele>
        <time>2018-10-04T07:49:12Z</time>
      </trkpt>
      <trkpt lat="44.49073" lon="5.62718">
        <ele>1250.81</ele>
        <time>2018-10-04T07:49:26Z</time>
      </trkpt>
      <trkpt lat="44.49069" lon="5.62712">
        <ele>1252.74</ele>
        <time>2018-10-04T07:49:40Z</time>
      </trkpt>
      <trkpt lat="44.49068" lon="5.62699">
        <ele>1255.14</ele>
        <time>2018-10-04T07:49:56Z</time>
      </trkpt>
      <trkpt lat="44.49065" lon="5.62688">
        <ele>1257.54</ele>
        <time>2018-10-04T07:50:12Z</time>
      </trkpt>
      <trkpt lat="44.49062" lon="5.62677">
        <ele>1259.46</ele>
        <time>2018-10-04T07:50:26Z</time>
      </trkpt>
      <trkpt lat="44.49062" lon="5.62671">
        <ele>1260.43</ele>
        <time>2018-10-04T07:50:32Z</time>
      </trkpt>
      <trkpt lat="44.49061" lon="5.62657">
        <ele>1262.35</ele>
        <time>2018-10-04T07:50:45Z</time>
      </trkpt>
      <trkpt lat="44.49059" lon="5.62642">
        <ele>1264.75</ele>
        <time>2018-10-04T07:51:02Z</time>
      </trkpt>
      <trkpt lat="44.49056" lon="5.62631">
        <ele>1266.19</ele>
        <time>2018-10-04T07:51:17Z</time>
      </trkpt>
      <trkpt lat="44.49057" lon="5.6263">
        <ele>1265.71</ele>
        <time>2018-10-04T07:51:31Z</time>
      </trkpt>
      <trkpt lat="44.49063" lon="5.62633">
        <ele>1265.71</ele>
        <time>2018-10-04T07:52:03Z</time>
      </trkpt>
      <trkpt lat="44.4906" lon="5.62632">
        <ele>1265.71</ele>
        <time>2018-10-04T07:52:40Z</time>
      </trkpt>
      <trkpt lat="44.49062" lon="5.62629">
        <ele>1266.19</ele>
        <time>2018-10-04T07:53:10Z</time>
      </trkpt>
      <trkpt lat="44.49064" lon="5.62632">
        <ele>1266.19</ele>
        <time>2018-10-04T07:53:40Z</time>
      </trkpt>
      <trkpt lat="44.49064" lon="5.62635">
        <ele>1266.19</ele>
        <time>2018-10-04T07:53:51Z</time>
      </trkpt>
      <trkpt lat="44.49068" lon="5.62637">
        <ele>1266.19</ele>
        <time>2018-10-04T07:54:22Z</time>
      </trkpt>
      <trkpt lat="44.4906" lon="5.62635">
        <ele>1267.16</ele>
        <time>2018-10-04T07:54:35Z</time>
      </trkpt>
      <trkpt lat="44.49057" lon="5.62631">
        <ele>1267.64</ele>
        <time>2018-10-04T07:54:52Z</time>
      </trkpt>
      <trkpt lat="44.49058" lon="5.6263">
        <ele>1268.12</ele>
        <time>2018-10-04T07:55:07Z</time>
      </trkpt>
      <trkpt lat="44.49057" lon="5.62624">
        <ele>1268.12</ele>
        <time>2018-10-04T07:55:30Z</time>
      </trkpt>
      <trkpt lat="44.49054" lon="5.62617">
        <ele>1269.56</ele>
        <time>2018-10-04T07:55:46Z</time>
      </trkpt>
      <trkpt lat="44.49058" lon="5.62601">
        <ele>1271</ele>
        <time>2018-10-04T07:56:01Z</time>
      </trkpt>
      <trkpt lat="44.49061" lon="5.62583">
        <ele>1272.44</ele>
        <time>2018-10-04T07:56:14Z</time>
      </trkpt>
      <trkpt lat="44.49061" lon="5.62575">
        <ele>1272.92</ele>
        <time>2018-10-04T07:56:21Z</time>
      </trkpt>
      <trkpt lat="44.49055" lon="5.6256">
        <ele>1275.33</ele>
        <time>2018-10-04T07:56:38Z</time>
      </trkpt>
      <trkpt lat="44.49046" lon="5.62547">
        <ele>1276.77</ele>
        <time>2018-10-04T07:56:55Z</time>
      </trkpt>
      <trkpt lat="44.49044" lon="5.62535">
        <ele>1277.25</ele>
        <time>2018-10-04T07:57:04Z</time>
      </trkpt>
      <trkpt lat="44.49044" lon="5.62528">
        <ele>1277.25</ele>
        <time>2018-10-04T07:57:08Z</time>
      </trkpt>
      <trkpt lat="44.49055" lon="5.6251">
        <ele>1278.69</ele>
        <time>2018-10-04T07:57:24Z</time>
      </trkpt>
      <trkpt lat="44.49063" lon="5.62505">
        <ele>1280.13</ele>
        <time>2018-10-04T07:57:35Z</time>
      </trkpt>
      <trkpt lat="44.49074" lon="5.62503">
        <ele>1282.06</ele>
        <time>2018-10-04T07:57:50Z</time>
      </trkpt>
      <trkpt lat="44.49086" lon="5.62503">
        <ele>1283.98</ele>
        <time>2018-10-04T07:58:04Z</time>
      </trkpt>
      <trkpt lat="44.49098" lon="5.62499">
        <ele>1285.42</ele>
        <time>2018-10-04T07:58:19Z</time>
      </trkpt>
      <trkpt lat="44.49109" lon="5.62497">
        <ele>1287.34</ele>
        <time>2018-10-04T07:58:34Z</time>
      </trkpt>
      <trkpt lat="44.49114" lon="5.62492">
        <ele>1288.78</ele>
        <time>2018-10-04T07:58:45Z</time>
      </trkpt>
      <trkpt lat="44.49106" lon="5.62484">
        <ele>1290.71</ele>
        <time>2018-10-04T07:58:58Z</time>
      </trkpt>
      <trkpt lat="44.49099" lon="5.62479">
        <ele>1292.15</ele>
        <time>2018-10-04T07:59:10Z</time>
      </trkpt>
      <trkpt lat="44.49093" lon="5.62472">
        <ele>1293.59</ele>
        <time>2018-10-04T07:59:23Z</time>
      </trkpt>
      <trkpt lat="44.49083" lon="5.62464">
        <ele>1295.03</ele>
        <time>2018-10-04T07:59:37Z</time>
      </trkpt>
      <trkpt lat="44.49072" lon="5.62463">
        <ele>1296.96</ele>
        <time>2018-10-04T07:59:51Z</time>
      </trkpt>
      <trkpt lat="44.49062" lon="5.62461">
        <ele>1298.88</ele>
        <time>2018-10-04T08:00:05Z</time>
      </trkpt>
      <trkpt lat="44.49049" lon="5.62455">
        <ele>1300.32</ele>
        <time>2018-10-04T08:00:21Z</time>
      </trkpt>
      <trkpt lat="44.49038" lon="5.62455">
        <ele>1301.76</ele>
        <time>2018-10-04T08:00:34Z</time>
      </trkpt>
      <trkpt lat="44.49028" lon="5.62453">
        <ele>1303.69</ele>
        <time>2018-10-04T08:00:49Z</time>
      </trkpt>
      <trkpt lat="44.49034" lon="5.62442">
        <ele>1305.61</ele>
        <time>2018-10-04T08:01:04Z</time>
      </trkpt>
      <trkpt lat="44.49046" lon="5.62437">
        <ele>1308.01</ele>
        <time>2018-10-04T08:01:20Z</time>
      </trkpt>
      <trkpt lat="44.49062" lon="5.62433">
        <ele>1309.93</ele>
        <time>2018-10-04T08:01:38Z</time>
      </trkpt>
      <trkpt lat="44.49077" lon="5.62428">
        <ele>1310.9</ele>
        <time>2018-10-04T08:01:54Z</time>
      </trkpt>
      <trkpt lat="44.49091" lon="5.62423">
        <ele>1311.38</ele>
        <time>2018-10-04T08:02:08Z</time>
      </trkpt>
      <trkpt lat="44.49104" lon="5.62421">
        <ele>1312.82</ele>
        <time>2018-10-04T08:02:22Z</time>
      </trkpt>
      <trkpt lat="44.49116" lon="5.62419">
        <ele>1314.26</ele>
        <time>2018-10-04T08:02:36Z</time>
      </trkpt>
      <trkpt lat="44.49131" lon="5.62421">
        <ele>1315.7</ele>
        <time>2018-10-04T08:02:53Z</time>
      </trkpt>
      <trkpt lat="44.49143" lon="5.62422">
        <ele>1317.62</ele>
        <time>2018-10-04T08:03:09Z</time>
      </trkpt>
      <trkpt lat="44.49146" lon="5.62419">
        <ele>1318.1</ele>
        <time>2018-10-04T08:03:23Z</time>
      </trkpt>
      <trkpt lat="44.49145" lon="5.62416">
        <ele>1318.59</ele>
        <time>2018-10-04T08:03:45Z</time>
      </trkpt>
      <trkpt lat="44.49143" lon="5.62411">
        <ele>1319.07</ele>
        <time>2018-10-04T08:04:02Z</time>
      </trkpt>
      <trkpt lat="44.49133" lon="5.62405">
        <ele>1319.55</ele>
        <time>2018-10-04T08:04:13Z</time>
      </trkpt>
      <trkpt lat="44.49119" lon="5.62398">
        <ele>1320.03</ele>
        <time>2018-10-04T08:04:27Z</time>
      </trkpt>
      <trkpt lat="44.49105" lon="5.62393">
        <ele>1320.99</ele>
        <time>2018-10-04T08:04:41Z</time>
      </trkpt>
      <trkpt lat="44.49104" lon="5.62393">
        <ele>1320.51</ele>
        <time>2018-10-04T08:04:42Z</time>
      </trkpt>
      <trkpt lat="44.49091" lon="5.62387">
        <ele>1321.95</ele>
        <time>2018-10-04T08:04:57Z</time>
      </trkpt>
      <trkpt lat="44.49076" lon="5.62379">
        <ele>1321.95</ele>
        <time>2018-10-04T08:05:12Z</time>
      </trkpt>
      <trkpt lat="44.49058" lon="5.62376">
        <ele>1322.91</ele>
        <time>2018-10-04T08:05:30Z</time>
      </trkpt>
      <trkpt lat="44.49044" lon="5.62377">
        <ele>1324.83</ele>
        <time>2018-10-04T08:05:47Z</time>
      </trkpt>
      <trkpt lat="44.49036" lon="5.62376">
        <ele>1326.28</ele>
        <time>2018-10-04T08:05:57Z</time>
      </trkpt>
      <trkpt lat="44.49022" lon="5.62376">
        <ele>1328.2</ele>
        <time>2018-10-04T08:06:13Z</time>
      </trkpt>
      <trkpt lat="44.4901" lon="5.62371">
        <ele>1330.12</ele>
        <time>2018-10-04T08:06:29Z</time>
      </trkpt>
      <trkpt lat="44.49001" lon="5.62365">
        <ele>1331.56</ele>
        <time>2018-10-04T08:06:44Z</time>
      </trkpt>
      <trkpt lat="44.48992" lon="5.62356">
        <ele>1333.49</ele>
        <time>2018-10-04T08:07:01Z</time>
      </trkpt>
      <trkpt lat="44.48983" lon="5.62349">
        <ele>1335.89</ele>
        <time>2018-10-04T08:07:18Z</time>
      </trkpt>
      <trkpt lat="44.4897" lon="5.6234">
        <ele>1337.81</ele>
        <time>2018-10-04T08:07:35Z</time>
      </trkpt>
      <trkpt lat="44.48958" lon="5.62333">
        <ele>1339.73</ele>
        <time>2018-10-04T08:07:52Z</time>
      </trkpt>
      <trkpt lat="44.4895" lon="5.62322">
        <ele>1341.18</ele>
        <time>2018-10-04T08:08:07Z</time>
      </trkpt>
      <trkpt lat="44.48941" lon="5.62306">
        <ele>1342.62</ele>
        <time>2018-10-04T08:08:23Z</time>
      </trkpt>
      <trkpt lat="44.48939" lon="5.62302">
        <ele>1343.1</ele>
        <time>2018-10-04T08:08:27Z</time>
      </trkpt>
      <trkpt lat="44.48927" lon="5.62282">
        <ele>1342.62</ele>
        <time>2018-10-04T08:08:45Z</time>
      </trkpt>
      <trkpt lat="44.4892" lon="5.62266">
        <ele>1343.1</ele>
        <time>2018-10-04T08:09:00Z</time>
      </trkpt>
      <trkpt lat="44.48913" lon="5.62247">
        <ele>1344.06</ele>
        <time>2018-10-04T08:09:17Z</time>
      </trkpt>
      <trkpt lat="44.48903" lon="5.62231">
        <ele>1345.5</ele>
        <time>2018-10-04T08:09:34Z</time>
      </trkpt>
      <trkpt lat="44.48893" lon="5.62223">
        <ele>1347.43</ele>
        <time>2018-10-04T08:09:49Z</time>
      </trkpt>
      <trkpt lat="44.48886" lon="5.62215">
        <ele>1349.35</ele>
        <time>2018-10-04T08:10:03Z</time>
      </trkpt>
      <trkpt lat="44.48877" lon="5.62204">
        <ele>1350.79</ele>
        <time>2018-10-04T08:10:18Z</time>
      </trkpt>
      <trkpt lat="44.48867" lon="5.62211">
        <ele>1352.71</ele>
        <time>2018-10-04T08:10:33Z</time>
      </trkpt>
      <trkpt lat="44.48866" lon="5.62219">
        <ele>1353.19</ele>
        <time>2018-10-04T08:10:42Z</time>
      </trkpt>
      <trkpt lat="44.48868" lon="5.62239">
        <ele>1354.63</ele>
        <time>2018-10-04T08:10:58Z</time>
      </trkpt>
      <trkpt lat="44.48871" lon="5.62255">
        <ele>1356.56</ele>
        <time>2018-10-04T08:11:12Z</time>
      </trkpt>
      <trkpt lat="44.4887" lon="5.62263">
        <ele>1357.04</ele>
        <time>2018-10-04T08:11:19Z</time>
      </trkpt>
      <trkpt lat="44.48859" lon="5.62271">
        <ele>1358.48</ele>
        <time>2018-10-04T08:11:33Z</time>
      </trkpt>
      <trkpt lat="44.48856" lon="5.6227">
        <ele>1358.48</ele>
        <time>2018-10-04T08:11:37Z</time>
      </trkpt>
      <trkpt lat="44.48845" lon="5.6226">
        <ele>1360.4</ele>
        <time>2018-10-04T08:11:53Z</time>
      </trkpt>
      <trkpt lat="44.48835" lon="5.62246">
        <ele>1362.33</ele>
        <time>2018-10-04T08:12:09Z</time>
      </trkpt>
      <trkpt lat="44.48833" lon="5.62227">
        <ele>1363.77</ele>
        <time>2018-10-04T08:12:24Z</time>
      </trkpt>
      <trkpt lat="44.48833" lon="5.62213">
        <ele>1365.21</ele>
        <time>2018-10-04T08:12:36Z</time>
      </trkpt>
      <trkpt lat="44.48834" lon="5.622">
        <ele>1367.13</ele>
        <time>2018-10-04T08:12:50Z</time>
      </trkpt>
      <trkpt lat="44.48834" lon="5.62185">
        <ele>1368.57</ele>
        <time>2018-10-04T08:13:04Z</time>
      </trkpt>
      <trkpt lat="44.48836" lon="5.62164">
        <ele>1370.02</ele>
        <time>2018-10-04T08:13:20Z</time>
      </trkpt>
      <trkpt lat="44.48841" lon="5.62149">
        <ele>1370.98</ele>
        <time>2018-10-04T08:13:34Z</time>
      </trkpt>
      <trkpt lat="44.48843" lon="5.62132">
        <ele>1372.42</ele>
        <time>2018-10-04T08:13:50Z</time>
      </trkpt>
      <trkpt lat="44.48844" lon="5.62121">
        <ele>1372.9</ele>
        <time>2018-10-04T08:13:59Z</time>
      </trkpt>
      <trkpt lat="44.48847" lon="5.62105">
        <ele>1374.34</ele>
        <time>2018-10-04T08:14:11Z</time>
      </trkpt>
      <trkpt lat="44.4885" lon="5.62089">
        <ele>1376.26</ele>
        <time>2018-10-04T08:14:25Z</time>
      </trkpt>
      <trkpt lat="44.48852" lon="5.62076">
        <ele>1377.23</ele>
        <time>2018-10-04T08:14:38Z</time>
      </trkpt>
      <trkpt lat="44.48852" lon="5.62054">
        <ele>1378.67</ele>
        <time>2018-10-04T08:14:55Z</time>
      </trkpt>
      <trkpt lat="44.48849" lon="5.62045">
        <ele>1378.67</ele>
        <time>2018-10-04T08:15:04Z</time>
      </trkpt>
      <trkpt lat="44.48835" lon="5.62037">
        <ele>1378.67</ele>
        <time>2018-10-04T08:15:18Z</time>
      </trkpt>
      <trkpt lat="44.48825" lon="5.6204">
        <ele>1378.19</ele>
        <time>2018-10-04T08:15:28Z</time>
      </trkpt>
      <trkpt lat="44.48807" lon="5.62057">
        <ele>1377.23</ele>
        <time>2018-10-04T08:15:49Z</time>
      </trkpt>
      <trkpt lat="44.48795" lon="5.62065">
        <ele>1375.78</ele>
        <time>2018-10-04T08:16:03Z</time>
      </trkpt>
      <trkpt lat="44.4879" lon="5.62067">
        <ele>1376.26</ele>
        <time>2018-10-04T08:16:09Z</time>
      </trkpt>
      <trkpt lat="44.48778" lon="5.62065">
        <ele>1376.26</ele>
        <time>2018-10-04T08:16:21Z</time>
      </trkpt>
      <trkpt lat="44.48764" lon="5.62054">
        <ele>1375.78</ele>
        <time>2018-10-04T08:16:37Z</time>
      </trkpt>
      <trkpt lat="44.48749" lon="5.62046">
        <ele>1376.26</ele>
        <time>2018-10-04T08:16:53Z</time>
      </trkpt>
      <trkpt lat="44.48733" lon="5.6204">
        <ele>1377.71</ele>
        <time>2018-10-04T08:17:09Z</time>
      </trkpt>
      <trkpt lat="44.4872" lon="5.62029">
        <ele>1378.67</ele>
        <time>2018-10-04T08:17:25Z</time>
      </trkpt>
      <trkpt lat="44.48704" lon="5.62017">
        <ele>1378.19</ele>
        <time>2018-10-04T08:17:42Z</time>
      </trkpt>
      <trkpt lat="44.48691" lon="5.61999">
        <ele>1378.19</ele>
        <time>2018-10-04T08:18:00Z</time>
      </trkpt>
      <trkpt lat="44.4868" lon="5.61984">
        <ele>1379.15</ele>
        <time>2018-10-04T08:18:15Z</time>
      </trkpt>
      <trkpt lat="44.48669" lon="5.61974">
        <ele>1381.07</ele>
        <time>2018-10-04T08:18:31Z</time>
      </trkpt>
      <trkpt lat="44.4866" lon="5.61964">
        <ele>1383.47</ele>
        <time>2018-10-04T08:18:47Z</time>
      </trkpt>
      <trkpt lat="44.48653" lon="5.61954">
        <ele>1385.88</ele>
        <time>2018-10-04T08:19:02Z</time>
      </trkpt>
      <trkpt lat="44.48648" lon="5.61939">
        <ele>1386.84</ele>
        <time>2018-10-04T08:19:16Z</time>
      </trkpt>
      <trkpt lat="44.48644" lon="5.61926">
        <ele>1387.8</ele>
        <time>2018-10-04T08:19:30Z</time>
      </trkpt>
      <trkpt lat="44.48636" lon="5.61915">
        <ele>1389.72</ele>
        <time>2018-10-04T08:19:45Z</time>
      </trkpt>
      <trkpt lat="44.48628" lon="5.61904">
        <ele>1391.65</ele>
        <time>2018-10-04T08:20:00Z</time>
      </trkpt>
      <trkpt lat="44.4862" lon="5.61891">
        <ele>1392.61</ele>
        <time>2018-10-04T08:20:13Z</time>
      </trkpt>
      <trkpt lat="44.48611" lon="5.61875">
        <ele>1393.57</ele>
        <time>2018-10-04T08:20:30Z</time>
      </trkpt>
      <trkpt lat="44.48602" lon="5.61859">
        <ele>1395.01</ele>
        <time>2018-10-04T08:20:47Z</time>
      </trkpt>
      <trkpt lat="44.48594" lon="5.61842">
        <ele>1396.93</ele>
        <time>2018-10-04T08:21:03Z</time>
      </trkpt>
      <trkpt lat="44.48588" lon="5.61828">
        <ele>1398.86</ele>
        <time>2018-10-04T08:21:18Z</time>
      </trkpt>
      <trkpt lat="44.48582" lon="5.61816">
        <ele>1400.78</ele>
        <time>2018-10-04T08:21:36Z</time>
      </trkpt>
      <trkpt lat="44.48576" lon="5.61804">
        <ele>1402.7</ele>
        <time>2018-10-04T08:21:50Z</time>
      </trkpt>
      <trkpt lat="44.48569" lon="5.61794">
        <ele>1405.1</ele>
        <time>2018-10-04T08:22:06Z</time>
      </trkpt>
      <trkpt lat="44.48557" lon="5.61784">
        <ele>1407.99</ele>
        <time>2018-10-04T08:22:25Z</time>
      </trkpt>
      <trkpt lat="44.4855" lon="5.61777">
        <ele>1410.39</ele>
        <time>2018-10-04T08:22:41Z</time>
      </trkpt>
      <trkpt lat="44.48542" lon="5.61768">
        <ele>1412.31</ele>
        <time>2018-10-04T08:22:56Z</time>
      </trkpt>
      <trkpt lat="44.48537" lon="5.6176">
        <ele>1413.76</ele>
        <time>2018-10-04T08:23:08Z</time>
      </trkpt>
      <trkpt lat="44.48529" lon="5.61748">
        <ele>1415.68</ele>
        <time>2018-10-04T08:23:24Z</time>
      </trkpt>
      <trkpt lat="44.48521" lon="5.61732">
        <ele>1418.08</ele>
        <time>2018-10-04T08:23:42Z</time>
      </trkpt>
      <trkpt lat="44.48517" lon="5.61716">
        <ele>1421.45</ele>
        <time>2018-10-04T08:24:00Z</time>
      </trkpt>
      <trkpt lat="44.48512" lon="5.61703">
        <ele>1422.41</ele>
        <time>2018-10-04T08:24:16Z</time>
      </trkpt>
      <trkpt lat="44.48506" lon="5.6169">
        <ele>1424.33</ele>
        <time>2018-10-04T08:24:31Z</time>
      </trkpt>
      <trkpt lat="44.485" lon="5.61678">
        <ele>1426.73</ele>
        <time>2018-10-04T08:24:47Z</time>
      </trkpt>
      <trkpt lat="44.48494" lon="5.61665">
        <ele>1428.66</ele>
        <time>2018-10-04T08:25:02Z</time>
      </trkpt>
      <trkpt lat="44.48487" lon="5.61651">
        <ele>1430.1</ele>
        <time>2018-10-04T08:25:18Z</time>
      </trkpt>
      <trkpt lat="44.48479" lon="5.61642">
        <ele>1432.5</ele>
        <time>2018-10-04T08:25:34Z</time>
      </trkpt>
      <trkpt lat="44.48471" lon="5.61632">
        <ele>1434.91</ele>
        <time>2018-10-04T08:25:49Z</time>
      </trkpt>
      <trkpt lat="44.48464" lon="5.61619">
        <ele>1436.83</ele>
        <time>2018-10-04T08:26:07Z</time>
      </trkpt>
      <trkpt lat="44.48457" lon="5.61607">
        <ele>1439.23</ele>
        <time>2018-10-04T08:26:23Z</time>
      </trkpt>
      <trkpt lat="44.48451" lon="5.61592">
        <ele>1440.67</ele>
        <time>2018-10-04T08:26:39Z</time>
      </trkpt>
      <trkpt lat="44.48446" lon="5.61588">
        <ele>1441.63</ele>
        <time>2018-10-04T08:26:56Z</time>
      </trkpt>
      <trkpt lat="44.48445" lon="5.61581">
        <ele>1442.6</ele>
        <time>2018-10-04T08:27:09Z</time>
      </trkpt>
      <trkpt lat="44.48442" lon="5.61571">
        <ele>1443.08</ele>
        <time>2018-10-04T08:27:23Z</time>
      </trkpt>
      <trkpt lat="44.48437" lon="5.6157">
        <ele>1443.56</ele>
        <time>2018-10-04T08:27:37Z</time>
      </trkpt>
      <trkpt lat="44.48435" lon="5.61571">
        <ele>1443.08</ele>
        <time>2018-10-04T08:27:52Z</time>
      </trkpt>
      <trkpt lat="44.48437" lon="5.61575">
        <ele>1443.08</ele>
        <time>2018-10-04T08:28:12Z</time>
      </trkpt>
      <trkpt lat="44.48437" lon="5.61573">
        <ele>1443.08</ele>
        <time>2018-10-04T08:28:39Z</time>
      </trkpt>
      <trkpt lat="44.48437" lon="5.61569">
        <ele>1443.08</ele>
        <time>2018-10-04T08:29:19Z</time>
      </trkpt>
      <trkpt lat="44.48435" lon="5.61568">
        <ele>1443.08</ele>
        <time>2018-10-04T08:29:42Z</time>
      </trkpt>
      <trkpt lat="44.48436" lon="5.61566">
        <ele>1443.08</ele>
        <time>2018-10-04T08:30:13Z</time>
      </trkpt>
      <trkpt lat="44.48437" lon="5.61567">
        <ele>1443.56</ele>
        <time>2018-10-04T08:30:38Z</time>
      </trkpt>
      <trkpt lat="44.48435" lon="5.61568">
        <ele>1443.56</ele>
        <time>2018-10-04T08:31:06Z</time>
      </trkpt>
      <trkpt lat="44.48437" lon="5.61568">
        <ele>1444.04</ele>
        <time>2018-10-04T08:31:31Z</time>
      </trkpt>
      <trkpt lat="44.48437" lon="5.61568">
        <ele>1444.04</ele>
        <time>2018-10-04T08:31:57Z</time>
      </trkpt>
      <trkpt lat="44.48435" lon="5.61567">
        <ele>1444.52</ele>
        <time>2018-10-04T08:32:34Z</time>
      </trkpt>
      <trkpt lat="44.48435" lon="5.61566">
        <ele>1444.52</ele>
        <time>2018-10-04T08:33:03Z</time>
      </trkpt>
      <trkpt lat="44.48436" lon="5.61569">
        <ele>1445</ele>
        <time>2018-10-04T08:33:39Z</time>
      </trkpt>
      <trkpt lat="44.48437" lon="5.61571">
        <ele>1445</ele>
        <time>2018-10-04T08:34:03Z</time>
      </trkpt>
      <trkpt lat="44.48433" lon="5.61566">
        <ele>1445.48</ele>
        <time>2018-10-04T08:34:38Z</time>
      </trkpt>
      <trkpt lat="44.48435" lon="5.61566">
        <ele>1445.48</ele>
        <time>2018-10-04T08:35:13Z</time>
      </trkpt>
      <trkpt lat="44.48435" lon="5.61567">
        <ele>1445.96</ele>
        <time>2018-10-04T08:35:38Z</time>
      </trkpt>
      <trkpt lat="44.48434" lon="5.61566">
        <ele>1445.96</ele>
        <time>2018-10-04T08:36:05Z</time>
      </trkpt>
      <trkpt lat="44.48434" lon="5.61565">
        <ele>1445.96</ele>
        <time>2018-10-04T08:36:35Z</time>
      </trkpt>
      <trkpt lat="44.48434" lon="5.61567">
        <ele>1446.44</ele>
        <time>2018-10-04T08:37:04Z</time>
      </trkpt>
      <trkpt lat="44.48434" lon="5.61572">
        <ele>1446.44</ele>
        <time>2018-10-04T08:37:38Z</time>
      </trkpt>
      <trkpt lat="44.48435" lon="5.6157">
        <ele>1447.4</ele>
        <time>2018-10-04T08:37:56Z</time>
      </trkpt>
      <trkpt lat="44.48437" lon="5.61574">
        <ele>1447.4</ele>
        <time>2018-10-04T08:38:11Z</time>
      </trkpt>
      <trkpt lat="44.48435" lon="5.61573">
        <ele>1447.4</ele>
        <time>2018-10-04T08:38:30Z</time>
      </trkpt>
      <trkpt lat="44.48432" lon="5.61573">
        <ele>1447.88</ele>
        <time>2018-10-04T08:38:43Z</time>
      </trkpt>
      <trkpt lat="44.48428" lon="5.61574">
        <ele>1448.36</ele>
        <time>2018-10-04T08:39:01Z</time>
      </trkpt>
      <trkpt lat="44.48423" lon="5.61577">
        <ele>1449.81</ele>
        <time>2018-10-04T08:39:13Z</time>
      </trkpt>
      <trkpt lat="44.48413" lon="5.61575">
        <ele>1451.73</ele>
        <time>2018-10-04T08:39:26Z</time>
      </trkpt>
      <trkpt lat="44.48408" lon="5.61571">
        <ele>1451.73</ele>
        <time>2018-10-04T08:39:39Z</time>
      </trkpt>
      <trkpt lat="44.48407" lon="5.61571">
        <ele>1451.73</ele>
        <time>2018-10-04T08:39:40Z</time>
      </trkpt>
      <trkpt lat="44.48397" lon="5.61569">
        <ele>1452.21</ele>
        <time>2018-10-04T08:39:54Z</time>
      </trkpt>
      <trkpt lat="44.48393" lon="5.6157">
        <ele>1452.69</ele>
        <time>2018-10-04T08:40:06Z</time>
      </trkpt>
      <trkpt lat="44.48391" lon="5.61578">
        <ele>1454.13</ele>
        <time>2018-10-04T08:40:21Z</time>
      </trkpt>
      <trkpt lat="44.4839" lon="5.61585">
        <ele>1456.05</ele>
        <time>2018-10-04T08:40:33Z</time>
      </trkpt>
      <trkpt lat="44.48386" lon="5.61592">
        <ele>1458.46</ele>
        <time>2018-10-04T08:40:46Z</time>
      </trkpt>
      <trkpt lat="44.4838" lon="5.61601">
        <ele>1460.86</ele>
        <time>2018-10-04T08:41:02Z</time>
      </trkpt>
      <trkpt lat="44.4838" lon="5.61609">
        <ele>1463.26</ele>
        <time>2018-10-04T08:41:17Z</time>
      </trkpt>
      <trkpt lat="44.48376" lon="5.61619">
        <ele>1466.15</ele>
        <time>2018-10-04T08:41:33Z</time>
      </trkpt>
      <trkpt lat="44.48373" lon="5.61622">
        <ele>1467.11</ele>
        <time>2018-10-04T08:41:49Z</time>
      </trkpt>
      <trkpt lat="44.4837" lon="5.6163">
        <ele>1469.99</ele>
        <time>2018-10-04T08:42:06Z</time>
      </trkpt>
      <trkpt lat="44.48372" lon="5.61639">
        <ele>1471.92</ele>
        <time>2018-10-04T08:42:20Z</time>
      </trkpt>
      <trkpt lat="44.48371" lon="5.61645">
        <ele>1474.32</ele>
        <time>2018-10-04T08:42:36Z</time>
      </trkpt>
      <trkpt lat="44.48369" lon="5.61651">
        <ele>1475.76</ele>
        <time>2018-10-04T08:42:51Z</time>
      </trkpt>
      <trkpt lat="44.48367" lon="5.6166">
        <ele>1478.65</ele>
        <time>2018-10-04T08:43:09Z</time>
      </trkpt>
      <trkpt lat="44.48364" lon="5.61669">
        <ele>1481.53</ele>
        <time>2018-10-04T08:43:26Z</time>
      </trkpt>
      <trkpt lat="44.48364" lon="5.61676">
        <ele>1484.41</ele>
        <time>2018-10-04T08:43:44Z</time>
      </trkpt>
      <trkpt lat="44.48361" lon="5.61684">
        <ele>1486.34</ele>
        <time>2018-10-04T08:43:57Z</time>
      </trkpt>
      <trkpt lat="44.48357" lon="5.61693">
        <ele>1489.22</ele>
        <time>2018-10-04T08:44:13Z</time>
      </trkpt>
      <trkpt lat="44.48356" lon="5.61697">
        <ele>1490.66</ele>
        <time>2018-10-04T08:44:29Z</time>
      </trkpt>
      <trkpt lat="44.48357" lon="5.61706">
        <ele>1493.55</ele>
        <time>2018-10-04T08:44:42Z</time>
      </trkpt>
      <trkpt lat="44.48359" lon="5.61711">
        <ele>1495.47</ele>
        <time>2018-10-04T08:44:54Z</time>
      </trkpt>
      <trkpt lat="44.48362" lon="5.61718">
        <ele>1496.91</ele>
        <time>2018-10-04T08:45:08Z</time>
      </trkpt>
      <trkpt lat="44.48361" lon="5.61725">
        <ele>1498.83</ele>
        <time>2018-10-04T08:45:22Z</time>
      </trkpt>
      <trkpt lat="44.48364" lon="5.61733">
        <ele>1501.24</ele>
        <time>2018-10-04T08:45:36Z</time>
      </trkpt>
      <trkpt lat="44.48369" lon="5.6174">
        <ele>1503.64</ele>
        <time>2018-10-04T08:45:50Z</time>
      </trkpt>
      <trkpt lat="44.48372" lon="5.61747">
        <ele>1506.52</ele>
        <time>2018-10-04T08:46:03Z</time>
      </trkpt>
      <trkpt lat="44.48376" lon="5.61754">
        <ele>1508.45</ele>
        <time>2018-10-04T08:46:20Z</time>
      </trkpt>
      <trkpt lat="44.48377" lon="5.6176">
        <ele>1510.37</ele>
        <time>2018-10-04T08:46:33Z</time>
      </trkpt>
      <trkpt lat="44.48377" lon="5.61765">
        <ele>1511.81</ele>
        <time>2018-10-04T08:46:44Z</time>
      </trkpt>
      <trkpt lat="44.48375" lon="5.61768">
        <ele>1513.25</ele>
        <time>2018-10-04T08:46:55Z</time>
      </trkpt>
      <trkpt lat="44.48374" lon="5.61769">
        <ele>1512.77</ele>
        <time>2018-10-04T08:47:21Z</time>
      </trkpt>
      <trkpt lat="44.48373" lon="5.61768">
        <ele>1513.25</ele>
        <time>2018-10-04T08:47:46Z</time>
      </trkpt>
      <trkpt lat="44.48374" lon="5.61768">
        <ele>1512.77</ele>
        <time>2018-10-04T08:48:13Z</time>
      </trkpt>
      <trkpt lat="44.48374" lon="5.61769">
        <ele>1513.25</ele>
        <time>2018-10-04T08:48:29Z</time>
      </trkpt>
      <trkpt lat="44.48373" lon="5.61775">
        <ele>1515.18</ele>
        <time>2018-10-04T08:48:36Z</time>
      </trkpt>
      <trkpt lat="44.48371" lon="5.61784">
        <ele>1518.06</ele>
        <time>2018-10-04T08:48:50Z</time>
      </trkpt>
      <trkpt lat="44.48369" lon="5.6179">
        <ele>1520.94</ele>
        <time>2018-10-04T08:49:04Z</time>
      </trkpt>
      <trkpt lat="44.48366" lon="5.61799">
        <ele>1522.87</ele>
        <time>2018-10-04T08:49:16Z</time>
      </trkpt>
      <trkpt lat="44.48364" lon="5.61803">
        <ele>1524.31</ele>
        <time>2018-10-04T08:49:30Z</time>
      </trkpt>
      <trkpt lat="44.48362" lon="5.61807">
        <ele>1526.23</ele>
        <time>2018-10-04T08:49:45Z</time>
      </trkpt>
      <trkpt lat="44.48359" lon="5.61814">
        <ele>1528.15</ele>
        <time>2018-10-04T08:50:00Z</time>
      </trkpt>
      <trkpt lat="44.48358" lon="5.61814">
        <ele>1528.15</ele>
        <time>2018-10-04T08:50:18Z</time>
      </trkpt>
      <trkpt lat="44.4836" lon="5.61816">
        <ele>1528.63</ele>
        <time>2018-10-04T08:50:32Z</time>
      </trkpt>
      <trkpt lat="44.48362" lon="5.61818">
        <ele>1528.63</ele>
        <time>2018-10-04T08:50:50Z</time>
      </trkpt>
      <trkpt lat="44.48365" lon="5.61819">
        <ele>1528.63</ele>
        <time>2018-10-04T08:51:19Z</time>
      </trkpt>
      <trkpt lat="44.48364" lon="5.61819">
        <ele>1529.11</ele>
        <time>2018-10-04T08:51:41Z</time>
      </trkpt>
      <trkpt lat="44.4836" lon="5.61827">
        <ele>1530.56</ele>
        <time>2018-10-04T08:51:55Z</time>
      </trkpt>
      <trkpt lat="44.48357" lon="5.61836">
        <ele>1534.4</ele>
        <time>2018-10-04T08:52:06Z</time>
      </trkpt>
      <trkpt lat="44.48355" lon="5.61847">
        <ele>1535.84</ele>
        <time>2018-10-04T08:52:21Z</time>
      </trkpt>
      <trkpt lat="44.48353" lon="5.61856">
        <ele>1538.25</ele>
        <time>2018-10-04T08:52:35Z</time>
      </trkpt>
      <trkpt lat="44.48349" lon="5.61869">
        <ele>1541.13</ele>
        <time>2018-10-04T08:52:48Z</time>
      </trkpt>
      <trkpt lat="44.48346" lon="5.61877">
        <ele>1544.5</ele>
        <time>2018-10-04T08:53:02Z</time>
      </trkpt>
      <trkpt lat="44.48343" lon="5.61888">
        <ele>1547.38</ele>
        <time>2018-10-04T08:53:17Z</time>
      </trkpt>
      <trkpt lat="44.48341" lon="5.619">
        <ele>1549.78</ele>
        <time>2018-10-04T08:53:32Z</time>
      </trkpt>
      <trkpt lat="44.48338" lon="5.61909">
        <ele>1552.67</ele>
        <time>2018-10-04T08:53:49Z</time>
      </trkpt>
      <trkpt lat="44.48337" lon="5.6192">
        <ele>1555.07</ele>
        <time>2018-10-04T08:54:05Z</time>
      </trkpt>
      <trkpt lat="44.48338" lon="5.61921">
        <ele>1556.51</ele>
        <time>2018-10-04T08:54:26Z</time>
      </trkpt>
      <trkpt lat="44.48338" lon="5.61928">
        <ele>1556.51</ele>
        <time>2018-10-04T08:54:45Z</time>
      </trkpt>
      <trkpt lat="44.48339" lon="5.61939">
        <ele>1557.95</ele>
        <time>2018-10-04T08:55:00Z</time>
      </trkpt>
      <trkpt lat="44.4834" lon="5.6195">
        <ele>1558.92</ele>
        <time>2018-10-04T08:55:12Z</time>
      </trkpt>
      <trkpt lat="44.48339" lon="5.61954">
        <ele>1560.36</ele>
        <time>2018-10-04T08:55:22Z</time>
      </trkpt>
      <trkpt lat="44.48339" lon="5.61965">
        <ele>1562.76</ele>
        <time>2018-10-04T08:55:37Z</time>
      </trkpt>
      <trkpt lat="44.48339" lon="5.61974">
        <ele>1564.2</ele>
        <time>2018-10-04T08:55:50Z</time>
      </trkpt>
      <trkpt lat="44.48336" lon="5.61982">
        <ele>1566.12</ele>
        <time>2018-10-04T08:56:04Z</time>
      </trkpt>
      <trkpt lat="44.48336" lon="5.61991">
        <ele>1568.53</ele>
        <time>2018-10-04T08:56:19Z</time>
      </trkpt>
      <trkpt lat="44.48334" lon="5.61997">
        <ele>1569.97</ele>
        <time>2018-10-04T08:56:34Z</time>
      </trkpt>
      <trkpt lat="44.48333" lon="5.62007">
        <ele>1572.37</ele>
        <time>2018-10-04T08:56:48Z</time>
      </trkpt>
      <trkpt lat="44.4833" lon="5.62013">
        <ele>1574.3</ele>
        <time>2018-10-04T08:57:00Z</time>
      </trkpt>
      <trkpt lat="44.48329" lon="5.62023">
        <ele>1576.7</ele>
        <time>2018-10-04T08:57:16Z</time>
      </trkpt>
      <trkpt lat="44.48328" lon="5.62033">
        <ele>1578.62</ele>
        <time>2018-10-04T08:57:31Z</time>
      </trkpt>
      <trkpt lat="44.48327" lon="5.62044">
        <ele>1581.51</ele>
        <time>2018-10-04T08:57:48Z</time>
      </trkpt>
      <trkpt lat="44.48325" lon="5.6205">
        <ele>1582.47</ele>
        <time>2018-10-04T08:58:01Z</time>
      </trkpt>
      <trkpt lat="44.48322" lon="5.62058">
        <ele>1585.35</ele>
        <time>2018-10-04T08:58:17Z</time>
      </trkpt>
      <trkpt lat="44.48319" lon="5.62069">
        <ele>1588.24</ele>
        <time>2018-10-04T08:58:35Z</time>
      </trkpt>
      <trkpt lat="44.48319" lon="5.62069">
        <ele>1588.24</ele>
        <time>2018-10-04T08:58:36Z</time>
      </trkpt>
      <trkpt lat="44.4832" lon="5.62078">
        <ele>1589.68</ele>
        <time>2018-10-04T08:58:46Z</time>
      </trkpt>
      <trkpt lat="44.4832" lon="5.62088">
        <ele>1592.08</ele>
        <time>2018-10-04T08:59:02Z</time>
      </trkpt>
      <trkpt lat="44.4832" lon="5.62095">
        <ele>1594</ele>
        <time>2018-10-04T08:59:16Z</time>
      </trkpt>
      <trkpt lat="44.4832" lon="5.62098">
        <ele>1594.96</ele>
        <time>2018-10-04T08:59:36Z</time>
      </trkpt>
      <trkpt lat="44.48317" lon="5.62104">
        <ele>1596.89</ele>
        <time>2018-10-04T08:59:47Z</time>
      </trkpt>
      <trkpt lat="44.48316" lon="5.62111">
        <ele>1598.81</ele>
        <time>2018-10-04T08:59:59Z</time>
      </trkpt>
      <trkpt lat="44.48315" lon="5.62121">
        <ele>1600.73</ele>
        <time>2018-10-04T09:00:13Z</time>
      </trkpt>
      <trkpt lat="44.48313" lon="5.62129">
        <ele>1603.14</ele>
        <time>2018-10-04T09:00:27Z</time>
      </trkpt>
      <trkpt lat="44.48311" lon="5.62137">
        <ele>1605.06</ele>
        <time>2018-10-04T09:00:40Z</time>
      </trkpt>
      <trkpt lat="44.48311" lon="5.62141">
        <ele>1605.54</ele>
        <time>2018-10-04T09:00:45Z</time>
      </trkpt>
      <trkpt lat="44.4831" lon="5.62151">
        <ele>1607.46</ele>
        <time>2018-10-04T09:00:59Z</time>
      </trkpt>
      <trkpt lat="44.48311" lon="5.62164">
        <ele>1608.9</ele>
        <time>2018-10-04T09:01:14Z</time>
      </trkpt>
      <trkpt lat="44.48312" lon="5.62174">
        <ele>1611.31</ele>
        <time>2018-10-04T09:01:30Z</time>
      </trkpt>
      <trkpt lat="44.48313" lon="5.62185">
        <ele>1613.23</ele>
        <time>2018-10-04T09:01:42Z</time>
      </trkpt>
      <trkpt lat="44.48317" lon="5.62198">
        <ele>1615.63</ele>
        <time>2018-10-04T09:02:00Z</time>
      </trkpt>
      <trkpt lat="44.48312" lon="5.62208">
        <ele>1618.04</ele>
        <time>2018-10-04T09:02:15Z</time>
      </trkpt>
      <trkpt lat="44.48306" lon="5.62211">
        <ele>1619.96</ele>
        <time>2018-10-04T09:02:29Z</time>
      </trkpt>
      <trkpt lat="44.48303" lon="5.62213">
        <ele>1621.4</ele>
        <time>2018-10-04T09:02:40Z</time>
      </trkpt>
      <trkpt lat="44.48305" lon="5.62214">
        <ele>1621.88</ele>
        <time>2018-10-04T09:02:55Z</time>
      </trkpt>
      <trkpt lat="44.48303" lon="5.62217">
        <ele>1621.88</ele>
        <time>2018-10-04T09:03:07Z</time>
      </trkpt>
      <trkpt lat="44.48303" lon="5.62213">
        <ele>1622.36</ele>
        <time>2018-10-04T09:03:36Z</time>
      </trkpt>
      <trkpt lat="44.48299" lon="5.62202">
        <ele>1621.4</ele>
        <time>2018-10-04T09:03:49Z</time>
      </trkpt>
      <trkpt lat="44.48297" lon="5.62198">
        <ele>1621.88</ele>
        <time>2018-10-04T09:04:04Z</time>
      </trkpt>
      <trkpt lat="44.483" lon="5.62201">
        <ele>1621.4</ele>
        <time>2018-10-04T09:04:32Z</time>
      </trkpt>
      <trkpt lat="44.48299" lon="5.62197">
        <ele>1621.4</ele>
        <time>2018-10-04T09:04:56Z</time>
      </trkpt>
      <trkpt lat="44.48297" lon="5.62195">
        <ele>1621.4</ele>
        <time>2018-10-04T09:05:25Z</time>
      </trkpt>
      <trkpt lat="44.48299" lon="5.62198">
        <ele>1621.88</ele>
        <time>2018-10-04T09:05:49Z</time>
      </trkpt>
      <trkpt lat="44.48299" lon="5.62197">
        <ele>1621.88</ele>
        <time>2018-10-04T09:06:14Z</time>
      </trkpt>
      <trkpt lat="44.48299" lon="5.62198">
        <ele>1621.88</ele>
        <time>2018-10-04T09:06:33Z</time>
      </trkpt>
      <trkpt lat="44.48292" lon="5.62199">
        <ele>1622.84</ele>
        <time>2018-10-04T09:06:47Z</time>
      </trkpt>
      <trkpt lat="44.48295" lon="5.62196">
        <ele>1622.84</ele>
        <time>2018-10-04T09:07:11Z</time>
      </trkpt>
      <trkpt lat="44.48297" lon="5.62198">
        <ele>1622.84</ele>
        <time>2018-10-04T09:07:27Z</time>
      </trkpt>
      <trkpt lat="44.48291" lon="5.62186">
        <ele>1622.36</ele>
        <time>2018-10-04T09:07:45Z</time>
      </trkpt>
      <trkpt lat="44.48283" lon="5.62175">
        <ele>1621.88</ele>
        <time>2018-10-04T09:08:00Z</time>
      </trkpt>
      <trkpt lat="44.48275" lon="5.62165">
        <ele>1620.92</ele>
        <time>2018-10-04T09:08:14Z</time>
      </trkpt>
      <trkpt lat="44.48263" lon="5.62155">
        <ele>1620.92</ele>
        <time>2018-10-04T09:08:32Z</time>
      </trkpt>
      <trkpt lat="44.48261" lon="5.62153">
        <ele>1620.44</ele>
        <time>2018-10-04T09:08:35Z</time>
      </trkpt>
      <trkpt lat="44.48247" lon="5.62142">
        <ele>1620.44</ele>
        <time>2018-10-04T09:08:52Z</time>
      </trkpt>
      <trkpt lat="44.48235" lon="5.62129">
        <ele>1620.92</ele>
        <time>2018-10-04T09:09:08Z</time>
      </trkpt>
      <trkpt lat="44.48224" lon="5.62123">
        <ele>1622.36</ele>
        <time>2018-10-04T09:09:24Z</time>
      </trkpt>
      <trkpt lat="44.48221" lon="5.62119">
        <ele>1622.84</ele>
        <time>2018-10-04T09:09:38Z</time>
      </trkpt>
      <trkpt lat="44.48217" lon="5.62116">
        <ele>1623.32</ele>
        <time>2018-10-04T09:09:52Z</time>
      </trkpt>
      <trkpt lat="44.48214" lon="5.62111">
        <ele>1624.28</ele>
        <time>2018-10-04T09:10:07Z</time>
      </trkpt>
      <trkpt lat="44.48208" lon="5.62107">
        <ele>1624.77</ele>
        <time>2018-10-04T09:10:14Z</time>
      </trkpt>
      <trkpt lat="44.48195" lon="5.62102">
        <ele>1625.25</ele>
        <time>2018-10-04T09:10:30Z</time>
      </trkpt>
      <trkpt lat="44.48187" lon="5.62098">
        <ele>1625.25</ele>
        <time>2018-10-04T09:10:46Z</time>
      </trkpt>
      <trkpt lat="44.48179" lon="5.62093">
        <ele>1624.77</ele>
        <time>2018-10-04T09:10:59Z</time>
      </trkpt>
      <trkpt lat="44.48173" lon="5.62086">
        <ele>1622.84</ele>
        <time>2018-10-04T09:11:13Z</time>
      </trkpt>
      <trkpt lat="44.48169" lon="5.62084">
        <ele>1622.84</ele>
        <time>2018-10-04T09:11:20Z</time>
      </trkpt>
      <trkpt lat="44.48162" lon="5.62077">
        <ele>1620.92</ele>
        <time>2018-10-04T09:11:34Z</time>
      </trkpt>
      <trkpt lat="44.48152" lon="5.62075">
        <ele>1619.96</ele>
        <time>2018-10-04T09:11:48Z</time>
      </trkpt>
      <trkpt lat="44.48147" lon="5.62066">
        <ele>1619</ele>
        <time>2018-10-04T09:12:02Z</time>
      </trkpt>
      <trkpt lat="44.48144" lon="5.6206">
        <ele>1617.56</ele>
        <time>2018-10-04T09:12:15Z</time>
      </trkpt>
      <trkpt lat="44.48143" lon="5.62055">
        <ele>1616.11</ele>
        <time>2018-10-04T09:12:30Z</time>
      </trkpt>
      <trkpt lat="44.48136" lon="5.62059">
        <ele>1614.19</ele>
        <time>2018-10-04T09:12:44Z</time>
      </trkpt>
      <trkpt lat="44.48127" lon="5.62062">
        <ele>1611.79</ele>
        <time>2018-10-04T09:12:56Z</time>
      </trkpt>
      <trkpt lat="44.48123" lon="5.62062">
        <ele>1610.83</ele>
        <time>2018-10-04T09:13:00Z</time>
      </trkpt>
      <trkpt lat="44.4811" lon="5.62049">
        <ele>1608.42</ele>
        <time>2018-10-04T09:13:19Z</time>
      </trkpt>
      <trkpt lat="44.48106" lon="5.62044">
        <ele>1606.02</ele>
        <time>2018-10-04T09:13:33Z</time>
      </trkpt>
      <trkpt lat="44.48097" lon="5.62039">
        <ele>1603.14</ele>
        <time>2018-10-04T09:13:47Z</time>
      </trkpt>
      <trkpt lat="44.48083" lon="5.62035">
        <ele>1599.29</ele>
        <time>2018-10-04T09:14:02Z</time>
      </trkpt>
      <trkpt lat="44.48072" lon="5.62033">
        <ele>1598.33</ele>
        <time>2018-10-04T09:14:12Z</time>
      </trkpt>
      <trkpt lat="44.48054" lon="5.62026">
        <ele>1596.41</ele>
        <time>2018-10-04T09:14:31Z</time>
      </trkpt>
      <trkpt lat="44.48036" lon="5.62021">
        <ele>1596.41</ele>
        <time>2018-10-04T09:14:48Z</time>
      </trkpt>
      <trkpt lat="44.48021" lon="5.62017">
        <ele>1595.45</ele>
        <time>2018-10-04T09:15:03Z</time>
      </trkpt>
      <trkpt lat="44.48" lon="5.62012">
        <ele>1594</ele>
        <time>2018-10-04T09:15:24Z</time>
      </trkpt>
      <trkpt lat="44.47984" lon="5.62005">
        <ele>1591.6</ele>
        <time>2018-10-04T09:15:41Z</time>
      </trkpt>
      <trkpt lat="44.47969" lon="5.61996">
        <ele>1589.2</ele>
        <time>2018-10-04T09:15:57Z</time>
      </trkpt>
      <trkpt lat="44.47949" lon="5.61985">
        <ele>1586.79</ele>
        <time>2018-10-04T09:16:17Z</time>
      </trkpt>
      <trkpt lat="44.47942" lon="5.6198">
        <ele>1585.35</ele>
        <time>2018-10-04T09:16:25Z</time>
      </trkpt>
      <trkpt lat="44.47921" lon="5.61978">
        <ele>1582.47</ele>
        <time>2018-10-04T09:16:44Z</time>
      </trkpt>
      <trkpt lat="44.47912" lon="5.61977">
        <ele>1581.03</ele>
        <time>2018-10-04T09:16:54Z</time>
      </trkpt>
      <trkpt lat="44.47908" lon="5.61973">
        <ele>1580.06</ele>
        <time>2018-10-04T09:16:59Z</time>
      </trkpt>
      <trkpt lat="44.47891" lon="5.61972">
        <ele>1579.58</ele>
        <time>2018-10-04T09:17:16Z</time>
      </trkpt>
      <trkpt lat="44.47886" lon="5.61971">
        <ele>1578.62</ele>
        <time>2018-10-04T09:17:20Z</time>
      </trkpt>
      <trkpt lat="44.47883" lon="5.61971">
        <ele>1578.62</ele>
        <time>2018-10-04T09:17:24Z</time>
      </trkpt>
      <trkpt lat="44.47866" lon="5.61968">
        <ele>1577.66</ele>
        <time>2018-10-04T09:17:40Z</time>
      </trkpt>
      <trkpt lat="44.47854" lon="5.61963">
        <ele>1576.7</ele>
        <time>2018-10-04T09:17:55Z</time>
      </trkpt>
      <trkpt lat="44.47851" lon="5.61961">
        <ele>1576.7</ele>
        <time>2018-10-04T09:17:58Z</time>
      </trkpt>
      <trkpt lat="44.47832" lon="5.61955">
        <ele>1575.26</ele>
        <time>2018-10-04T09:18:17Z</time>
      </trkpt>
      <trkpt lat="44.47817" lon="5.61947">
        <ele>1574.78</ele>
        <time>2018-10-04T09:18:32Z</time>
      </trkpt>
      <trkpt lat="44.47801" lon="5.61939">
        <ele>1574.3</ele>
        <time>2018-10-04T09:18:48Z</time>
      </trkpt>
      <trkpt lat="44.47788" lon="5.61925">
        <ele>1574.78</ele>
        <time>2018-10-04T09:19:04Z</time>
      </trkpt>
      <trkpt lat="44.47787" lon="5.61923">
        <ele>1574.78</ele>
        <time>2018-10-04T09:19:06Z</time>
      </trkpt>
      <trkpt lat="44.47777" lon="5.61921">
        <ele>1575.26</ele>
        <time>2018-10-04T09:19:17Z</time>
      </trkpt>
      <trkpt lat="44.47768" lon="5.61918">
        <ele>1573.82</ele>
        <time>2018-10-04T09:19:31Z</time>
      </trkpt>
      <trkpt lat="44.47764" lon="5.61913">
        <ele>1573.33</ele>
        <time>2018-10-04T09:19:36Z</time>
      </trkpt>
      <trkpt lat="44.47748" lon="5.61902">
        <ele>1571.41</ele>
        <time>2018-10-04T09:19:52Z</time>
      </trkpt>
      <trkpt lat="44.47731" lon="5.61892">
        <ele>1571.89</ele>
        <time>2018-10-04T09:20:09Z</time>
      </trkpt>
      <trkpt lat="44.47713" lon="5.61884">
        <ele>1570.93</ele>
        <time>2018-10-04T09:20:28Z</time>
      </trkpt>
      <trkpt lat="44.47698" lon="5.61874">
        <ele>1570.93</ele>
        <time>2018-10-04T09:20:43Z</time>
      </trkpt>
      <trkpt lat="44.47681" lon="5.61863">
        <ele>1570.93</ele>
        <time>2018-10-04T09:21:00Z</time>
      </trkpt>
      <trkpt lat="44.47671" lon="5.61855">
        <ele>1571.41</ele>
        <time>2018-10-04T09:21:11Z</time>
      </trkpt>
      <trkpt lat="44.47653" lon="5.61853">
        <ele>1571.89</ele>
        <time>2018-10-04T09:21:29Z</time>
      </trkpt>
      <trkpt lat="44.47636" lon="5.6185">
        <ele>1571.41</ele>
        <time>2018-10-04T09:21:46Z</time>
      </trkpt>
      <trkpt lat="44.47622" lon="5.61845">
        <ele>1569.97</ele>
        <time>2018-10-04T09:22:01Z</time>
      </trkpt>
      <trkpt lat="44.47605" lon="5.61842">
        <ele>1567.09</ele>
        <time>2018-10-04T09:22:18Z</time>
      </trkpt>
      <trkpt lat="44.47595" lon="5.61841">
        <ele>1565.16</ele>
        <time>2018-10-04T09:22:30Z</time>
      </trkpt>
      <trkpt lat="44.47579" lon="5.61834">
        <ele>1562.28</ele>
        <time>2018-10-04T09:22:46Z</time>
      </trkpt>
      <trkpt lat="44.47562" lon="5.61824">
        <ele>1559.4</ele>
        <time>2018-10-04T09:23:04Z</time>
      </trkpt>
      <trkpt lat="44.47541" lon="5.61816">
        <ele>1559.4</ele>
        <time>2018-10-04T09:23:25Z</time>
      </trkpt>
      <trkpt lat="44.47522" lon="5.61816">
        <ele>1559.4</ele>
        <time>2018-10-04T09:23:42Z</time>
      </trkpt>
      <trkpt lat="44.4752" lon="5.61816">
        <ele>1559.4</ele>
        <time>2018-10-04T09:23:45Z</time>
      </trkpt>
      <trkpt lat="44.47501" lon="5.61816">
        <ele>1557.47</ele>
        <time>2018-10-04T09:24:03Z</time>
      </trkpt>
      <trkpt lat="44.47483" lon="5.61813">
        <ele>1555.07</ele>
        <time>2018-10-04T09:24:21Z</time>
      </trkpt>
      <trkpt lat="44.4747" lon="5.61802">
        <ele>1553.63</ele>
        <time>2018-10-04T09:24:36Z</time>
      </trkpt>
      <trkpt lat="44.47456" lon="5.61792">
        <ele>1552.19</ele>
        <time>2018-10-04T09:24:52Z</time>
      </trkpt>
      <trkpt lat="44.47443" lon="5.61782">
        <ele>1550.26</ele>
        <time>2018-10-04T09:25:08Z</time>
      </trkpt>
      <trkpt lat="44.47436" lon="5.6178">
        <ele>1549.3</ele>
        <time>2018-10-04T09:25:16Z</time>
      </trkpt>
      <trkpt lat="44.47418" lon="5.61775">
        <ele>1548.34</ele>
        <time>2018-10-04T09:25:35Z</time>
      </trkpt>
      <trkpt lat="44.47402" lon="5.6177">
        <ele>1546.9</ele>
        <time>2018-10-04T09:25:51Z</time>
      </trkpt>
      <trkpt lat="44.47385" lon="5.61765">
        <ele>1545.46</ele>
        <time>2018-10-04T09:26:08Z</time>
      </trkpt>
      <trkpt lat="44.47382" lon="5.61764">
        <ele>1545.46</ele>
        <time>2018-10-04T09:26:11Z</time>
      </trkpt>
      <trkpt lat="44.47367" lon="5.61755">
        <ele>1543.05</ele>
        <time>2018-10-04T09:26:29Z</time>
      </trkpt>
      <trkpt lat="44.47362" lon="5.61753">
        <ele>1542.57</ele>
        <time>2018-10-04T09:26:44Z</time>
      </trkpt>
      <trkpt lat="44.47356" lon="5.61745">
        <ele>1541.61</ele>
        <time>2018-10-04T09:26:59Z</time>
      </trkpt>
      <trkpt lat="44.47342" lon="5.61727">
        <ele>1538.73</ele>
        <time>2018-10-04T09:27:17Z</time>
      </trkpt>
      <trkpt lat="44.47337" lon="5.61721">
        <ele>1537.77</ele>
        <time>2018-10-04T09:27:32Z</time>
      </trkpt>
      <trkpt lat="44.47334" lon="5.61714">
        <ele>1536.8</ele>
        <time>2018-10-04T09:27:47Z</time>
      </trkpt>
      <trkpt lat="44.47333" lon="5.61714">
        <ele>1536.8</ele>
        <time>2018-10-04T09:27:48Z</time>
      </trkpt>
      <trkpt lat="44.47323" lon="5.61706">
        <ele>1534.88</ele>
        <time>2018-10-04T09:28:02Z</time>
      </trkpt>
      <trkpt lat="44.47308" lon="5.61691">
        <ele>1532.96</ele>
        <time>2018-10-04T09:28:19Z</time>
      </trkpt>
      <trkpt lat="44.47294" lon="5.61673">
        <ele>1530.56</ele>
        <time>2018-10-04T09:28:37Z</time>
      </trkpt>
      <trkpt lat="44.47282" lon="5.61652">
        <ele>1528.15</ele>
        <time>2018-10-04T09:28:54Z</time>
      </trkpt>
      <trkpt lat="44.47271" lon="5.61634">
        <ele>1527.19</ele>
        <time>2018-10-04T09:29:09Z</time>
      </trkpt>
      <trkpt lat="44.47257" lon="5.61614">
        <ele>1528.15</ele>
        <time>2018-10-04T09:29:26Z</time>
      </trkpt>
      <trkpt lat="44.47246" lon="5.61594">
        <ele>1529.11</ele>
        <time>2018-10-04T09:29:41Z</time>
      </trkpt>
      <trkpt lat="44.47239" lon="5.61575">
        <ele>1529.59</ele>
        <time>2018-10-04T09:29:55Z</time>
      </trkpt>
      <trkpt lat="44.47226" lon="5.61555">
        <ele>1530.56</ele>
        <time>2018-10-04T09:30:12Z</time>
      </trkpt>
      <trkpt lat="44.47217" lon="5.61537">
        <ele>1531.04</ele>
        <time>2018-10-04T09:30:26Z</time>
      </trkpt>
      <trkpt lat="44.47205" lon="5.61522">
        <ele>1531.52</ele>
        <time>2018-10-04T09:30:41Z</time>
      </trkpt>
      <trkpt lat="44.47196" lon="5.61508">
        <ele>1532.48</ele>
        <time>2018-10-04T09:30:54Z</time>
      </trkpt>
      <trkpt lat="44.47192" lon="5.61507">
        <ele>1533.44</ele>
        <time>2018-10-04T09:31:10Z</time>
      </trkpt>
      <trkpt lat="44.47187" lon="5.61493">
        <ele>1534.4</ele>
        <time>2018-10-04T09:31:23Z</time>
      </trkpt>
      <trkpt lat="44.47179" lon="5.61477">
        <ele>1536.32</ele>
        <time>2018-10-04T09:31:39Z</time>
      </trkpt>
      <trkpt lat="44.47173" lon="5.61459">
        <ele>1537.77</ele>
        <time>2018-10-04T09:31:55Z</time>
      </trkpt>
      <trkpt lat="44.47171" lon="5.61454">
        <ele>1538.73</ele>
        <time>2018-10-04T09:32:01Z</time>
      </trkpt>
      <trkpt lat="44.47172" lon="5.61449">
        <ele>1538.73</ele>
        <time>2018-10-04T09:32:05Z</time>
      </trkpt>
      <trkpt lat="44.47171" lon="5.61444">
        <ele>1539.21</ele>
        <time>2018-10-04T09:32:09Z</time>
      </trkpt>
      <trkpt lat="44.47162" lon="5.61425">
        <ele>1540.65</ele>
        <time>2018-10-04T09:32:26Z</time>
      </trkpt>
      <trkpt lat="44.47155" lon="5.6141">
        <ele>1542.57</ele>
        <time>2018-10-04T09:32:40Z</time>
      </trkpt>
      <trkpt lat="44.4715" lon="5.61395">
        <ele>1543.05</ele>
        <time>2018-10-04T09:32:54Z</time>
      </trkpt>
      <trkpt lat="44.47146" lon="5.6138">
        <ele>1544.01</ele>
        <time>2018-10-04T09:33:09Z</time>
      </trkpt>
      <trkpt lat="44.47143" lon="5.61367">
        <ele>1545.46</ele>
        <time>2018-10-04T09:33:23Z</time>
      </trkpt>
      <trkpt lat="44.47143" lon="5.61355">
        <ele>1547.38</ele>
        <time>2018-10-04T09:33:39Z</time>
      </trkpt>
      <trkpt lat="44.47141" lon="5.61354">
        <ele>1547.86</ele>
        <time>2018-10-04T09:33:53Z</time>
      </trkpt>
      <trkpt lat="44.4714" lon="5.61354">
        <ele>1546.9</ele>
        <time>2018-10-04T09:34:26Z</time>
      </trkpt>
      <trkpt lat="44.47138" lon="5.6135">
        <ele>1547.86</ele>
        <time>2018-10-04T09:34:48Z</time>
      </trkpt>
      <trkpt lat="44.47129" lon="5.61337">
        <ele>1549.78</ele>
        <time>2018-10-04T09:35:03Z</time>
      </trkpt>
      <trkpt lat="44.4712" lon="5.61326">
        <ele>1550.74</ele>
        <time>2018-10-04T09:35:17Z</time>
      </trkpt>
      <trkpt lat="44.47111" lon="5.61314">
        <ele>1551.71</ele>
        <time>2018-10-04T09:35:33Z</time>
      </trkpt>
      <trkpt lat="44.47104" lon="5.61301">
        <ele>1552.67</ele>
        <time>2018-10-04T09:35:48Z</time>
      </trkpt>
      <trkpt lat="44.47103" lon="5.61298">
        <ele>1552.67</ele>
        <time>2018-10-04T09:36:02Z</time>
      </trkpt>
      <trkpt lat="44.47102" lon="5.61299">
        <ele>1552.67</ele>
        <time>2018-10-04T09:36:22Z</time>
      </trkpt>
      <trkpt lat="44.47102" lon="5.61299">
        <ele>1552.67</ele>
        <time>2018-10-04T09:36:42Z</time>
      </trkpt>
      <trkpt lat="44.47101" lon="5.61295">
        <ele>1553.15</ele>
        <time>2018-10-04T09:37:02Z</time>
      </trkpt>
      <trkpt lat="44.47099" lon="5.61283">
        <ele>1554.59</ele>
        <time>2018-10-04T09:37:15Z</time>
      </trkpt>
      <trkpt lat="44.47095" lon="5.6127">
        <ele>1556.03</ele>
        <time>2018-10-04T09:37:29Z</time>
      </trkpt>
      <trkpt lat="44.4709" lon="5.61257">
        <ele>1557.95</ele>
        <time>2018-10-04T09:37:44Z</time>
      </trkpt>
      <trkpt lat="44.47085" lon="5.61248">
        <ele>1560.84</ele>
        <time>2018-10-04T09:37:59Z</time>
      </trkpt>
      <trkpt lat="44.47082" lon="5.6124">
        <ele>1563.72</ele>
        <time>2018-10-04T09:38:12Z</time>
      </trkpt>
      <trkpt lat="44.47079" lon="5.61232">
        <ele>1564.2</ele>
        <time>2018-10-04T09:38:25Z</time>
      </trkpt>
      <trkpt lat="44.47075" lon="5.61225">
        <ele>1566.12</ele>
        <time>2018-10-04T09:38:40Z</time>
      </trkpt>
      <trkpt lat="44.47072" lon="5.61217">
        <ele>1568.53</ele>
        <time>2018-10-04T09:38:57Z</time>
      </trkpt>
      <trkpt lat="44.47069" lon="5.6121">
        <ele>1570.45</ele>
        <time>2018-10-04T09:39:11Z</time>
      </trkpt>
      <trkpt lat="44.47067" lon="5.61204">
        <ele>1572.37</ele>
        <time>2018-10-04T09:39:25Z</time>
      </trkpt>
      <trkpt lat="44.47066" lon="5.612">
        <ele>1573.33</ele>
        <time>2018-10-04T09:39:41Z</time>
      </trkpt>
      <trkpt lat="44.47064" lon="5.61195">
        <ele>1575.74</ele>
        <time>2018-10-04T09:39:53Z</time>
      </trkpt>
      <trkpt lat="44.47063" lon="5.61185">
        <ele>1577.18</ele>
        <time>2018-10-04T09:40:11Z</time>
      </trkpt>
      <trkpt lat="44.47062" lon="5.61177">
        <ele>1579.1</ele>
        <time>2018-10-04T09:40:25Z</time>
      </trkpt>
      <trkpt lat="44.47059" lon="5.61168">
        <ele>1581.51</ele>
        <time>2018-10-04T09:40:40Z</time>
      </trkpt>
      <trkpt lat="44.47057" lon="5.61159">
        <ele>1583.91</ele>
        <time>2018-10-04T09:40:57Z</time>
      </trkpt>
      <trkpt lat="44.47053" lon="5.61151">
        <ele>1585.83</ele>
        <time>2018-10-04T09:41:12Z</time>
      </trkpt>
      <trkpt lat="44.4705" lon="5.61145">
        <ele>1588.24</ele>
        <time>2018-10-04T09:41:27Z</time>
      </trkpt>
      <trkpt lat="44.47047" lon="5.61134">
        <ele>1590.64</ele>
        <time>2018-10-04T09:41:43Z</time>
      </trkpt>
      <trkpt lat="44.47045" lon="5.61126">
        <ele>1592.56</ele>
        <time>2018-10-04T09:41:57Z</time>
      </trkpt>
      <trkpt lat="44.47041" lon="5.61118">
        <ele>1594.96</ele>
        <time>2018-10-04T09:42:12Z</time>
      </trkpt>
      <trkpt lat="44.47037" lon="5.61104">
        <ele>1596.41</ele>
        <time>2018-10-04T09:42:31Z</time>
      </trkpt>
      <trkpt lat="44.47034" lon="5.61094">
        <ele>1598.33</ele>
        <time>2018-10-04T09:42:44Z</time>
      </trkpt>
      <trkpt lat="44.4703" lon="5.61086">
        <ele>1600.25</ele>
        <time>2018-10-04T09:42:58Z</time>
      </trkpt>
      <trkpt lat="44.4703" lon="5.61084">
        <ele>1600.73</ele>
        <time>2018-10-04T09:43:15Z</time>
      </trkpt>
      <trkpt lat="44.47029" lon="5.61084">
        <ele>1600.73</ele>
        <time>2018-10-04T09:43:38Z</time>
      </trkpt>
      <trkpt lat="44.47027" lon="5.61073">
        <ele>1602.66</ele>
        <time>2018-10-04T09:43:50Z</time>
      </trkpt>
      <trkpt lat="44.47022" lon="5.61073">
        <ele>1605.06</ele>
        <time>2018-10-04T09:44:04Z</time>
      </trkpt>
      <trkpt lat="44.47016" lon="5.61079">
        <ele>1608.42</ele>
        <time>2018-10-04T09:44:15Z</time>
      </trkpt>
      <trkpt lat="44.47009" lon="5.61082">
        <ele>1610.35</ele>
        <time>2018-10-04T09:44:31Z</time>
      </trkpt>
      <trkpt lat="44.47002" lon="5.61086">
        <ele>1612.75</ele>
        <time>2018-10-04T09:44:48Z</time>
      </trkpt>
      <trkpt lat="44.46993" lon="5.6109">
        <ele>1615.63</ele>
        <time>2018-10-04T09:45:07Z</time>
      </trkpt>
      <trkpt lat="44.46988" lon="5.61093">
        <ele>1617.07</ele>
        <time>2018-10-04T09:45:20Z</time>
      </trkpt>
      <trkpt lat="44.46982" lon="5.61097">
        <ele>1619.48</ele>
        <time>2018-10-04T09:45:38Z</time>
      </trkpt>
      <trkpt lat="44.46974" lon="5.61101">
        <ele>1620.92</ele>
        <time>2018-10-04T09:45:55Z</time>
      </trkpt>
      <trkpt lat="44.4697" lon="5.61104">
        <ele>1622.36</ele>
        <time>2018-10-04T09:46:11Z</time>
      </trkpt>
      <trkpt lat="44.46964" lon="5.61108">
        <ele>1624.28</ele>
        <time>2018-10-04T09:46:25Z</time>
      </trkpt>
      <trkpt lat="44.46956" lon="5.61115">
        <ele>1626.21</ele>
        <time>2018-10-04T09:46:43Z</time>
      </trkpt>
      <trkpt lat="44.46948" lon="5.6112">
        <ele>1628.61</ele>
        <time>2018-10-04T09:47:00Z</time>
      </trkpt>
      <trkpt lat="44.46939" lon="5.61123">
        <ele>1631.01</ele>
        <time>2018-10-04T09:47:16Z</time>
      </trkpt>
      <trkpt lat="44.46931" lon="5.61121">
        <ele>1632.94</ele>
        <time>2018-10-04T09:47:29Z</time>
      </trkpt>
      <trkpt lat="44.46926" lon="5.61118">
        <ele>1634.86</ele>
        <time>2018-10-04T09:47:43Z</time>
      </trkpt>
      <trkpt lat="44.46927" lon="5.61117">
        <ele>1634.86</ele>
        <time>2018-10-04T09:48:07Z</time>
      </trkpt>
      <trkpt lat="44.46927" lon="5.61117">
        <ele>1634.86</ele>
        <time>2018-10-04T09:48:09Z</time>
      </trkpt>
      <trkpt lat="44.46928" lon="5.61117">
        <ele>1634.38</ele>
        <time>2018-10-04T09:48:21Z</time>
      </trkpt>
      <trkpt lat="44.4693" lon="5.61116">
        <ele>1635.34</ele>
        <time>2018-10-04T09:49:01Z</time>
      </trkpt>
      <trkpt lat="44.4693" lon="5.61116">
        <ele>1635.34</ele>
        <time>2018-10-04T09:49:46Z</time>
      </trkpt>
      <trkpt lat="44.46928" lon="5.6112">
        <ele>1635.82</ele>
        <time>2018-10-04T09:49:58Z</time>
      </trkpt>
      <trkpt lat="44.46925" lon="5.61118">
        <ele>1635.34</ele>
        <time>2018-10-04T09:50:13Z</time>
      </trkpt>
      <trkpt lat="44.46927" lon="5.61112">
        <ele>1636.78</ele>
        <time>2018-10-04T09:50:29Z</time>
      </trkpt>
      <trkpt lat="44.46927" lon="5.61104">
        <ele>1637.26</ele>
        <time>2018-10-04T09:50:40Z</time>
      </trkpt>
      <trkpt lat="44.46928" lon="5.61101">
        <ele>1638.22</ele>
        <time>2018-10-04T09:50:57Z</time>
      </trkpt>
      <trkpt lat="44.46927" lon="5.61093">
        <ele>1639.19</ele>
        <time>2018-10-04T09:51:12Z</time>
      </trkpt>
      <trkpt lat="44.46927" lon="5.61085">
        <ele>1640.15</ele>
        <time>2018-10-04T09:51:27Z</time>
      </trkpt>
      <trkpt lat="44.46926" lon="5.61081">
        <ele>1639.67</ele>
        <time>2018-10-04T09:51:32Z</time>
      </trkpt>
      <trkpt lat="44.46926" lon="5.6107">
        <ele>1641.59</ele>
        <time>2018-10-04T09:51:48Z</time>
      </trkpt>
      <trkpt lat="44.46923" lon="5.61059">
        <ele>1643.03</ele>
        <time>2018-10-04T09:52:00Z</time>
      </trkpt>
      <trkpt lat="44.46923" lon="5.61048">
        <ele>1644.95</ele>
        <time>2018-10-04T09:52:18Z</time>
      </trkpt>
      <trkpt lat="44.46924" lon="5.61044">
        <ele>1644.95</ele>
        <time>2018-10-04T09:52:23Z</time>
      </trkpt>
      <trkpt lat="44.46926" lon="5.61031">
        <ele>1646.4</ele>
        <time>2018-10-04T09:52:39Z</time>
      </trkpt>
      <trkpt lat="44.46925" lon="5.61018">
        <ele>1647.36</ele>
        <time>2018-10-04T09:52:55Z</time>
      </trkpt>
      <trkpt lat="44.4692" lon="5.61007">
        <ele>1648.8</ele>
        <time>2018-10-04T09:53:09Z</time>
      </trkpt>
      <trkpt lat="44.46916" lon="5.60998">
        <ele>1652.16</ele>
        <time>2018-10-04T09:53:22Z</time>
      </trkpt>
      <trkpt lat="44.46914" lon="5.60991">
        <ele>1653.6</ele>
        <time>2018-10-04T09:53:35Z</time>
      </trkpt>
      <trkpt lat="44.46912" lon="5.60979">
        <ele>1656.01</ele>
        <time>2018-10-04T09:53:51Z</time>
      </trkpt>
      <trkpt lat="44.46907" lon="5.60968">
        <ele>1658.89</ele>
        <time>2018-10-04T09:54:05Z</time>
      </trkpt>
      <trkpt lat="44.46903" lon="5.60963">
        <ele>1660.81</ele>
        <time>2018-10-04T09:54:18Z</time>
      </trkpt>
      <trkpt lat="44.46896" lon="5.60962">
        <ele>1662.74</ele>
        <time>2018-10-04T09:54:31Z</time>
      </trkpt>
      <trkpt lat="44.4689" lon="5.60965">
        <ele>1665.14</ele>
        <time>2018-10-04T09:54:44Z</time>
      </trkpt>
      <trkpt lat="44.46883" lon="5.60965">
        <ele>1668.51</ele>
        <time>2018-10-04T09:54:56Z</time>
      </trkpt>
      <trkpt lat="44.46876" lon="5.60959">
        <ele>1671.87</ele>
        <time>2018-10-04T09:55:10Z</time>
      </trkpt>
      <trkpt lat="44.46875" lon="5.60959">
        <ele>1671.39</ele>
        <time>2018-10-04T09:55:11Z</time>
      </trkpt>
      <trkpt lat="44.46866" lon="5.6095">
        <ele>1671.87</ele>
        <time>2018-10-04T09:55:26Z</time>
      </trkpt>
      <trkpt lat="44.46863" lon="5.60947">
        <ele>1672.83</ele>
        <time>2018-10-04T09:55:31Z</time>
      </trkpt>
      <trkpt lat="44.4686" lon="5.60932">
        <ele>1674.27</ele>
        <time>2018-10-04T09:55:47Z</time>
      </trkpt>
      <trkpt lat="44.46859" lon="5.60929">
        <ele>1673.79</ele>
        <time>2018-10-04T09:55:49Z</time>
      </trkpt>
      <trkpt lat="44.46857" lon="5.60914">
        <ele>1676.68</ele>
        <time>2018-10-04T09:56:04Z</time>
      </trkpt>
      <trkpt lat="44.46853" lon="5.60902">
        <ele>1679.08</ele>
        <time>2018-10-04T09:56:19Z</time>
      </trkpt>
      <trkpt lat="44.46852" lon="5.60889">
        <ele>1680.52</ele>
        <time>2018-10-04T09:56:34Z</time>
      </trkpt>
      <trkpt lat="44.4685" lon="5.60876">
        <ele>1682.44</ele>
        <time>2018-10-04T09:56:49Z</time>
      </trkpt>
      <trkpt lat="44.46847" lon="5.60864">
        <ele>1684.37</ele>
        <time>2018-10-04T09:57:06Z</time>
      </trkpt>
      <trkpt lat="44.46842" lon="5.60849">
        <ele>1686.77</ele>
        <time>2018-10-04T09:57:24Z</time>
      </trkpt>
      <trkpt lat="44.46837" lon="5.60834">
        <ele>1689.65</ele>
        <time>2018-10-04T09:57:42Z</time>
      </trkpt>
      <trkpt lat="44.46831" lon="5.6082">
        <ele>1692.06</ele>
        <time>2018-10-04T09:58:00Z</time>
      </trkpt>
      <trkpt lat="44.46828" lon="5.60807">
        <ele>1694.46</ele>
        <time>2018-10-04T09:58:13Z</time>
      </trkpt>
      <trkpt lat="44.46827" lon="5.60794">
        <ele>1695.9</ele>
        <time>2018-10-04T09:58:26Z</time>
      </trkpt>
      <trkpt lat="44.46827" lon="5.60781">
        <ele>1698.31</ele>
        <time>2018-10-04T09:58:41Z</time>
      </trkpt>
      <trkpt lat="44.46825" lon="5.60766">
        <ele>1701.19</ele>
        <time>2018-10-04T09:58:57Z</time>
      </trkpt>
      <trkpt lat="44.46824" lon="5.6075">
        <ele>1703.11</ele>
        <time>2018-10-04T09:59:12Z</time>
      </trkpt>
      <trkpt lat="44.46823" lon="5.60736">
        <ele>1705.04</ele>
        <time>2018-10-04T09:59:28Z</time>
      </trkpt>
      <trkpt lat="44.46822" lon="5.60722">
        <ele>1706.96</ele>
        <time>2018-10-04T09:59:45Z</time>
      </trkpt>
      <trkpt lat="44.46821" lon="5.60711">
        <ele>1708.88</ele>
        <time>2018-10-04T10:00:00Z</time>
      </trkpt>
      <trkpt lat="44.46818" lon="5.60697">
        <ele>1711.28</ele>
        <time>2018-10-04T10:00:16Z</time>
      </trkpt>
      <trkpt lat="44.46815" lon="5.60684">
        <ele>1714.17</ele>
        <time>2018-10-04T10:00:30Z</time>
      </trkpt>
      <trkpt lat="44.46815" lon="5.60672">
        <ele>1716.57</ele>
        <time>2018-10-04T10:00:45Z</time>
      </trkpt>
      <trkpt lat="44.46813" lon="5.60664">
        <ele>1718.01</ele>
        <time>2018-10-04T10:00:59Z</time>
      </trkpt>
      <trkpt lat="44.46809" lon="5.6065">
        <ele>1719.94</ele>
        <time>2018-10-04T10:01:15Z</time>
      </trkpt>
      <trkpt lat="44.46805" lon="5.60637">
        <ele>1722.34</ele>
        <time>2018-10-04T10:01:31Z</time>
      </trkpt>
      <trkpt lat="44.46801" lon="5.60623">
        <ele>1724.26</ele>
        <time>2018-10-04T10:01:46Z</time>
      </trkpt>
      <trkpt lat="44.46796" lon="5.60611">
        <ele>1726.18</ele>
        <time>2018-10-04T10:02:00Z</time>
      </trkpt>
      <trkpt lat="44.4679" lon="5.60602">
        <ele>1727.63</ele>
        <time>2018-10-04T10:02:14Z</time>
      </trkpt>
      <trkpt lat="44.46788" lon="5.60601">
        <ele>1729.07</ele>
        <time>2018-10-04T10:02:40Z</time>
      </trkpt>
      <trkpt lat="44.46788" lon="5.606">
        <ele>1728.11</ele>
        <time>2018-10-04T10:02:48Z</time>
      </trkpt>
      <trkpt lat="44.46791" lon="5.60603">
        <ele>1728.59</ele>
        <time>2018-10-04T10:03:12Z</time>
      </trkpt>
      <trkpt lat="44.4679" lon="5.60606">
        <ele>1728.59</ele>
        <time>2018-10-04T10:03:32Z</time>
      </trkpt>
      <trkpt lat="44.46785" lon="5.60606">
        <ele>1728.59</ele>
        <time>2018-10-04T10:03:47Z</time>
      </trkpt>
      <trkpt lat="44.46787" lon="5.60605">
        <ele>1728.11</ele>
        <time>2018-10-04T10:04:14Z</time>
      </trkpt>
      <trkpt lat="44.46786" lon="5.60603">
        <ele>1728.59</ele>
        <time>2018-10-04T10:04:42Z</time>
      </trkpt>
      <trkpt lat="44.46785" lon="5.60604">
        <ele>1728.59</ele>
        <time>2018-10-04T10:05:13Z</time>
      </trkpt>
      <trkpt lat="44.46785" lon="5.60604">
        <ele>1729.07</ele>
        <time>2018-10-04T10:05:30Z</time>
      </trkpt>
      <trkpt lat="44.46785" lon="5.60603">
        <ele>1728.59</ele>
        <time>2018-10-04T10:06:13Z</time>
      </trkpt>
      <trkpt lat="44.46786" lon="5.60602">
        <ele>1730.51</ele>
        <time>2018-10-04T10:06:23Z</time>
      </trkpt>
      <trkpt lat="44.46787" lon="5.60599">
        <ele>1728.11</ele>
        <time>2018-10-04T10:06:27Z</time>
      </trkpt>
      <trkpt lat="44.46788" lon="5.60591">
        <ele>1725.22</ele>
        <time>2018-10-04T10:06:38Z</time>
      </trkpt>
      <trkpt lat="44.46788" lon="5.60586">
        <ele>1723.3</ele>
        <time>2018-10-04T10:06:52Z</time>
      </trkpt>
      <trkpt lat="44.46785" lon="5.60581">
        <ele>1721.38</ele>
        <time>2018-10-04T10:07:05Z</time>
      </trkpt>
      <trkpt lat="44.46779" lon="5.60578">
        <ele>1719.46</ele>
        <time>2018-10-04T10:07:20Z</time>
      </trkpt>
      <trkpt lat="44.46772" lon="5.60575">
        <ele>1716.09</ele>
        <time>2018-10-04T10:07:35Z</time>
      </trkpt>
      <trkpt lat="44.46765" lon="5.60573">
        <ele>1714.65</ele>
        <time>2018-10-04T10:07:50Z</time>
      </trkpt>
      <trkpt lat="44.4676" lon="5.60572">
        <ele>1713.21</ele>
        <time>2018-10-04T10:08:03Z</time>
      </trkpt>
      <trkpt lat="44.46754" lon="5.60573">
        <ele>1711.76</ele>
        <time>2018-10-04T10:08:19Z</time>
      </trkpt>
      <trkpt lat="44.46747" lon="5.60571">
        <ele>1709.84</ele>
        <time>2018-10-04T10:08:37Z</time>
      </trkpt>
      <trkpt lat="44.46741" lon="5.60569">
        <ele>1707.92</ele>
        <time>2018-10-04T10:08:48Z</time>
      </trkpt>
      <trkpt lat="44.46744" lon="5.60569">
        <ele>1707.44</ele>
        <time>2018-10-04T10:09:02Z</time>
      </trkpt>
      <trkpt lat="44.46734" lon="5.60567">
        <ele>1705.04</ele>
        <time>2018-10-04T10:09:19Z</time>
      </trkpt>
      <trkpt lat="44.46727" lon="5.60565">
        <ele>1702.15</ele>
        <time>2018-10-04T10:09:29Z</time>
      </trkpt>
      <trkpt lat="44.46726" lon="5.60565">
        <ele>1701.67</ele>
        <time>2018-10-04T10:09:30Z</time>
      </trkpt>
      <trkpt lat="44.46718" lon="5.6056">
        <ele>1699.27</ele>
        <time>2018-10-04T10:09:41Z</time>
      </trkpt>
      <trkpt lat="44.46709" lon="5.60553">
        <ele>1695.9</ele>
        <time>2018-10-04T10:09:54Z</time>
      </trkpt>
      <trkpt lat="44.46701" lon="5.60545">
        <ele>1692.54</ele>
        <time>2018-10-04T10:10:08Z</time>
      </trkpt>
      <trkpt lat="44.46702" lon="5.60544">
        <ele>1692.54</ele>
        <time>2018-10-04T10:10:26Z</time>
      </trkpt>
      <trkpt lat="44.46695" lon="5.60538">
        <ele>1692.06</ele>
        <time>2018-10-04T10:10:39Z</time>
      </trkpt>
      <trkpt lat="44.46682" lon="5.60525">
        <ele>1689.65</ele>
        <time>2018-10-04T10:10:55Z</time>
      </trkpt>
      <trkpt lat="44.46667" lon="5.60511">
        <ele>1690.62</ele>
        <time>2018-10-04T10:11:12Z</time>
      </trkpt>
      <trkpt lat="44.46656" lon="5.60503">
        <ele>1693.02</ele>
        <time>2018-10-04T10:11:27Z</time>
      </trkpt>
      <trkpt lat="44.46648" lon="5.60496">
        <ele>1695.9</ele>
        <time>2018-10-04T10:11:41Z</time>
      </trkpt>
      <trkpt lat="44.46641" lon="5.60492">
        <ele>1698.31</ele>
        <time>2018-10-04T10:11:57Z</time>
      </trkpt>
      <trkpt lat="44.46635" lon="5.60487">
        <ele>1699.75</ele>
        <time>2018-10-04T10:12:13Z</time>
      </trkpt>
      <trkpt lat="44.46631" lon="5.60483">
        <ele>1701.67</ele>
        <time>2018-10-04T10:12:27Z</time>
      </trkpt>
      <trkpt lat="44.46628" lon="5.6048">
        <ele>1703.11</ele>
        <time>2018-10-04T10:12:42Z</time>
      </trkpt>
      <trkpt lat="44.46625" lon="5.60476">
        <ele>1705.04</ele>
        <time>2018-10-04T10:12:58Z</time>
      </trkpt>
      <trkpt lat="44.46621" lon="5.60473">
        <ele>1706.48</ele>
        <time>2018-10-04T10:13:13Z</time>
      </trkpt>
      <trkpt lat="44.46619" lon="5.6047">
        <ele>1707.92</ele>
        <time>2018-10-04T10:13:27Z</time>
      </trkpt>
      <trkpt lat="44.46617" lon="5.60467">
        <ele>1709.36</ele>
        <time>2018-10-04T10:13:41Z</time>
      </trkpt>
      <trkpt lat="44.46612" lon="5.60467">
        <ele>1711.28</ele>
        <time>2018-10-04T10:13:54Z</time>
      </trkpt>
      <trkpt lat="44.46612" lon="5.60464">
        <ele>1711.76</ele>
        <time>2018-10-04T10:14:11Z</time>
      </trkpt>
      <trkpt lat="44.46612" lon="5.60464">
        <ele>1711.28</ele>
        <time>2018-10-04T10:14:38Z</time>
      </trkpt>
      <trkpt lat="44.46613" lon="5.60463">
        <ele>1711.76</ele>
        <time>2018-10-04T10:15:11Z</time>
      </trkpt>
      <trkpt lat="44.46608" lon="5.60458">
        <ele>1714.17</ele>
        <time>2018-10-04T10:15:25Z</time>
      </trkpt>
      <trkpt lat="44.46607" lon="5.60449">
        <ele>1716.09</ele>
        <time>2018-10-04T10:15:39Z</time>
      </trkpt>
      <trkpt lat="44.46602" lon="5.60449">
        <ele>1718.01</ele>
        <time>2018-10-04T10:15:50Z</time>
      </trkpt>
      <trkpt lat="44.46599" lon="5.60446">
        <ele>1719.46</ele>
        <time>2018-10-04T10:16:03Z</time>
      </trkpt>
      <trkpt lat="44.46597" lon="5.60447">
        <ele>1721.38</ele>
        <time>2018-10-04T10:16:17Z</time>
      </trkpt>
      <trkpt lat="44.46596" lon="5.60447">
        <ele>1720.9</ele>
        <time>2018-10-04T10:16:35Z</time>
      </trkpt>
      <trkpt lat="44.46596" lon="5.60446">
        <ele>1721.38</ele>
        <time>2018-10-04T10:16:54Z</time>
      </trkpt>
      <trkpt lat="44.46592" lon="5.60446">
        <ele>1722.82</ele>
        <time>2018-10-04T10:17:09Z</time>
      </trkpt>
      <trkpt lat="44.46589" lon="5.60446">
        <ele>1724.74</ele>
        <time>2018-10-04T10:17:22Z</time>
      </trkpt>
      <trkpt lat="44.46584" lon="5.60449">
        <ele>1727.15</ele>
        <time>2018-10-04T10:17:35Z</time>
      </trkpt>
      <trkpt lat="44.4658" lon="5.6045">
        <ele>1729.07</ele>
        <time>2018-10-04T10:17:49Z</time>
      </trkpt>
      <trkpt lat="44.46575" lon="5.60449">
        <ele>1730.99</ele>
        <time>2018-10-04T10:18:03Z</time>
      </trkpt>
      <trkpt lat="44.46571" lon="5.60449">
        <ele>1733.39</ele>
        <time>2018-10-04T10:18:17Z</time>
      </trkpt>
      <trkpt lat="44.46563" lon="5.6045">
        <ele>1736.28</ele>
        <time>2018-10-04T10:18:34Z</time>
      </trkpt>
      <trkpt lat="44.46559" lon="5.60448">
        <ele>1737.72</ele>
        <time>2018-10-04T10:18:49Z</time>
      </trkpt>
      <trkpt lat="44.46553" lon="5.60447">
        <ele>1738.2</ele>
        <time>2018-10-04T10:19:00Z</time>
      </trkpt>
      <trkpt lat="44.46549" lon="5.60445">
        <ele>1739.64</ele>
        <time>2018-10-04T10:19:19Z</time>
      </trkpt>
      <trkpt lat="44.46548" lon="5.60444">
        <ele>1740.12</ele>
        <time>2018-10-04T10:19:57Z</time>
      </trkpt>
      <trkpt lat="44.46544" lon="5.60442">
        <ele>1740.6</ele>
        <time>2018-10-04T10:20:16Z</time>
      </trkpt>
      <trkpt lat="44.46543" lon="5.60436">
        <ele>1742.53</ele>
        <time>2018-10-04T10:20:27Z</time>
      </trkpt>
      <trkpt lat="44.46545" lon="5.60427">
        <ele>1745.41</ele>
        <time>2018-10-04T10:20:43Z</time>
      </trkpt>
      <trkpt lat="44.46548" lon="5.60417">
        <ele>1747.81</ele>
        <time>2018-10-04T10:20:59Z</time>
      </trkpt>
      <trkpt lat="44.46549" lon="5.60409">
        <ele>1749.26</ele>
        <time>2018-10-04T10:21:11Z</time>
      </trkpt>
      <trkpt lat="44.46548" lon="5.60397">
        <ele>1751.18</ele>
        <time>2018-10-04T10:21:26Z</time>
      </trkpt>
      <trkpt lat="44.46549" lon="5.60389">
        <ele>1753.1</ele>
        <time>2018-10-04T10:21:39Z</time>
      </trkpt>
      <trkpt lat="44.4655" lon="5.60378">
        <ele>1755.5</ele>
        <time>2018-10-04T10:21:54Z</time>
      </trkpt>
      <trkpt lat="44.46551" lon="5.6037">
        <ele>1756.47</ele>
        <time>2018-10-04T10:22:06Z</time>
      </trkpt>
      <trkpt lat="44.46552" lon="5.60364">
        <ele>1757.43</ele>
        <time>2018-10-04T10:22:20Z</time>
      </trkpt>
      <trkpt lat="44.46554" lon="5.60355">
        <ele>1757.43</ele>
        <time>2018-10-04T10:22:32Z</time>
      </trkpt>
      <trkpt lat="44.46555" lon="5.60351">
        <ele>1758.87</ele>
        <time>2018-10-04T10:22:46Z</time>
      </trkpt>
      <trkpt lat="44.46554" lon="5.60353">
        <ele>1757.43</ele>
        <time>2018-10-04T10:22:55Z</time>
      </trkpt>
      <trkpt lat="44.46554" lon="5.60351">
        <ele>1756.95</ele>
        <time>2018-10-04T10:23:29Z</time>
      </trkpt>
      <trkpt lat="44.46555" lon="5.60352">
        <ele>1757.43</ele>
        <time>2018-10-04T10:23:31Z</time>
      </trkpt>
      <trkpt lat="44.46554" lon="5.60351">
        <ele>1758.39</ele>
        <time>2018-10-04T10:23:42Z</time>
      </trkpt>
      <trkpt lat="44.46555" lon="5.60346">
        <ele>1758.87</ele>
        <time>2018-10-04T10:23:56Z</time>
      </trkpt>
      <trkpt lat="44.46556" lon="5.60337">
        <ele>1758.39</ele>
        <time>2018-10-04T10:24:04Z</time>
      </trkpt>
      <trkpt lat="44.46556" lon="5.60319">
        <ele>1755.02</ele>
        <time>2018-10-04T10:24:18Z</time>
      </trkpt>
      <trkpt lat="44.46557" lon="5.60309">
        <ele>1755.02</ele>
        <time>2018-10-04T10:24:26Z</time>
      </trkpt>
      <trkpt lat="44.46557" lon="5.60306">
        <ele>1756.95</ele>
        <time>2018-10-04T10:24:29Z</time>
      </trkpt>
      <trkpt lat="44.46559" lon="5.60287">
        <ele>1756.47</ele>
        <time>2018-10-04T10:24:44Z</time>
      </trkpt>
      <trkpt lat="44.46561" lon="5.60265">
        <ele>1755.02</ele>
        <time>2018-10-04T10:25:00Z</time>
      </trkpt>
      <trkpt lat="44.46563" lon="5.60247">
        <ele>1754.06</ele>
        <time>2018-10-04T10:25:14Z</time>
      </trkpt>
      <trkpt lat="44.46565" lon="5.60231">
        <ele>1752.14</ele>
        <time>2018-10-04T10:25:27Z</time>
      </trkpt>
      <trkpt lat="44.46568" lon="5.60211">
        <ele>1751.66</ele>
        <time>2018-10-04T10:25:42Z</time>
      </trkpt>
      <trkpt lat="44.46571" lon="5.60189">
        <ele>1750.22</ele>
        <time>2018-10-04T10:25:58Z</time>
      </trkpt>
      <trkpt lat="44.46571" lon="5.60186">
        <ele>1750.7</ele>
        <time>2018-10-04T10:26:00Z</time>
      </trkpt>
      <trkpt lat="44.46575" lon="5.60163">
        <ele>1749.26</ele>
        <time>2018-10-04T10:26:17Z</time>
      </trkpt>
      <trkpt lat="44.46578" lon="5.60142">
        <ele>1748.78</ele>
        <time>2018-10-04T10:26:33Z</time>
      </trkpt>
      <trkpt lat="44.46579" lon="5.60138">
        <ele>1748.78</ele>
        <time>2018-10-04T10:26:36Z</time>
      </trkpt>
      <trkpt lat="44.46582" lon="5.60117">
        <ele>1747.81</ele>
        <time>2018-10-04T10:26:52Z</time>
      </trkpt>
      <trkpt lat="44.46586" lon="5.60094">
        <ele>1747.33</ele>
        <time>2018-10-04T10:27:09Z</time>
      </trkpt>
      <trkpt lat="44.46586" lon="5.60092">
        <ele>1746.85</ele>
        <time>2018-10-04T10:27:10Z</time>
      </trkpt>
      <trkpt lat="44.46589" lon="5.60069">
        <ele>1746.37</ele>
        <time>2018-10-04T10:27:27Z</time>
      </trkpt>
      <trkpt lat="44.46593" lon="5.60048">
        <ele>1744.45</ele>
        <time>2018-10-04T10:27:45Z</time>
      </trkpt>
      <trkpt lat="44.46596" lon="5.6003">
        <ele>1743.49</ele>
        <time>2018-10-04T10:28:02Z</time>
      </trkpt>
      <trkpt lat="44.46597" lon="5.60027">
        <ele>1743.01</ele>
        <time>2018-10-04T10:28:11Z</time>
      </trkpt>
      <trkpt lat="44.46602" lon="5.60012">
        <ele>1741.57</ele>
        <time>2018-10-04T10:28:24Z</time>
      </trkpt>
      <trkpt lat="44.46607" lon="5.59997">
        <ele>1741.08</ele>
        <time>2018-10-04T10:28:37Z</time>
      </trkpt>
      <trkpt lat="44.46612" lon="5.59983">
        <ele>1737.72</ele>
        <time>2018-10-04T10:28:49Z</time>
      </trkpt>
      <trkpt lat="44.46617" lon="5.59961">
        <ele>1735.8</ele>
        <time>2018-10-04T10:29:05Z</time>
      </trkpt>
      <trkpt lat="44.46621" lon="5.59937">
        <ele>1735.8</ele>
        <time>2018-10-04T10:29:22Z</time>
      </trkpt>
      <trkpt lat="44.46624" lon="5.59914">
        <ele>1736.28</ele>
        <time>2018-10-04T10:29:38Z</time>
      </trkpt>
      <trkpt lat="44.46625" lon="5.59912">
        <ele>1736.76</ele>
        <time>2018-10-04T10:29:39Z</time>
      </trkpt>
      <trkpt lat="44.46626" lon="5.5991">
        <ele>1736.76</ele>
        <time>2018-10-04T10:29:41Z</time>
      </trkpt>
      <trkpt lat="44.46625" lon="5.59907">
        <ele>1736.76</ele>
        <time>2018-10-04T10:29:43Z</time>
      </trkpt>
      <trkpt lat="44.46627" lon="5.59899">
        <ele>1737.72</ele>
        <time>2018-10-04T10:29:49Z</time>
      </trkpt>
      <trkpt lat="44.46628" lon="5.59877">
        <ele>1738.2</ele>
        <time>2018-10-04T10:30:05Z</time>
      </trkpt>
      <trkpt lat="44.46632" lon="5.59856">
        <ele>1737.72</ele>
        <time>2018-10-04T10:30:21Z</time>
      </trkpt>
      <trkpt lat="44.46636" lon="5.59835">
        <ele>1737.72</ele>
        <time>2018-10-04T10:30:36Z</time>
      </trkpt>
      <trkpt lat="44.46638" lon="5.59816">
        <ele>1737.72</ele>
        <time>2018-10-04T10:30:51Z</time>
      </trkpt>
      <trkpt lat="44.46643" lon="5.59796">
        <ele>1739.64</ele>
        <time>2018-10-04T10:31:06Z</time>
      </trkpt>
      <trkpt lat="44.46645" lon="5.59775">
        <ele>1738.2</ele>
        <time>2018-10-04T10:31:22Z</time>
      </trkpt>
      <trkpt lat="44.46646" lon="5.5976">
        <ele>1738.68</ele>
        <time>2018-10-04T10:31:33Z</time>
      </trkpt>
      <trkpt lat="44.46646" lon="5.59758">
        <ele>1738.68</ele>
        <time>2018-10-04T10:31:35Z</time>
      </trkpt>
      <trkpt lat="44.46652" lon="5.59733">
        <ele>1739.16</ele>
        <time>2018-10-04T10:31:54Z</time>
      </trkpt>
      <trkpt lat="44.46656" lon="5.59711">
        <ele>1737.24</ele>
        <time>2018-10-04T10:32:12Z</time>
      </trkpt>
      <trkpt lat="44.46659" lon="5.5969">
        <ele>1735.32</ele>
        <time>2018-10-04T10:32:27Z</time>
      </trkpt>
      <trkpt lat="44.46659" lon="5.59685">
        <ele>1734.36</ele>
        <time>2018-10-04T10:32:31Z</time>
      </trkpt>
      <trkpt lat="44.46655" lon="5.59659">
        <ele>1731.95</ele>
        <time>2018-10-04T10:32:50Z</time>
      </trkpt>
      <trkpt lat="44.46654" lon="5.59634">
        <ele>1730.03</ele>
        <time>2018-10-04T10:33:07Z</time>
      </trkpt>
      <trkpt lat="44.46656" lon="5.59605">
        <ele>1729.55</ele>
        <time>2018-10-04T10:33:27Z</time>
      </trkpt>
      <trkpt lat="44.46656" lon="5.59585">
        <ele>1730.03</ele>
        <time>2018-10-04T10:33:42Z</time>
      </trkpt>
      <trkpt lat="44.46656" lon="5.59566">
        <ele>1729.07</ele>
        <time>2018-10-04T10:33:57Z</time>
      </trkpt>
      <trkpt lat="44.46658" lon="5.59545">
        <ele>1729.07</ele>
        <time>2018-10-04T10:34:13Z</time>
      </trkpt>
      <trkpt lat="44.46658" lon="5.59539">
        <ele>1729.55</ele>
        <time>2018-10-04T10:34:26Z</time>
      </trkpt>
      <trkpt lat="44.46659" lon="5.59526">
        <ele>1730.99</ele>
        <time>2018-10-04T10:34:40Z</time>
      </trkpt>
      <trkpt lat="44.46661" lon="5.59514">
        <ele>1730.03</ele>
        <time>2018-10-04T10:34:55Z</time>
      </trkpt>
      <trkpt lat="44.46662" lon="5.59517">
        <ele>1730.51</ele>
        <time>2018-10-04T10:35:11Z</time>
      </trkpt>
      <trkpt lat="44.46661" lon="5.59516">
        <ele>1730.99</ele>
        <time>2018-10-04T10:35:27Z</time>
      </trkpt>
      <trkpt lat="44.4666" lon="5.59514">
        <ele>1730.51</ele>
        <time>2018-10-04T10:35:40Z</time>
      </trkpt>
      <trkpt lat="44.46659" lon="5.59513">
        <ele>1730.51</ele>
        <time>2018-10-04T10:36:04Z</time>
      </trkpt>
      <trkpt lat="44.4666" lon="5.59512">
        <ele>1729.55</ele>
        <time>2018-10-04T10:36:21Z</time>
      </trkpt>
      <trkpt lat="44.4666" lon="5.59514">
        <ele>1730.99</ele>
        <time>2018-10-04T10:36:27Z</time>
      </trkpt>
      <trkpt lat="44.46661" lon="5.59515">
        <ele>1730.99</ele>
        <time>2018-10-04T10:36:49Z</time>
      </trkpt>
      <trkpt lat="44.46661" lon="5.59514">
        <ele>1730.03</ele>
        <time>2018-10-04T10:37:16Z</time>
      </trkpt>
      <trkpt lat="44.46661" lon="5.59515">
        <ele>1730.03</ele>
        <time>2018-10-04T10:37:42Z</time>
      </trkpt>
      <trkpt lat="44.4666" lon="5.59515">
        <ele>1730.51</ele>
        <time>2018-10-04T10:38:06Z</time>
      </trkpt>
      <trkpt lat="44.46661" lon="5.59516">
        <ele>1730.51</ele>
        <time>2018-10-04T10:38:32Z</time>
      </trkpt>
      <trkpt lat="44.46661" lon="5.59515">
        <ele>1730.99</ele>
        <time>2018-10-04T10:39:07Z</time>
      </trkpt>
      <trkpt lat="44.46661" lon="5.59515">
        <ele>1731.47</ele>
        <time>2018-10-04T10:39:32Z</time>
      </trkpt>
      <trkpt lat="44.46662" lon="5.59515">
        <ele>1730.51</ele>
        <time>2018-10-04T10:39:58Z</time>
      </trkpt>
      <trkpt lat="44.46662" lon="5.59517">
        <ele>1730.51</ele>
        <time>2018-10-04T10:40:23Z</time>
      </trkpt>
      <trkpt lat="44.46663" lon="5.59519">
        <ele>1730.51</ele>
        <time>2018-10-04T10:40:46Z</time>
      </trkpt>
      <trkpt lat="44.46659" lon="5.59529">
        <ele>1730.99</ele>
        <time>2018-10-04T10:40:59Z</time>
      </trkpt>
      <trkpt lat="44.46659" lon="5.59529">
        <ele>1730.99</ele>
        <time>2018-10-04T10:41:20Z</time>
      </trkpt>
      <trkpt lat="44.4666" lon="5.59529">
        <ele>1730.99</ele>
        <time>2018-10-04T10:41:55Z</time>
      </trkpt>
      <trkpt lat="44.4666" lon="5.59538">
        <ele>1730.03</ele>
        <time>2018-10-04T10:42:09Z</time>
      </trkpt>
      <trkpt lat="44.46664" lon="5.59548">
        <ele>1729.07</ele>
        <time>2018-10-04T10:42:22Z</time>
      </trkpt>
      <trkpt lat="44.4667" lon="5.59548">
        <ele>1729.07</ele>
        <time>2018-10-04T10:42:35Z</time>
      </trkpt>
      <trkpt lat="44.4667" lon="5.59552">
        <ele>1730.51</ele>
        <time>2018-10-04T10:42:46Z</time>
      </trkpt>
      <trkpt lat="44.46669" lon="5.59551">
        <ele>1727.15</ele>
        <time>2018-10-04T10:42:59Z</time>
      </trkpt>
      <trkpt lat="44.46669" lon="5.59551">
        <ele>1730.99</ele>
        <time>2018-10-04T10:43:04Z</time>
      </trkpt>
      <trkpt lat="44.46669" lon="5.59552">
        <ele>1729.07</ele>
        <time>2018-10-04T10:43:31Z</time>
      </trkpt>
      <trkpt lat="44.4667" lon="5.5955">
        <ele>1729.55</ele>
        <time>2018-10-04T10:43:56Z</time>
      </trkpt>
      <trkpt lat="44.46671" lon="5.5955">
        <ele>1729.55</ele>
        <time>2018-10-04T10:44:37Z</time>
      </trkpt>
      <trkpt lat="44.4667" lon="5.5955">
        <ele>1729.55</ele>
        <time>2018-10-04T10:45:16Z</time>
      </trkpt>
      <trkpt lat="44.4667" lon="5.5955">
        <ele>1729.55</ele>
        <time>2018-10-04T10:46:01Z</time>
      </trkpt>
      <trkpt lat="44.4667" lon="5.59549">
        <ele>1729.55</ele>
        <time>2018-10-04T10:46:43Z</time>
      </trkpt>
      <trkpt lat="44.4667" lon="5.5955">
        <ele>1729.07</ele>
        <time>2018-10-04T10:47:28Z</time>
      </trkpt>
      <trkpt lat="44.46669" lon="5.59549">
        <ele>1729.07</ele>
        <time>2018-10-04T10:48:15Z</time>
      </trkpt>
      <trkpt lat="44.4667" lon="5.5955">
        <ele>1729.07</ele>
        <time>2018-10-04T10:49:00Z</time>
      </trkpt>
      <trkpt lat="44.4667" lon="5.59549">
        <ele>1729.55</ele>
        <time>2018-10-04T10:49:51Z</time>
      </trkpt>
      <trkpt lat="44.4667" lon="5.5955">
        <ele>1729.55</ele>
        <time>2018-10-04T10:50:36Z</time>
      </trkpt>
      <trkpt lat="44.46669" lon="5.59549">
        <ele>1729.07</ele>
        <time>2018-10-04T10:51:26Z</time>
      </trkpt>
      <trkpt lat="44.4667" lon="5.5955">
        <ele>1729.07</ele>
        <time>2018-10-04T10:52:01Z</time>
      </trkpt>
      <trkpt lat="44.4667" lon="5.5955">
        <ele>1729.07</ele>
        <time>2018-10-04T10:52:42Z</time>
      </trkpt>
      <trkpt lat="44.4667" lon="5.5955">
        <ele>1729.07</ele>
        <time>2018-10-04T10:53:21Z</time>
      </trkpt>
      <trkpt lat="44.4667" lon="5.59549">
        <ele>1729.07</ele>
        <time>2018-10-04T10:54:03Z</time>
      </trkpt>
      <trkpt lat="44.4667" lon="5.59549">
        <ele>1729.07</ele>
        <time>2018-10-04T10:54:45Z</time>
      </trkpt>
      <trkpt lat="44.4667" lon="5.59549">
        <ele>1729.07</ele>
        <time>2018-10-04T10:55:22Z</time>
      </trkpt>
      <trkpt lat="44.4667" lon="5.5955">
        <ele>1728.59</ele>
        <time>2018-10-04T10:56:03Z</time>
      </trkpt>
      <trkpt lat="44.4667" lon="5.59549">
        <ele>1729.07</ele>
        <time>2018-10-04T10:56:38Z</time>
      </trkpt>
      <trkpt lat="44.4667" lon="5.59549">
        <ele>1728.59</ele>
        <time>2018-10-04T10:57:21Z</time>
      </trkpt>
      <trkpt lat="44.4667" lon="5.5955">
        <ele>1728.59</ele>
        <time>2018-10-04T10:58:09Z</time>
      </trkpt>
      <trkpt lat="44.4667" lon="5.59549">
        <ele>1729.07</ele>
        <time>2018-10-04T10:58:45Z</time>
      </trkpt>
      <trkpt lat="44.4667" lon="5.59549">
        <ele>1728.59</ele>
        <time>2018-10-04T10:59:18Z</time>
      </trkpt>
      <trkpt lat="44.46669" lon="5.59549">
        <ele>1729.07</ele>
        <time>2018-10-04T10:59:54Z</time>
      </trkpt>
      <trkpt lat="44.4667" lon="5.59549">
        <ele>1729.07</ele>
        <time>2018-10-04T11:00:38Z</time>
      </trkpt>
      <trkpt lat="44.4667" lon="5.59549">
        <ele>1728.59</ele>
        <time>2018-10-04T11:01:26Z</time>
      </trkpt>
      <trkpt lat="44.4667" lon="5.5955">
        <ele>1729.07</ele>
        <time>2018-10-04T11:02:03Z</time>
      </trkpt>
      <trkpt lat="44.4667" lon="5.59549">
        <ele>1729.07</ele>
        <time>2018-10-04T11:02:46Z</time>
      </trkpt>
      <trkpt lat="44.4667" lon="5.59549">
        <ele>1729.07</ele>
        <time>2018-10-04T11:03:14Z</time>
      </trkpt>
      <trkpt lat="44.4667" lon="5.59549">
        <ele>1729.55</ele>
        <time>2018-10-04T11:03:52Z</time>
      </trkpt>
      <trkpt lat="44.4667" lon="5.59549">
        <ele>1730.03</ele>
        <time>2018-10-04T11:04:25Z</time>
      </trkpt>
      <trkpt lat="44.46669" lon="5.59549">
        <ele>1730.03</ele>
        <time>2018-10-04T11:05:02Z</time>
      </trkpt>
      <trkpt lat="44.4667" lon="5.59549">
        <ele>1729.07</ele>
        <time>2018-10-04T11:05:42Z</time>
      </trkpt>
      <trkpt lat="44.4667" lon="5.5955">
        <ele>1729.07</ele>
        <time>2018-10-04T11:06:19Z</time>
      </trkpt>
      <trkpt lat="44.4667" lon="5.59549">
        <ele>1729.55</ele>
        <time>2018-10-04T11:06:50Z</time>
      </trkpt>
      <trkpt lat="44.4667" lon="5.59549">
        <ele>1729.55</ele>
        <time>2018-10-04T11:07:25Z</time>
      </trkpt>
      <trkpt lat="44.4667" lon="5.5955">
        <ele>1729.07</ele>
        <time>2018-10-04T11:07:57Z</time>
      </trkpt>
      <trkpt lat="44.4667" lon="5.59549">
        <ele>1729.55</ele>
        <time>2018-10-04T11:08:38Z</time>
      </trkpt>
      <trkpt lat="44.4667" lon="5.59549">
        <ele>1729.55</ele>
        <time>2018-10-04T11:09:15Z</time>
      </trkpt>
      <trkpt lat="44.4667" lon="5.59549">
        <ele>1729.55</ele>
        <time>2018-10-04T11:09:59Z</time>
      </trkpt>
      <trkpt lat="44.4667" lon="5.59549">
        <ele>1729.07</ele>
        <time>2018-10-04T11:10:41Z</time>
      </trkpt>
      <trkpt lat="44.4667" lon="5.5955">
        <ele>1729.07</ele>
        <time>2018-10-04T11:11:30Z</time>
      </trkpt>
      <trkpt lat="44.4667" lon="5.59549">
        <ele>1729.55</ele>
        <time>2018-10-04T11:12:10Z</time>
      </trkpt>
      <trkpt lat="44.46669" lon="5.59549">
        <ele>1729.07</ele>
        <time>2018-10-04T11:12:55Z</time>
      </trkpt>
      <trkpt lat="44.4667" lon="5.59549">
        <ele>1728.59</ele>
        <time>2018-10-04T11:13:38Z</time>
      </trkpt>
      <trkpt lat="44.4667" lon="5.59549">
        <ele>1728.59</ele>
        <time>2018-10-04T11:14:24Z</time>
      </trkpt>
      <trkpt lat="44.4667" lon="5.59549">
        <ele>1728.59</ele>
        <time>2018-10-04T11:14:51Z</time>
      </trkpt>
      <trkpt lat="44.4667" lon="5.59549">
        <ele>1728.59</ele>
        <time>2018-10-04T11:15:32Z</time>
      </trkpt>
      <trkpt lat="44.4667" lon="5.5955">
        <ele>1728.59</ele>
        <time>2018-10-04T11:16:09Z</time>
      </trkpt>
      <trkpt lat="44.4667" lon="5.59549">
        <ele>1728.59</ele>
        <time>2018-10-04T11:16:41Z</time>
      </trkpt>
      <trkpt lat="44.46669" lon="5.5955">
        <ele>1728.59</ele>
        <time>2018-10-04T11:17:27Z</time>
      </trkpt>
      <trkpt lat="44.4667" lon="5.5955">
        <ele>1729.07</ele>
        <time>2018-10-04T11:18:05Z</time>
      </trkpt>
      <trkpt lat="44.4667" lon="5.5955">
        <ele>1729.07</ele>
        <time>2018-10-04T11:18:42Z</time>
      </trkpt>
      <trkpt lat="44.46669" lon="5.59551">
        <ele>1729.07</ele>
        <time>2018-10-04T11:19:04Z</time>
      </trkpt>
      <trkpt lat="44.46668" lon="5.59551">
        <ele>1729.07</ele>
        <time>2018-10-04T11:19:43Z</time>
      </trkpt>
      <trkpt lat="44.46669" lon="5.59551">
        <ele>1729.07</ele>
        <time>2018-10-04T11:20:29Z</time>
      </trkpt>
      <trkpt lat="44.46669" lon="5.59552">
        <ele>1729.07</ele>
        <time>2018-10-04T11:21:03Z</time>
      </trkpt>
      <trkpt lat="44.46669" lon="5.59551">
        <ele>1729.55</ele>
        <time>2018-10-04T11:21:34Z</time>
      </trkpt>
      <trkpt lat="44.46669" lon="5.59552">
        <ele>1729.55</ele>
        <time>2018-10-04T11:22:06Z</time>
      </trkpt>
      <trkpt lat="44.46669" lon="5.59551">
        <ele>1729.07</ele>
        <time>2018-10-04T11:22:38Z</time>
      </trkpt>
      <trkpt lat="44.4667" lon="5.59551">
        <ele>1729.07</ele>
        <time>2018-10-04T11:23:09Z</time>
      </trkpt>
      <trkpt lat="44.4667" lon="5.59551">
        <ele>1729.55</ele>
        <time>2018-10-04T11:23:45Z</time>
      </trkpt>
      <trkpt lat="44.46671" lon="5.5955">
        <ele>1730.03</ele>
        <time>2018-10-04T11:24:23Z</time>
      </trkpt>
      <trkpt lat="44.46671" lon="5.5955">
        <ele>1730.03</ele>
        <time>2018-10-04T11:24:56Z</time>
      </trkpt>
      <trkpt lat="44.46671" lon="5.5955">
        <ele>1730.51</ele>
        <time>2018-10-04T11:25:34Z</time>
      </trkpt>
      <trkpt lat="44.46671" lon="5.5955">
        <ele>1730.51</ele>
        <time>2018-10-04T11:26:07Z</time>
      </trkpt>
      <trkpt lat="44.46671" lon="5.5955">
        <ele>1730.51</ele>
        <time>2018-10-04T11:26:35Z</time>
      </trkpt>
      <trkpt lat="44.46671" lon="5.5955">
        <ele>1730.51</ele>
        <time>2018-10-04T11:26:59Z</time>
      </trkpt>
      <trkpt lat="44.46671" lon="5.5955">
        <ele>1730.51</ele>
        <time>2018-10-04T11:27:34Z</time>
      </trkpt>
      <trkpt lat="44.4667" lon="5.59551">
        <ele>1730.99</ele>
        <time>2018-10-04T11:28:16Z</time>
      </trkpt>
      <trkpt lat="44.4667" lon="5.5955">
        <ele>1730.51</ele>
        <time>2018-10-04T11:28:59Z</time>
      </trkpt>
      <trkpt lat="44.4667" lon="5.5955">
        <ele>1730.99</ele>
        <time>2018-10-04T11:29:34Z</time>
      </trkpt>
      <trkpt lat="44.46671" lon="5.5955">
        <ele>1730.99</ele>
        <time>2018-10-04T11:30:10Z</time>
      </trkpt>
      <trkpt lat="44.4667" lon="5.5955">
        <ele>1731.47</ele>
        <time>2018-10-04T11:30:46Z</time>
      </trkpt>
      <trkpt lat="44.4667" lon="5.59551">
        <ele>1731.47</ele>
        <time>2018-10-04T11:31:13Z</time>
      </trkpt>
      <trkpt lat="44.4667" lon="5.59551">
        <ele>1730.99</ele>
        <time>2018-10-04T11:31:39Z</time>
      </trkpt>
      <trkpt lat="44.4667" lon="5.5955">
        <ele>1731.47</ele>
        <time>2018-10-04T11:32:08Z</time>
      </trkpt>
      <trkpt lat="44.4667" lon="5.5955">
        <ele>1731.95</ele>
        <time>2018-10-04T11:32:38Z</time>
      </trkpt>
      <trkpt lat="44.46671" lon="5.5955">
        <ele>1731.47</ele>
        <time>2018-10-04T11:33:13Z</time>
      </trkpt>
      <trkpt lat="44.4667" lon="5.59551">
        <ele>1731.47</ele>
        <time>2018-10-04T11:33:38Z</time>
      </trkpt>
      <trkpt lat="44.4667" lon="5.5955">
        <ele>1731.47</ele>
        <time>2018-10-04T11:34:03Z</time>
      </trkpt>
      <trkpt lat="44.46671" lon="5.5955">
        <ele>1731.47</ele>
        <time>2018-10-04T11:34:37Z</time>
      </trkpt>
      <trkpt lat="44.46671" lon="5.5955">
        <ele>1732.43</ele>
        <time>2018-10-04T11:35:05Z</time>
      </trkpt>
      <trkpt lat="44.46671" lon="5.59551">
        <ele>1731.47</ele>
        <time>2018-10-04T11:35:36Z</time>
      </trkpt>
      <trkpt lat="44.46671" lon="5.59551">
        <ele>1731.47</ele>
        <time>2018-10-04T11:36:04Z</time>
      </trkpt>
      <trkpt lat="44.46669" lon="5.59551">
        <ele>1731.47</ele>
        <time>2018-10-04T11:36:35Z</time>
      </trkpt>
      <trkpt lat="44.4667" lon="5.59551">
        <ele>1731.47</ele>
        <time>2018-10-04T11:37:08Z</time>
      </trkpt>
      <trkpt lat="44.4667" lon="5.59551">
        <ele>1731.47</ele>
        <time>2018-10-04T11:37:38Z</time>
      </trkpt>
      <trkpt lat="44.4667" lon="5.59552">
        <ele>1731.47</ele>
        <time>2018-10-04T11:38:11Z</time>
      </trkpt>
      <trkpt lat="44.46669" lon="5.59551">
        <ele>1731.95</ele>
        <time>2018-10-04T11:38:51Z</time>
      </trkpt>
      <trkpt lat="44.4667" lon="5.59551">
        <ele>1731.47</ele>
        <time>2018-10-04T11:39:28Z</time>
      </trkpt>
      <trkpt lat="44.46671" lon="5.59551">
        <ele>1731.47</ele>
        <time>2018-10-04T11:39:57Z</time>
      </trkpt>
      <trkpt lat="44.4667" lon="5.59551">
        <ele>1731.47</ele>
        <time>2018-10-04T11:40:20Z</time>
      </trkpt>
      <trkpt lat="44.4667" lon="5.59551">
        <ele>1731.47</ele>
        <time>2018-10-04T11:40:56Z</time>
      </trkpt>
      <trkpt lat="44.4667" lon="5.5955">
        <ele>1731.47</ele>
        <time>2018-10-04T11:41:30Z</time>
      </trkpt>
      <trkpt lat="44.4667" lon="5.5955">
        <ele>1731.47</ele>
        <time>2018-10-04T11:41:59Z</time>
      </trkpt>
      <trkpt lat="44.4667" lon="5.5955">
        <ele>1730.99</ele>
        <time>2018-10-04T11:42:35Z</time>
      </trkpt>
      <trkpt lat="44.4667" lon="5.5955">
        <ele>1731.47</ele>
        <time>2018-10-04T11:42:58Z</time>
      </trkpt>
      <trkpt lat="44.46669" lon="5.5955">
        <ele>1731.95</ele>
        <time>2018-10-04T11:43:13Z</time>
      </trkpt>
      <trkpt lat="44.4667" lon="5.5955">
        <ele>1731.95</ele>
        <time>2018-10-04T11:43:29Z</time>
      </trkpt>
      <trkpt lat="44.46667" lon="5.59551">
        <ele>1731.95</ele>
        <time>2018-10-04T11:43:54Z</time>
      </trkpt>
      <trkpt lat="44.46666" lon="5.5955">
        <ele>1731.95</ele>
        <time>2018-10-04T11:44:19Z</time>
      </trkpt>
      <trkpt lat="44.46667" lon="5.59549">
        <ele>1731.47</ele>
        <time>2018-10-04T11:44:38Z</time>
      </trkpt>
      <trkpt lat="44.46666" lon="5.59549">
        <ele>1732.43</ele>
        <time>2018-10-04T11:44:59Z</time>
      </trkpt>
      <trkpt lat="44.46666" lon="5.5955">
        <ele>1731.95</ele>
        <time>2018-10-04T11:45:22Z</time>
      </trkpt>
      <trkpt lat="44.46668" lon="5.59551">
        <ele>1731.95</ele>
        <time>2018-10-04T11:45:38Z</time>
      </trkpt>
      <trkpt lat="44.46672" lon="5.59556">
        <ele>1733.39</ele>
        <time>2018-10-04T11:45:53Z</time>
      </trkpt>
      <trkpt lat="44.46674" lon="5.59556">
        <ele>1733.39</ele>
        <time>2018-10-04T11:46:17Z</time>
      </trkpt>
      <trkpt lat="44.46669" lon="5.59561">
        <ele>1732.91</ele>
        <time>2018-10-04T11:46:37Z</time>
      </trkpt>
      <trkpt lat="44.46665" lon="5.59566">
        <ele>1732.91</ele>
        <time>2018-10-04T11:46:50Z</time>
      </trkpt>
      <trkpt lat="44.46663" lon="5.59576">
        <ele>1732.43</ele>
        <time>2018-10-04T11:47:04Z</time>
      </trkpt>
      <trkpt lat="44.4666" lon="5.59587">
        <ele>1732.43</ele>
        <time>2018-10-04T11:47:17Z</time>
      </trkpt>
      <trkpt lat="44.46658" lon="5.59599">
        <ele>1731.95</ele>
        <time>2018-10-04T11:47:30Z</time>
      </trkpt>
      <trkpt lat="44.46657" lon="5.59599">
        <ele>1732.43</ele>
        <time>2018-10-04T11:47:44Z</time>
      </trkpt>
      <trkpt lat="44.46657" lon="5.596">
        <ele>1732.43</ele>
        <time>2018-10-04T11:48:00Z</time>
      </trkpt>
      <trkpt lat="44.46656" lon="5.59606">
        <ele>1731.95</ele>
        <time>2018-10-04T11:48:17Z</time>
      </trkpt>
      <trkpt lat="44.46655" lon="5.59615">
        <ele>1731.95</ele>
        <time>2018-10-04T11:48:25Z</time>
      </trkpt>
      <trkpt lat="44.46654" lon="5.59629">
        <ele>1732.43</ele>
        <time>2018-10-04T11:48:38Z</time>
      </trkpt>
      <trkpt lat="44.46655" lon="5.59647">
        <ele>1732.91</ele>
        <time>2018-10-04T11:48:53Z</time>
      </trkpt>
      <trkpt lat="44.46655" lon="5.59662">
        <ele>1734.36</ele>
        <time>2018-10-04T11:49:07Z</time>
      </trkpt>
      <trkpt lat="44.46655" lon="5.5967">
        <ele>1734.84</ele>
        <time>2018-10-04T11:49:15Z</time>
      </trkpt>
      <trkpt lat="44.46658" lon="5.59684">
        <ele>1736.28</ele>
        <time>2018-10-04T11:49:28Z</time>
      </trkpt>
      <trkpt lat="44.46659" lon="5.59697">
        <ele>1737.72</ele>
        <time>2018-10-04T11:49:40Z</time>
      </trkpt>
      <trkpt lat="44.46656" lon="5.5971">
        <ele>1739.16</ele>
        <time>2018-10-04T11:49:50Z</time>
      </trkpt>
      <trkpt lat="44.46653" lon="5.59726">
        <ele>1741.08</ele>
        <time>2018-10-04T11:50:06Z</time>
      </trkpt>
      <trkpt lat="44.46648" lon="5.59746">
        <ele>1741.57</ele>
        <time>2018-10-04T11:50:22Z</time>
      </trkpt>
      <trkpt lat="44.46643" lon="5.59767">
        <ele>1740.6</ele>
        <time>2018-10-04T11:50:38Z</time>
      </trkpt>
      <trkpt lat="44.46642" lon="5.59792">
        <ele>1741.08</ele>
        <time>2018-10-04T11:50:56Z</time>
      </trkpt>
      <trkpt lat="44.46638" lon="5.59812">
        <ele>1741.08</ele>
        <time>2018-10-04T11:51:12Z</time>
      </trkpt>
      <trkpt lat="44.46633" lon="5.59832">
        <ele>1739.64</ele>
        <time>2018-10-04T11:51:28Z</time>
      </trkpt>
      <trkpt lat="44.46629" lon="5.59857">
        <ele>1739.16</ele>
        <time>2018-10-04T11:51:47Z</time>
      </trkpt>
      <trkpt lat="44.46628" lon="5.59879">
        <ele>1739.16</ele>
        <time>2018-10-04T11:52:03Z</time>
      </trkpt>
      <trkpt lat="44.46626" lon="5.59898">
        <ele>1739.16</ele>
        <time>2018-10-04T11:52:18Z</time>
      </trkpt>
      <trkpt lat="44.46622" lon="5.59924">
        <ele>1738.2</ele>
        <time>2018-10-04T11:52:36Z</time>
      </trkpt>
      <trkpt lat="44.46618" lon="5.59948">
        <ele>1738.2</ele>
        <time>2018-10-04T11:52:53Z</time>
      </trkpt>
      <trkpt lat="44.46613" lon="5.5997">
        <ele>1738.2</ele>
        <time>2018-10-04T11:53:10Z</time>
      </trkpt>
      <trkpt lat="44.46606" lon="5.59993">
        <ele>1740.12</ele>
        <time>2018-10-04T11:53:28Z</time>
      </trkpt>
      <trkpt lat="44.466" lon="5.6001">
        <ele>1742.53</ele>
        <time>2018-10-04T11:53:44Z</time>
      </trkpt>
      <trkpt lat="44.46595" lon="5.60025">
        <ele>1744.45</ele>
        <time>2018-10-04T11:53:59Z</time>
      </trkpt>
      <trkpt lat="44.46592" lon="5.60039">
        <ele>1745.89</ele>
        <time>2018-10-04T11:54:11Z</time>
      </trkpt>
      <trkpt lat="44.46591" lon="5.60054">
        <ele>1747.33</ele>
        <time>2018-10-04T11:54:26Z</time>
      </trkpt>
      <trkpt lat="44.46591" lon="5.60062">
        <ele>1747.33</ele>
        <time>2018-10-04T11:54:39Z</time>
      </trkpt>
      <trkpt lat="44.46585" lon="5.60077">
        <ele>1748.78</ele>
        <time>2018-10-04T11:54:52Z</time>
      </trkpt>
      <trkpt lat="44.46583" lon="5.601">
        <ele>1749.74</ele>
        <time>2018-10-04T11:55:11Z</time>
      </trkpt>
      <trkpt lat="44.46581" lon="5.60117">
        <ele>1750.22</ele>
        <time>2018-10-04T11:55:25Z</time>
      </trkpt>
      <trkpt lat="44.46579" lon="5.60126">
        <ele>1750.22</ele>
        <time>2018-10-04T11:55:32Z</time>
      </trkpt>
      <trkpt lat="44.46579" lon="5.60129">
        <ele>1750.7</ele>
        <time>2018-10-04T11:55:34Z</time>
      </trkpt>
      <trkpt lat="44.46577" lon="5.6014">
        <ele>1751.18</ele>
        <time>2018-10-04T11:55:42Z</time>
      </trkpt>
      <trkpt lat="44.46573" lon="5.60165">
        <ele>1752.14</ele>
        <time>2018-10-04T11:56:01Z</time>
      </trkpt>
      <trkpt lat="44.4657" lon="5.60184">
        <ele>1753.58</ele>
        <time>2018-10-04T11:56:15Z</time>
      </trkpt>
      <trkpt lat="44.46567" lon="5.60204">
        <ele>1754.54</ele>
        <time>2018-10-04T11:56:30Z</time>
      </trkpt>
      <trkpt lat="44.46567" lon="5.60205">
        <ele>1754.54</ele>
        <time>2018-10-04T11:56:31Z</time>
      </trkpt>
      <trkpt lat="44.46565" lon="5.60226">
        <ele>1755.5</ele>
        <time>2018-10-04T11:56:47Z</time>
      </trkpt>
      <trkpt lat="44.46562" lon="5.60247">
        <ele>1756.95</ele>
        <time>2018-10-04T11:57:03Z</time>
      </trkpt>
      <trkpt lat="44.46559" lon="5.60271">
        <ele>1757.91</ele>
        <time>2018-10-04T11:57:21Z</time>
      </trkpt>
      <trkpt lat="44.46559" lon="5.60272">
        <ele>1757.91</ele>
        <time>2018-10-04T11:57:22Z</time>
      </trkpt>
      <trkpt lat="44.46559" lon="5.60275">
        <ele>1757.91</ele>
        <time>2018-10-04T11:57:24Z</time>
      </trkpt>
      <trkpt lat="44.46557" lon="5.60298">
        <ele>1759.35</ele>
        <time>2018-10-04T11:57:42Z</time>
      </trkpt>
      <trkpt lat="44.46555" lon="5.60325">
        <ele>1759.83</ele>
        <time>2018-10-04T11:58:01Z</time>
      </trkpt>
      <trkpt lat="44.46554" lon="5.60347">
        <ele>1760.31</ele>
        <time>2018-10-04T11:58:17Z</time>
      </trkpt>
      <trkpt lat="44.46551" lon="5.60369">
        <ele>1759.83</ele>
        <time>2018-10-04T11:58:34Z</time>
      </trkpt>
      <trkpt lat="44.46547" lon="5.60386">
        <ele>1757.91</ele>
        <time>2018-10-04T11:58:50Z</time>
      </trkpt>
      <trkpt lat="44.46547" lon="5.60404">
        <ele>1755.02</ele>
        <time>2018-10-04T11:59:06Z</time>
      </trkpt>
      <trkpt lat="44.46546" lon="5.60411">
        <ele>1753.58</ele>
        <time>2018-10-04T11:59:24Z</time>
      </trkpt>
      <trkpt lat="44.46546" lon="5.60412">
        <ele>1753.58</ele>
        <time>2018-10-04T11:59:49Z</time>
      </trkpt>
      <trkpt lat="44.46546" lon="5.60424">
        <ele>1751.18</ele>
        <time>2018-10-04T11:59:59Z</time>
      </trkpt>
      <trkpt lat="44.46543" lon="5.60437">
        <ele>1747.81</ele>
        <time>2018-10-04T12:00:12Z</time>
      </trkpt>
      <trkpt lat="44.46542" lon="5.60446">
        <ele>1744.45</ele>
        <time>2018-10-04T12:00:22Z</time>
      </trkpt>
      <trkpt lat="44.46548" lon="5.60446">
        <ele>1743.01</ele>
        <time>2018-10-04T12:00:36Z</time>
      </trkpt>
      <trkpt lat="44.46556" lon="5.60448">
        <ele>1741.08</ele>
        <time>2018-10-04T12:00:50Z</time>
      </trkpt>
      <trkpt lat="44.46563" lon="5.60448">
        <ele>1739.16</ele>
        <time>2018-10-04T12:01:04Z</time>
      </trkpt>
      <trkpt lat="44.46571" lon="5.60449">
        <ele>1736.76</ele>
        <time>2018-10-04T12:01:19Z</time>
      </trkpt>
      <trkpt lat="44.46575" lon="5.60449">
        <ele>1735.32</ele>
        <time>2018-10-04T12:01:36Z</time>
      </trkpt>
      <trkpt lat="44.46579" lon="5.60449">
        <ele>1733.39</ele>
        <time>2018-10-04T12:01:50Z</time>
      </trkpt>
      <trkpt lat="44.46583" lon="5.60449">
        <ele>1731.95</ele>
        <time>2018-10-04T12:02:05Z</time>
      </trkpt>
      <trkpt lat="44.46586" lon="5.60447">
        <ele>1730.51</ele>
        <time>2018-10-04T12:02:19Z</time>
      </trkpt>
      <trkpt lat="44.4659" lon="5.60444">
        <ele>1728.59</ele>
        <time>2018-10-04T12:02:32Z</time>
      </trkpt>
      <trkpt lat="44.46597" lon="5.60444">
        <ele>1726.18</ele>
        <time>2018-10-04T12:02:47Z</time>
      </trkpt>
      <trkpt lat="44.46601" lon="5.60445">
        <ele>1724.26</ele>
        <time>2018-10-04T12:03:02Z</time>
      </trkpt>
      <trkpt lat="44.46604" lon="5.60452">
        <ele>1721.38</ele>
        <time>2018-10-04T12:03:18Z</time>
      </trkpt>
      <trkpt lat="44.46612" lon="5.60449">
        <ele>1718.49</ele>
        <time>2018-10-04T12:03:32Z</time>
      </trkpt>
      <trkpt lat="44.46618" lon="5.60455">
        <ele>1715.13</ele>
        <time>2018-10-04T12:03:44Z</time>
      </trkpt>
      <trkpt lat="44.46624" lon="5.60458">
        <ele>1711.76</ele>
        <time>2018-10-04T12:03:56Z</time>
      </trkpt>
      <trkpt lat="44.4663" lon="5.60463">
        <ele>1708.88</ele>
        <time>2018-10-04T12:04:10Z</time>
      </trkpt>
      <trkpt lat="44.46639" lon="5.60464">
        <ele>1705.52</ele>
        <time>2018-10-04T12:04:22Z</time>
      </trkpt>
      <trkpt lat="44.46648" lon="5.6047">
        <ele>1702.63</ele>
        <time>2018-10-04T12:04:37Z</time>
      </trkpt>
      <trkpt lat="44.46652" lon="5.60472">
        <ele>1701.19</ele>
        <time>2018-10-04T12:04:43Z</time>
      </trkpt>
      <trkpt lat="44.46663" lon="5.60477">
        <ele>1697.83</ele>
        <time>2018-10-04T12:04:58Z</time>
      </trkpt>
      <trkpt lat="44.46675" lon="5.60485">
        <ele>1694.46</ele>
        <time>2018-10-04T12:05:14Z</time>
      </trkpt>
      <trkpt lat="44.46677" lon="5.60486">
        <ele>1695.42</ele>
        <time>2018-10-04T12:05:16Z</time>
      </trkpt>
      <trkpt lat="44.46689" lon="5.60494">
        <ele>1691.58</ele>
        <time>2018-10-04T12:05:32Z</time>
      </trkpt>
      <trkpt lat="44.46695" lon="5.60495">
        <ele>1690.62</ele>
        <time>2018-10-04T12:05:46Z</time>
      </trkpt>
      <trkpt lat="44.46707" lon="5.60496">
        <ele>1689.17</ele>
        <time>2018-10-04T12:06:00Z</time>
      </trkpt>
      <trkpt lat="44.46717" lon="5.60494">
        <ele>1688.69</ele>
        <time>2018-10-04T12:06:13Z</time>
      </trkpt>
      <trkpt lat="44.4673" lon="5.60493">
        <ele>1688.69</ele>
        <time>2018-10-04T12:06:29Z</time>
      </trkpt>
      <trkpt lat="44.46742" lon="5.60491">
        <ele>1688.69</ele>
        <time>2018-10-04T12:06:44Z</time>
      </trkpt>
      <trkpt lat="44.46754" lon="5.60487">
        <ele>1688.21</ele>
        <time>2018-10-04T12:06:59Z</time>
      </trkpt>
      <trkpt lat="44.46764" lon="5.60483">
        <ele>1687.73</ele>
        <time>2018-10-04T12:07:12Z</time>
      </trkpt>
      <trkpt lat="44.46778" lon="5.6048">
        <ele>1688.21</ele>
        <time>2018-10-04T12:07:28Z</time>
      </trkpt>
      <trkpt lat="44.46791" lon="5.60478">
        <ele>1688.21</ele>
        <time>2018-10-04T12:07:44Z</time>
      </trkpt>
      <trkpt lat="44.46803" lon="5.60474">
        <ele>1687.25</ele>
        <time>2018-10-04T12:07:59Z</time>
      </trkpt>
      <trkpt lat="44.46813" lon="5.60472">
        <ele>1687.25</ele>
        <time>2018-10-04T12:08:14Z</time>
      </trkpt>
      <trkpt lat="44.46824" lon="5.60468">
        <ele>1687.25</ele>
        <time>2018-10-04T12:08:28Z</time>
      </trkpt>
      <trkpt lat="44.46831" lon="5.60465">
        <ele>1686.77</ele>
        <time>2018-10-04T12:08:40Z</time>
      </trkpt>
      <trkpt lat="44.46838" lon="5.60459">
        <ele>1686.77</ele>
        <time>2018-10-04T12:08:53Z</time>
      </trkpt>
      <trkpt lat="44.4685" lon="5.60455">
        <ele>1686.77</ele>
        <time>2018-10-04T12:09:09Z</time>
      </trkpt>
      <trkpt lat="44.4686" lon="5.60448">
        <ele>1686.77</ele>
        <time>2018-10-04T12:09:23Z</time>
      </trkpt>
      <trkpt lat="44.46864" lon="5.60444">
        <ele>1686.77</ele>
        <time>2018-10-04T12:09:30Z</time>
      </trkpt>
      <trkpt lat="44.46871" lon="5.60433">
        <ele>1683.41</ele>
        <time>2018-10-04T12:09:44Z</time>
      </trkpt>
      <trkpt lat="44.46879" lon="5.60426">
        <ele>1680.52</ele>
        <time>2018-10-04T12:09:57Z</time>
      </trkpt>
      <trkpt lat="44.46889" lon="5.60424">
        <ele>1677.64</ele>
        <time>2018-10-04T12:10:11Z</time>
      </trkpt>
      <trkpt lat="44.46897" lon="5.60422">
        <ele>1674.27</ele>
        <time>2018-10-04T12:10:24Z</time>
      </trkpt>
      <trkpt lat="44.46904" lon="5.60424">
        <ele>1671.87</ele>
        <time>2018-10-04T12:10:40Z</time>
      </trkpt>
      <trkpt lat="44.46909" lon="5.60429">
        <ele>1669.47</ele>
        <time>2018-10-04T12:10:51Z</time>
      </trkpt>
      <trkpt lat="44.46915" lon="5.60436">
        <ele>1667.54</ele>
        <time>2018-10-04T12:11:02Z</time>
      </trkpt>
      <trkpt lat="44.46917" lon="5.60439">
        <ele>1667.06</ele>
        <time>2018-10-04T12:11:05Z</time>
      </trkpt>
      <trkpt lat="44.4692" lon="5.60443">
        <ele>1665.62</ele>
        <time>2018-10-04T12:11:11Z</time>
      </trkpt>
      <trkpt lat="44.46925" lon="5.60452">
        <ele>1664.66</ele>
        <time>2018-10-04T12:11:25Z</time>
      </trkpt>
      <trkpt lat="44.46929" lon="5.60459">
        <ele>1663.22</ele>
        <time>2018-10-04T12:11:38Z</time>
      </trkpt>
      <trkpt lat="44.46932" lon="5.60475">
        <ele>1661.78</ele>
        <time>2018-10-04T12:11:52Z</time>
      </trkpt>
      <trkpt lat="44.46933" lon="5.60479">
        <ele>1660.81</ele>
        <time>2018-10-04T12:11:56Z</time>
      </trkpt>
      <trkpt lat="44.46939" lon="5.60491">
        <ele>1659.37</ele>
        <time>2018-10-04T12:12:07Z</time>
      </trkpt>
      <trkpt lat="44.46942" lon="5.60502">
        <ele>1657.93</ele>
        <time>2018-10-04T12:12:23Z</time>
      </trkpt>
      <trkpt lat="44.46945" lon="5.60514">
        <ele>1655.53</ele>
        <time>2018-10-04T12:12:35Z</time>
      </trkpt>
      <trkpt lat="44.46948" lon="5.60524">
        <ele>1654.57</ele>
        <time>2018-10-04T12:12:50Z</time>
      </trkpt>
      <trkpt lat="44.46951" lon="5.60531">
        <ele>1653.12</ele>
        <time>2018-10-04T12:13:04Z</time>
      </trkpt>
      <trkpt lat="44.46953" lon="5.60535">
        <ele>1652.16</ele>
        <time>2018-10-04T12:13:20Z</time>
      </trkpt>
      <trkpt lat="44.46958" lon="5.60545">
        <ele>1650.24</ele>
        <time>2018-10-04T12:13:36Z</time>
      </trkpt>
      <trkpt lat="44.46961" lon="5.60553">
        <ele>1647.84</ele>
        <time>2018-10-04T12:13:49Z</time>
      </trkpt>
      <trkpt lat="44.46965" lon="5.60566">
        <ele>1645.43</ele>
        <time>2018-10-04T12:14:05Z</time>
      </trkpt>
      <trkpt lat="44.4697" lon="5.60576">
        <ele>1643.03</ele>
        <time>2018-10-04T12:14:20Z</time>
      </trkpt>
      <trkpt lat="44.46974" lon="5.60585">
        <ele>1640.63</ele>
        <time>2018-10-04T12:14:36Z</time>
      </trkpt>
      <trkpt lat="44.46977" lon="5.60592">
        <ele>1639.19</ele>
        <time>2018-10-04T12:14:51Z</time>
      </trkpt>
      <trkpt lat="44.46981" lon="5.60596">
        <ele>1636.78</ele>
        <time>2018-10-04T12:15:03Z</time>
      </trkpt>
      <trkpt lat="44.46981" lon="5.60597">
        <ele>1634.86</ele>
        <time>2018-10-04T12:15:16Z</time>
      </trkpt>
      <trkpt lat="44.46985" lon="5.60603">
        <ele>1633.42</ele>
        <time>2018-10-04T12:15:30Z</time>
      </trkpt>
      <trkpt lat="44.4699" lon="5.60608">
        <ele>1630.53</ele>
        <time>2018-10-04T12:15:45Z</time>
      </trkpt>
      <trkpt lat="44.46995" lon="5.60612">
        <ele>1628.13</ele>
        <time>2018-10-04T12:16:00Z</time>
      </trkpt>
      <trkpt lat="44.46999" lon="5.60615">
        <ele>1625.73</ele>
        <time>2018-10-04T12:16:14Z</time>
      </trkpt>
      <trkpt lat="44.47002" lon="5.60611">
        <ele>1623.32</ele>
        <time>2018-10-04T12:16:27Z</time>
      </trkpt>
      <trkpt lat="44.47005" lon="5.60603">
        <ele>1621.4</ele>
        <time>2018-10-04T12:16:41Z</time>
      </trkpt>
      <trkpt lat="44.47006" lon="5.60593">
        <ele>1619.48</ele>
        <time>2018-10-04T12:16:55Z</time>
      </trkpt>
      <trkpt lat="44.4701" lon="5.60597">
        <ele>1617.07</ele>
        <time>2018-10-04T12:17:09Z</time>
      </trkpt>
      <trkpt lat="44.47015" lon="5.60597">
        <ele>1614.19</ele>
        <time>2018-10-04T12:17:22Z</time>
      </trkpt>
      <trkpt lat="44.47022" lon="5.60594">
        <ele>1610.83</ele>
        <time>2018-10-04T12:17:37Z</time>
      </trkpt>
      <trkpt lat="44.47029" lon="5.60595">
        <ele>1607.94</ele>
        <time>2018-10-04T12:17:51Z</time>
      </trkpt>
      <trkpt lat="44.47032" lon="5.6059">
        <ele>1605.54</ele>
        <time>2018-10-04T12:18:03Z</time>
      </trkpt>
      <trkpt lat="44.47038" lon="5.60591">
        <ele>1602.66</ele>
        <time>2018-10-04T12:18:13Z</time>
      </trkpt>
      <trkpt lat="44.47045" lon="5.60589">
        <ele>1599.29</ele>
        <time>2018-10-04T12:18:24Z</time>
      </trkpt>
      <trkpt lat="44.4705" lon="5.60589">
        <ele>1596.41</ele>
        <time>2018-10-04T12:18:35Z</time>
      </trkpt>
      <trkpt lat="44.47055" lon="5.60588">
        <ele>1593.52</ele>
        <time>2018-10-04T12:18:45Z</time>
      </trkpt>
      <trkpt lat="44.47061" lon="5.60585">
        <ele>1590.16</ele>
        <time>2018-10-04T12:18:57Z</time>
      </trkpt>
      <trkpt lat="44.47068" lon="5.60585">
        <ele>1586.79</ele>
        <time>2018-10-04T12:19:11Z</time>
      </trkpt>
      <trkpt lat="44.47075" lon="5.60582">
        <ele>1583.91</ele>
        <time>2018-10-04T12:19:21Z</time>
      </trkpt>
      <trkpt lat="44.47082" lon="5.60581">
        <ele>1580.54</ele>
        <time>2018-10-04T12:19:34Z</time>
      </trkpt>
      <trkpt lat="44.47089" lon="5.60578">
        <ele>1577.66</ele>
        <time>2018-10-04T12:19:46Z</time>
      </trkpt>
      <trkpt lat="44.47095" lon="5.60574">
        <ele>1574.78</ele>
        <time>2018-10-04T12:19:59Z</time>
      </trkpt>
      <trkpt lat="44.47101" lon="5.60572">
        <ele>1572.37</ele>
        <time>2018-10-04T12:20:11Z</time>
      </trkpt>
      <trkpt lat="44.47107" lon="5.60567">
        <ele>1569.49</ele>
        <time>2018-10-04T12:20:21Z</time>
      </trkpt>
      <trkpt lat="44.47116" lon="5.60569">
        <ele>1567.09</ele>
        <time>2018-10-04T12:20:34Z</time>
      </trkpt>
      <trkpt lat="44.47124" lon="5.60575">
        <ele>1565.16</ele>
        <time>2018-10-04T12:20:47Z</time>
      </trkpt>
      <trkpt lat="44.47132" lon="5.60576">
        <ele>1561.8</ele>
        <time>2018-10-04T12:21:00Z</time>
      </trkpt>
      <trkpt lat="44.47142" lon="5.60576">
        <ele>1558.43</ele>
        <time>2018-10-04T12:21:14Z</time>
      </trkpt>
      <trkpt lat="44.47148" lon="5.6058">
        <ele>1556.51</ele>
        <time>2018-10-04T12:21:22Z</time>
      </trkpt>
      <trkpt lat="44.47154" lon="5.60585">
        <ele>1555.07</ele>
        <time>2018-10-04T12:21:33Z</time>
      </trkpt>
      <trkpt lat="44.47163" lon="5.6059">
        <ele>1552.19</ele>
        <time>2018-10-04T12:21:48Z</time>
      </trkpt>
      <trkpt lat="44.47172" lon="5.60583">
        <ele>1549.3</ele>
        <time>2018-10-04T12:22:02Z</time>
      </trkpt>
      <trkpt lat="44.47175" lon="5.60571">
        <ele>1546.9</ele>
        <time>2018-10-04T12:22:12Z</time>
      </trkpt>
      <trkpt lat="44.47178" lon="5.60558">
        <ele>1545.46</ele>
        <time>2018-10-04T12:22:26Z</time>
      </trkpt>
      <trkpt lat="44.47181" lon="5.60547">
        <ele>1542.57</ele>
        <time>2018-10-04T12:22:40Z</time>
      </trkpt>
      <trkpt lat="44.47183" lon="5.60533">
        <ele>1541.61</ele>
        <time>2018-10-04T12:22:55Z</time>
      </trkpt>
      <trkpt lat="44.47187" lon="5.60522">
        <ele>1539.21</ele>
        <time>2018-10-04T12:23:08Z</time>
      </trkpt>
      <trkpt lat="44.47195" lon="5.60514">
        <ele>1536.32</ele>
        <time>2018-10-04T12:23:22Z</time>
      </trkpt>
      <trkpt lat="44.47204" lon="5.60509">
        <ele>1532.96</ele>
        <time>2018-10-04T12:23:37Z</time>
      </trkpt>
      <trkpt lat="44.47211" lon="5.60507">
        <ele>1529.59</ele>
        <time>2018-10-04T12:23:49Z</time>
      </trkpt>
      <trkpt lat="44.47217" lon="5.60505">
        <ele>1526.71</ele>
        <time>2018-10-04T12:23:59Z</time>
      </trkpt>
      <trkpt lat="44.47227" lon="5.60503">
        <ele>1523.35</ele>
        <time>2018-10-04T12:24:14Z</time>
      </trkpt>
      <trkpt lat="44.47238" lon="5.60503">
        <ele>1520.46</ele>
        <time>2018-10-04T12:24:30Z</time>
      </trkpt>
      <trkpt lat="44.4725" lon="5.60508">
        <ele>1517.58</ele>
        <time>2018-10-04T12:24:46Z</time>
      </trkpt>
      <trkpt lat="44.4726" lon="5.60516">
        <ele>1515.18</ele>
        <time>2018-10-04T12:25:01Z</time>
      </trkpt>
      <trkpt lat="44.47268" lon="5.60514">
        <ele>1512.77</ele>
        <time>2018-10-04T12:25:14Z</time>
      </trkpt>
      <trkpt lat="44.47274" lon="5.60513">
        <ele>1511.81</ele>
        <time>2018-10-04T12:25:27Z</time>
      </trkpt>
      <trkpt lat="44.47282" lon="5.60513">
        <ele>1509.89</ele>
        <time>2018-10-04T12:25:45Z</time>
      </trkpt>
      <trkpt lat="44.47281" lon="5.60514">
        <ele>1509.41</ele>
        <time>2018-10-04T12:26:15Z</time>
      </trkpt>
      <trkpt lat="44.47281" lon="5.60514">
        <ele>1509.41</ele>
        <time>2018-10-04T12:26:33Z</time>
      </trkpt>
      <trkpt lat="44.47282" lon="5.60514">
        <ele>1509.89</ele>
        <time>2018-10-04T12:26:58Z</time>
      </trkpt>
      <trkpt lat="44.47284" lon="5.60517">
        <ele>1509.41</ele>
        <time>2018-10-04T12:27:14Z</time>
      </trkpt>
      <trkpt lat="44.47286" lon="5.60518">
        <ele>1508.93</ele>
        <time>2018-10-04T12:27:37Z</time>
      </trkpt>
      <trkpt lat="44.47287" lon="5.60516">
        <ele>1508.45</ele>
        <time>2018-10-04T12:27:57Z</time>
      </trkpt>
      <trkpt lat="44.47287" lon="5.60516">
        <ele>1508.45</ele>
        <time>2018-10-04T12:28:21Z</time>
      </trkpt>
      <trkpt lat="44.47288" lon="5.60518">
        <ele>1508.93</ele>
        <time>2018-10-04T12:28:51Z</time>
      </trkpt>
      <trkpt lat="44.47287" lon="5.60515">
        <ele>1508.45</ele>
        <time>2018-10-04T12:29:15Z</time>
      </trkpt>
      <trkpt lat="44.47286" lon="5.60519">
        <ele>1508.93</ele>
        <time>2018-10-04T12:29:35Z</time>
      </trkpt>
      <trkpt lat="44.47286" lon="5.60519">
        <ele>1508.93</ele>
        <time>2018-10-04T12:29:36Z</time>
      </trkpt>
      <trkpt lat="44.47286" lon="5.60518">
        <ele>1507.48</ele>
        <time>2018-10-04T12:29:49Z</time>
      </trkpt>
      <trkpt lat="44.47287" lon="5.60517">
        <ele>1507.97</ele>
        <time>2018-10-04T12:30:19Z</time>
      </trkpt>
      <trkpt lat="44.47287" lon="5.60517">
        <ele>1507.97</ele>
        <time>2018-10-04T12:30:20Z</time>
      </trkpt>
      <trkpt lat="44.47287" lon="5.60519">
        <ele>1508.45</ele>
        <time>2018-10-04T12:30:30Z</time>
      </trkpt>
      <trkpt lat="44.47287" lon="5.60517">
        <ele>1508.45</ele>
        <time>2018-10-04T12:30:43Z</time>
      </trkpt>
      <trkpt lat="44.47292" lon="5.60507">
        <ele>1506.52</ele>
        <time>2018-10-04T12:30:58Z</time>
      </trkpt>
      <trkpt lat="44.47299" lon="5.60506">
        <ele>1506.04</ele>
        <time>2018-10-04T12:31:13Z</time>
      </trkpt>
      <trkpt lat="44.47307" lon="5.60501">
        <ele>1503.16</ele>
        <time>2018-10-04T12:31:26Z</time>
      </trkpt>
      <trkpt lat="44.47318" lon="5.60496">
        <ele>1500.76</ele>
        <time>2018-10-04T12:31:41Z</time>
      </trkpt>
      <trkpt lat="44.47322" lon="5.60496">
        <ele>1499.31</ele>
        <time>2018-10-04T12:31:49Z</time>
      </trkpt>
      <trkpt lat="44.47334" lon="5.60487">
        <ele>1496.43</ele>
        <time>2018-10-04T12:32:06Z</time>
      </trkpt>
      <trkpt lat="44.47342" lon="5.60482">
        <ele>1493.55</ele>
        <time>2018-10-04T12:32:20Z</time>
      </trkpt>
      <trkpt lat="44.47352" lon="5.60479">
        <ele>1490.66</ele>
        <time>2018-10-04T12:32:36Z</time>
      </trkpt>
      <trkpt lat="44.47362" lon="5.60476">
        <ele>1487.78</ele>
        <time>2018-10-04T12:32:51Z</time>
      </trkpt>
      <trkpt lat="44.47372" lon="5.60472">
        <ele>1484.41</ele>
        <time>2018-10-04T12:33:07Z</time>
      </trkpt>
      <trkpt lat="44.47381" lon="5.60468">
        <ele>1482.01</ele>
        <time>2018-10-04T12:33:21Z</time>
      </trkpt>
      <trkpt lat="44.47394" lon="5.60464">
        <ele>1478.65</ele>
        <time>2018-10-04T12:33:38Z</time>
      </trkpt>
      <trkpt lat="44.47407" lon="5.60462">
        <ele>1475.76</ele>
        <time>2018-10-04T12:33:54Z</time>
      </trkpt>
      <trkpt lat="44.47418" lon="5.60459">
        <ele>1472.4</ele>
        <time>2018-10-04T12:34:09Z</time>
      </trkpt>
      <trkpt lat="44.47429" lon="5.60451">
        <ele>1469.03</ele>
        <time>2018-10-04T12:34:26Z</time>
      </trkpt>
      <trkpt lat="44.47435" lon="5.6044">
        <ele>1466.15</ele>
        <time>2018-10-04T12:34:41Z</time>
      </trkpt>
      <trkpt lat="44.47446" lon="5.60435">
        <ele>1463.26</ele>
        <time>2018-10-04T12:34:55Z</time>
      </trkpt>
      <trkpt lat="44.47458" lon="5.60436">
        <ele>1459.9</ele>
        <time>2018-10-04T12:35:09Z</time>
      </trkpt>
      <trkpt lat="44.47467" lon="5.60434">
        <ele>1457.02</ele>
        <time>2018-10-04T12:35:20Z</time>
      </trkpt>
      <trkpt lat="44.47475" lon="5.60429">
        <ele>1454.61</ele>
        <time>2018-10-04T12:35:34Z</time>
      </trkpt>
      <trkpt lat="44.47484" lon="5.60426">
        <ele>1451.25</ele>
        <time>2018-10-04T12:35:47Z</time>
      </trkpt>
      <trkpt lat="44.47494" lon="5.60422">
        <ele>1448.36</ele>
        <time>2018-10-04T12:36:01Z</time>
      </trkpt>
      <trkpt lat="44.47501" lon="5.6042">
        <ele>1446.44</ele>
        <time>2018-10-04T12:36:17Z</time>
      </trkpt>
      <trkpt lat="44.4751" lon="5.60416">
        <ele>1443.08</ele>
        <time>2018-10-04T12:36:30Z</time>
      </trkpt>
      <trkpt lat="44.47514" lon="5.60414">
        <ele>1441.15</ele>
        <time>2018-10-04T12:36:44Z</time>
      </trkpt>
      <trkpt lat="44.47524" lon="5.6041">
        <ele>1438.27</ele>
        <time>2018-10-04T12:36:57Z</time>
      </trkpt>
      <trkpt lat="44.47534" lon="5.60408">
        <ele>1434.91</ele>
        <time>2018-10-04T12:37:12Z</time>
      </trkpt>
      <trkpt lat="44.47545" lon="5.60404">
        <ele>1431.54</ele>
        <time>2018-10-04T12:37:26Z</time>
      </trkpt>
      <trkpt lat="44.47554" lon="5.60402">
        <ele>1428.18</ele>
        <time>2018-10-04T12:37:37Z</time>
      </trkpt>
      <trkpt lat="44.47565" lon="5.60401">
        <ele>1425.29</ele>
        <time>2018-10-04T12:37:50Z</time>
      </trkpt>
      <trkpt lat="44.47575" lon="5.60398">
        <ele>1421.93</ele>
        <time>2018-10-04T12:38:03Z</time>
      </trkpt>
      <trkpt lat="44.47585" lon="5.60395">
        <ele>1419.04</ele>
        <time>2018-10-04T12:38:17Z</time>
      </trkpt>
      <trkpt lat="44.47596" lon="5.60391">
        <ele>1416.16</ele>
        <time>2018-10-04T12:38:30Z</time>
      </trkpt>
      <trkpt lat="44.47609" lon="5.60385">
        <ele>1412.79</ele>
        <time>2018-10-04T12:38:44Z</time>
      </trkpt>
      <trkpt lat="44.47624" lon="5.60381">
        <ele>1409.43</ele>
        <time>2018-10-04T12:39:00Z</time>
      </trkpt>
      <trkpt lat="44.47638" lon="5.60379">
        <ele>1406.55</ele>
        <time>2018-10-04T12:39:15Z</time>
      </trkpt>
      <trkpt lat="44.47654" lon="5.60375">
        <ele>1403.18</ele>
        <time>2018-10-04T12:39:32Z</time>
      </trkpt>
      <trkpt lat="44.47665" lon="5.60372">
        <ele>1400.3</ele>
        <time>2018-10-04T12:39:46Z</time>
      </trkpt>
      <trkpt lat="44.47676" lon="5.60369">
        <ele>1396.93</ele>
        <time>2018-10-04T12:40:00Z</time>
      </trkpt>
      <trkpt lat="44.47686" lon="5.60366">
        <ele>1394.53</ele>
        <time>2018-10-04T12:40:16Z</time>
      </trkpt>
      <trkpt lat="44.47697" lon="5.60363">
        <ele>1391.17</ele>
        <time>2018-10-04T12:40:30Z</time>
      </trkpt>
      <trkpt lat="44.4771" lon="5.6036">
        <ele>1388.28</ele>
        <time>2018-10-04T12:40:46Z</time>
      </trkpt>
      <trkpt lat="44.47721" lon="5.60356">
        <ele>1384.92</ele>
        <time>2018-10-04T12:41:00Z</time>
      </trkpt>
      <trkpt lat="44.47734" lon="5.60353">
        <ele>1381.55</ele>
        <time>2018-10-04T12:41:16Z</time>
      </trkpt>
      <trkpt lat="44.47746" lon="5.60349">
        <ele>1378.67</ele>
        <time>2018-10-04T12:41:32Z</time>
      </trkpt>
      <trkpt lat="44.47759" lon="5.60347">
        <ele>1375.3</ele>
        <time>2018-10-04T12:41:47Z</time>
      </trkpt>
      <trkpt lat="44.47774" lon="5.60349">
        <ele>1372.42</ele>
        <time>2018-10-04T12:42:02Z</time>
      </trkpt>
      <trkpt lat="44.47789" lon="5.60347">
        <ele>1369.05</ele>
        <time>2018-10-04T12:42:18Z</time>
      </trkpt>
      <trkpt lat="44.47801" lon="5.60345">
        <ele>1366.17</ele>
        <time>2018-10-04T12:42:33Z</time>
      </trkpt>
      <trkpt lat="44.47815" lon="5.60344">
        <ele>1362.81</ele>
        <time>2018-10-04T12:42:51Z</time>
      </trkpt>
      <trkpt lat="44.47829" lon="5.60342">
        <ele>1359.92</ele>
        <time>2018-10-04T12:43:07Z</time>
      </trkpt>
      <trkpt lat="44.47843" lon="5.6034">
        <ele>1356.56</ele>
        <time>2018-10-04T12:43:22Z</time>
      </trkpt>
      <trkpt lat="44.47856" lon="5.60337">
        <ele>1353.67</ele>
        <time>2018-10-04T12:43:36Z</time>
      </trkpt>
      <trkpt lat="44.47871" lon="5.6034">
        <ele>1350.31</ele>
        <time>2018-10-04T12:43:51Z</time>
      </trkpt>
      <trkpt lat="44.47885" lon="5.60345">
        <ele>1347.43</ele>
        <time>2018-10-04T12:44:05Z</time>
      </trkpt>
      <trkpt lat="44.47904" lon="5.60347">
        <ele>1344.54</ele>
        <time>2018-10-04T12:44:24Z</time>
      </trkpt>
      <trkpt lat="44.47922" lon="5.60349">
        <ele>1341.66</ele>
        <time>2018-10-04T12:44:42Z</time>
      </trkpt>
      <trkpt lat="44.47939" lon="5.6035">
        <ele>1339.25</ele>
        <time>2018-10-04T12:44:59Z</time>
      </trkpt>
      <trkpt lat="44.47955" lon="5.60353">
        <ele>1336.37</ele>
        <time>2018-10-04T12:45:16Z</time>
      </trkpt>
      <trkpt lat="44.47959" lon="5.60354">
        <ele>1335.89</ele>
        <time>2018-10-04T12:45:20Z</time>
      </trkpt>
      <trkpt lat="44.47977" lon="5.60357">
        <ele>1332.52</ele>
        <time>2018-10-04T12:45:40Z</time>
      </trkpt>
      <trkpt lat="44.47981" lon="5.60358">
        <ele>1332.04</ele>
        <time>2018-10-04T12:45:44Z</time>
      </trkpt>
      <trkpt lat="44.47986" lon="5.60358">
        <ele>1331.08</ele>
        <time>2018-10-04T12:45:49Z</time>
      </trkpt>
      <trkpt lat="44.48003" lon="5.60368">
        <ele>1328.68</ele>
        <time>2018-10-04T12:46:05Z</time>
      </trkpt>
      <trkpt lat="44.4802" lon="5.60377">
        <ele>1326.76</ele>
        <time>2018-10-04T12:46:22Z</time>
      </trkpt>
      <trkpt lat="44.48037" lon="5.60391">
        <ele>1325.31</ele>
        <time>2018-10-04T12:46:40Z</time>
      </trkpt>
      <trkpt lat="44.4805" lon="5.6041">
        <ele>1324.35</ele>
        <time>2018-10-04T12:46:58Z</time>
      </trkpt>
      <trkpt lat="44.4806" lon="5.6042">
        <ele>1323.39</ele>
        <time>2018-10-04T12:47:16Z</time>
      </trkpt>
      <trkpt lat="44.48061" lon="5.60423">
        <ele>1323.39</ele>
        <time>2018-10-04T12:47:41Z</time>
      </trkpt>
      <trkpt lat="44.48061" lon="5.60422">
        <ele>1323.39</ele>
        <time>2018-10-04T12:47:58Z</time>
      </trkpt>
      <trkpt lat="44.48062" lon="5.60424">
        <ele>1322.43</ele>
        <time>2018-10-04T12:48:17Z</time>
      </trkpt>
      <trkpt lat="44.48061" lon="5.60425">
        <ele>1322.91</ele>
        <time>2018-10-04T12:48:38Z</time>
      </trkpt>
      <trkpt lat="44.48067" lon="5.60429">
        <ele>1322.43</ele>
        <time>2018-10-04T12:48:54Z</time>
      </trkpt>
      <trkpt lat="44.48074" lon="5.60443">
        <ele>1321.47</ele>
        <time>2018-10-04T12:49:08Z</time>
      </trkpt>
      <trkpt lat="44.4808" lon="5.60453">
        <ele>1320.99</ele>
        <time>2018-10-04T12:49:18Z</time>
      </trkpt>
      <trkpt lat="44.48094" lon="5.6047">
        <ele>1319.55</ele>
        <time>2018-10-04T12:49:37Z</time>
      </trkpt>
      <trkpt lat="44.48104" lon="5.60482">
        <ele>1319.07</ele>
        <time>2018-10-04T12:49:52Z</time>
      </trkpt>
      <trkpt lat="44.48106" lon="5.60484">
        <ele>1319.55</ele>
        <time>2018-10-04T12:49:55Z</time>
      </trkpt>
      <trkpt lat="44.48114" lon="5.60495">
        <ele>1318.1</ele>
        <time>2018-10-04T12:50:10Z</time>
      </trkpt>
      <trkpt lat="44.48117" lon="5.60498">
        <ele>1317.62</ele>
        <time>2018-10-04T12:50:29Z</time>
      </trkpt>
      <trkpt lat="44.48119" lon="5.605">
        <ele>1318.1</ele>
        <time>2018-10-04T12:50:32Z</time>
      </trkpt>
      <trkpt lat="44.48125" lon="5.60503">
        <ele>1316.66</ele>
        <time>2018-10-04T12:50:39Z</time>
      </trkpt>
      <trkpt lat="44.48139" lon="5.60515">
        <ele>1314.74</ele>
        <time>2018-10-04T12:50:56Z</time>
      </trkpt>
      <trkpt lat="44.48141" lon="5.60517">
        <ele>1314.26</ele>
        <time>2018-10-04T12:50:58Z</time>
      </trkpt>
      <trkpt lat="44.48155" lon="5.6053">
        <ele>1313.3</ele>
        <time>2018-10-04T12:51:14Z</time>
      </trkpt>
      <trkpt lat="44.4816" lon="5.60534">
        <ele>1312.82</ele>
        <time>2018-10-04T12:51:21Z</time>
      </trkpt>
      <trkpt lat="44.48167" lon="5.60547">
        <ele>1312.34</ele>
        <time>2018-10-04T12:51:31Z</time>
      </trkpt>
      <trkpt lat="44.48175" lon="5.60558">
        <ele>1311.38</ele>
        <time>2018-10-04T12:51:42Z</time>
      </trkpt>
      <trkpt lat="44.48178" lon="5.60565">
        <ele>1311.38</ele>
        <time>2018-10-04T12:51:49Z</time>
      </trkpt>
      <trkpt lat="44.48187" lon="5.60576">
        <ele>1309.45</ele>
        <time>2018-10-04T12:52:01Z</time>
      </trkpt>
      <trkpt lat="44.48187" lon="5.6058">
        <ele>1309.45</ele>
        <time>2018-10-04T12:52:04Z</time>
      </trkpt>
      <trkpt lat="44.48186" lon="5.60591">
        <ele>1310.41</ele>
        <time>2018-10-04T12:52:12Z</time>
      </trkpt>
      <trkpt lat="44.48182" lon="5.60615">
        <ele>1311.38</ele>
        <time>2018-10-04T12:52:30Z</time>
      </trkpt>
      <trkpt lat="44.48179" lon="5.60635">
        <ele>1312.82</ele>
        <time>2018-10-04T12:52:45Z</time>
      </trkpt>
      <trkpt lat="44.48177" lon="5.6064">
        <ele>1312.82</ele>
        <time>2018-10-04T12:52:50Z</time>
      </trkpt>
      <trkpt lat="44.48172" lon="5.60665">
        <ele>1313.78</ele>
        <time>2018-10-04T12:53:09Z</time>
      </trkpt>
      <trkpt lat="44.48172" lon="5.60667">
        <ele>1313.78</ele>
        <time>2018-10-04T12:53:10Z</time>
      </trkpt>
      <trkpt lat="44.48171" lon="5.60669">
        <ele>1313.78</ele>
        <time>2018-10-04T12:53:12Z</time>
      </trkpt>
      <trkpt lat="44.48168" lon="5.6069">
        <ele>1315.22</ele>
        <time>2018-10-04T12:53:28Z</time>
      </trkpt>
      <trkpt lat="44.48164" lon="5.60708">
        <ele>1316.66</ele>
        <time>2018-10-04T12:53:42Z</time>
      </trkpt>
      <trkpt lat="44.48164" lon="5.60711">
        <ele>1316.66</ele>
        <time>2018-10-04T12:53:45Z</time>
      </trkpt>
      <trkpt lat="44.48162" lon="5.60721">
        <ele>1317.14</ele>
        <time>2018-10-04T12:53:53Z</time>
      </trkpt>
      <trkpt lat="44.48158" lon="5.6074">
        <ele>1318.59</ele>
        <time>2018-10-04T12:54:09Z</time>
      </trkpt>
      <trkpt lat="44.48156" lon="5.60759">
        <ele>1320.03</ele>
        <time>2018-10-04T12:54:25Z</time>
      </trkpt>
      <trkpt lat="44.48156" lon="5.6076">
        <ele>1320.03</ele>
        <time>2018-10-04T12:54:26Z</time>
      </trkpt>
      <trkpt lat="44.48153" lon="5.60777">
        <ele>1321.47</ele>
        <time>2018-10-04T12:54:41Z</time>
      </trkpt>
      <trkpt lat="44.48152" lon="5.60792">
        <ele>1322.43</ele>
        <time>2018-10-04T12:54:53Z</time>
      </trkpt>
      <trkpt lat="44.48151" lon="5.60807">
        <ele>1323.39</ele>
        <time>2018-10-04T12:55:07Z</time>
      </trkpt>
      <trkpt lat="44.48148" lon="5.60825">
        <ele>1324.83</ele>
        <time>2018-10-04T12:55:23Z</time>
      </trkpt>
      <trkpt lat="44.48146" lon="5.60843">
        <ele>1326.28</ele>
        <time>2018-10-04T12:55:38Z</time>
      </trkpt>
      <trkpt lat="44.48145" lon="5.60856">
        <ele>1327.72</ele>
        <time>2018-10-04T12:55:51Z</time>
      </trkpt>
      <trkpt lat="44.48144" lon="5.60873">
        <ele>1329.16</ele>
        <time>2018-10-04T12:56:05Z</time>
      </trkpt>
      <trkpt lat="44.48142" lon="5.60889">
        <ele>1330.6</ele>
        <time>2018-10-04T12:56:19Z</time>
      </trkpt>
      <trkpt lat="44.48142" lon="5.6089">
        <ele>1330.6</ele>
        <time>2018-10-04T12:56:20Z</time>
      </trkpt>
      <trkpt lat="44.48137" lon="5.60907">
        <ele>1332.04</ele>
        <time>2018-10-04T12:56:36Z</time>
      </trkpt>
      <trkpt lat="44.48129" lon="5.6092">
        <ele>1333.49</ele>
        <time>2018-10-04T12:56:50Z</time>
      </trkpt>
      <trkpt lat="44.48122" lon="5.60934">
        <ele>1334.45</ele>
        <time>2018-10-04T12:57:04Z</time>
      </trkpt>
      <trkpt lat="44.48114" lon="5.60944">
        <ele>1335.89</ele>
        <time>2018-10-04T12:57:18Z</time>
      </trkpt>
      <trkpt lat="44.48105" lon="5.60952">
        <ele>1336.85</ele>
        <time>2018-10-04T12:57:31Z</time>
      </trkpt>
      <trkpt lat="44.48094" lon="5.60958">
        <ele>1337.81</ele>
        <time>2018-10-04T12:57:43Z</time>
      </trkpt>
      <trkpt lat="44.48081" lon="5.60968">
        <ele>1338.77</ele>
        <time>2018-10-04T12:57:59Z</time>
      </trkpt>
      <trkpt lat="44.4807" lon="5.60978">
        <ele>1339.73</ele>
        <time>2018-10-04T12:58:14Z</time>
      </trkpt>
      <trkpt lat="44.48059" lon="5.60988">
        <ele>1340.7</ele>
        <time>2018-10-04T12:58:27Z</time>
      </trkpt>
      <trkpt lat="44.48055" lon="5.60992">
        <ele>1341.18</ele>
        <time>2018-10-04T12:58:32Z</time>
      </trkpt>
      <trkpt lat="44.48045" lon="5.61001">
        <ele>1341.66</ele>
        <time>2018-10-04T12:58:46Z</time>
      </trkpt>
      <trkpt lat="44.4803" lon="5.61011">
        <ele>1342.62</ele>
        <time>2018-10-04T12:59:02Z</time>
      </trkpt>
      <trkpt lat="44.48019" lon="5.61021">
        <ele>1343.1</ele>
        <time>2018-10-04T12:59:16Z</time>
      </trkpt>
      <trkpt lat="44.48011" lon="5.61031">
        <ele>1343.58</ele>
        <time>2018-10-04T12:59:26Z</time>
      </trkpt>
      <trkpt lat="44.48008" lon="5.61037">
        <ele>1345.02</ele>
        <time>2018-10-04T12:59:30Z</time>
      </trkpt>
      <trkpt lat="44.48008" lon="5.61045">
        <ele>1343.58</ele>
        <time>2018-10-04T12:59:37Z</time>
      </trkpt>
      <trkpt lat="44.48007" lon="5.61047">
        <ele>1344.06</ele>
        <time>2018-10-04T12:59:40Z</time>
      </trkpt>
      <trkpt lat="44.48013" lon="5.61049">
        <ele>1344.54</ele>
        <time>2018-10-04T12:59:47Z</time>
      </trkpt>
      <trkpt lat="44.48019" lon="5.61051">
        <ele>1345.02</ele>
        <time>2018-10-04T12:59:53Z</time>
      </trkpt>
      <trkpt lat="44.48036" lon="5.61052">
        <ele>1345.98</ele>
        <time>2018-10-04T13:00:10Z</time>
      </trkpt>
      <trkpt lat="44.48049" lon="5.61056">
        <ele>1346.46</ele>
        <time>2018-10-04T13:00:25Z</time>
      </trkpt>
      <trkpt lat="44.48065" lon="5.61061">
        <ele>1347.43</ele>
        <time>2018-10-04T13:00:43Z</time>
      </trkpt>
      <trkpt lat="44.48077" lon="5.6107">
        <ele>1348.39</ele>
        <time>2018-10-04T13:00:55Z</time>
      </trkpt>
      <trkpt lat="44.48089" lon="5.6108">
        <ele>1349.83</ele>
        <time>2018-10-04T13:01:10Z</time>
      </trkpt>
      <trkpt lat="44.48091" lon="5.61082">
        <ele>1349.83</ele>
        <time>2018-10-04T13:01:12Z</time>
      </trkpt>
      <trkpt lat="44.48103" lon="5.6109">
        <ele>1351.27</ele>
        <time>2018-10-04T13:01:27Z</time>
      </trkpt>
      <trkpt lat="44.48113" lon="5.61098">
        <ele>1352.23</ele>
        <time>2018-10-04T13:01:42Z</time>
      </trkpt>
      <trkpt lat="44.48126" lon="5.61104">
        <ele>1353.19</ele>
        <time>2018-10-04T13:01:58Z</time>
      </trkpt>
      <trkpt lat="44.48135" lon="5.61107">
        <ele>1354.15</ele>
        <time>2018-10-04T13:02:08Z</time>
      </trkpt>
      <trkpt lat="44.48136" lon="5.61106">
        <ele>1354.15</ele>
        <time>2018-10-04T13:02:10Z</time>
      </trkpt>
      <trkpt lat="44.48138" lon="5.61108">
        <ele>1354.15</ele>
        <time>2018-10-04T13:02:12Z</time>
      </trkpt>
      <trkpt lat="44.48147" lon="5.61111">
        <ele>1355.12</ele>
        <time>2018-10-04T13:02:22Z</time>
      </trkpt>
      <trkpt lat="44.48161" lon="5.61119">
        <ele>1356.08</ele>
        <time>2018-10-04T13:02:40Z</time>
      </trkpt>
      <trkpt lat="44.48173" lon="5.61123">
        <ele>1357.52</ele>
        <time>2018-10-04T13:02:54Z</time>
      </trkpt>
      <trkpt lat="44.48184" lon="5.61129">
        <ele>1358.48</ele>
        <time>2018-10-04T13:03:07Z</time>
      </trkpt>
      <trkpt lat="44.48195" lon="5.61135">
        <ele>1359.44</ele>
        <time>2018-10-04T13:03:20Z</time>
      </trkpt>
      <trkpt lat="44.48209" lon="5.61145">
        <ele>1359.92</ele>
        <time>2018-10-04T13:03:35Z</time>
      </trkpt>
      <trkpt lat="44.48215" lon="5.6115">
        <ele>1359.92</ele>
        <time>2018-10-04T13:03:52Z</time>
      </trkpt>
      <trkpt lat="44.48216" lon="5.61148">
        <ele>1359.92</ele>
        <time>2018-10-04T13:04:12Z</time>
      </trkpt>
      <trkpt lat="44.48216" lon="5.61152">
        <ele>1359.92</ele>
        <time>2018-10-04T13:04:30Z</time>
      </trkpt>
      <trkpt lat="44.48231" lon="5.61169">
        <ele>1360.88</ele>
        <time>2018-10-04T13:04:47Z</time>
      </trkpt>
      <trkpt lat="44.48234" lon="5.6117">
        <ele>1361.36</ele>
        <time>2018-10-04T13:05:00Z</time>
      </trkpt>
      <trkpt lat="44.48237" lon="5.61177">
        <ele>1361.36</ele>
        <time>2018-10-04T13:05:11Z</time>
      </trkpt>
      <trkpt lat="44.48243" lon="5.61195">
        <ele>1363.29</ele>
        <time>2018-10-04T13:05:25Z</time>
      </trkpt>
      <trkpt lat="44.48244" lon="5.6121">
        <ele>1363.77</ele>
        <time>2018-10-04T13:05:37Z</time>
      </trkpt>
      <trkpt lat="44.48245" lon="5.61216">
        <ele>1364.25</ele>
        <time>2018-10-04T13:05:41Z</time>
      </trkpt>
      <trkpt lat="44.48249" lon="5.61224">
        <ele>1364.25</ele>
        <time>2018-10-04T13:05:50Z</time>
      </trkpt>
      <trkpt lat="44.48264" lon="5.61229">
        <ele>1365.69</ele>
        <time>2018-10-04T13:06:05Z</time>
      </trkpt>
      <trkpt lat="44.48281" lon="5.61231">
        <ele>1366.65</ele>
        <time>2018-10-04T13:06:21Z</time>
      </trkpt>
      <trkpt lat="44.48297" lon="5.61238">
        <ele>1367.61</ele>
        <time>2018-10-04T13:06:37Z</time>
      </trkpt>
      <trkpt lat="44.48318" lon="5.61252">
        <ele>1369.05</ele>
        <time>2018-10-04T13:06:56Z</time>
      </trkpt>
      <trkpt lat="44.48336" lon="5.61264">
        <ele>1369.05</ele>
        <time>2018-10-04T13:07:14Z</time>
      </trkpt>
      <trkpt lat="44.4835" lon="5.61275">
        <ele>1368.57</ele>
        <time>2018-10-04T13:07:30Z</time>
      </trkpt>
      <trkpt lat="44.48364" lon="5.61291">
        <ele>1368.57</ele>
        <time>2018-10-04T13:07:46Z</time>
      </trkpt>
      <trkpt lat="44.48382" lon="5.61302">
        <ele>1368.09</ele>
        <time>2018-10-04T13:08:06Z</time>
      </trkpt>
      <trkpt lat="44.48405" lon="5.61297">
        <ele>1368.09</ele>
        <time>2018-10-04T13:08:25Z</time>
      </trkpt>
      <trkpt lat="44.4842" lon="5.61293">
        <ele>1368.09</ele>
        <time>2018-10-04T13:08:40Z</time>
      </trkpt>
      <trkpt lat="44.48439" lon="5.61288">
        <ele>1368.09</ele>
        <time>2018-10-04T13:08:59Z</time>
      </trkpt>
      <trkpt lat="44.48457" lon="5.61283">
        <ele>1368.09</ele>
        <time>2018-10-04T13:09:17Z</time>
      </trkpt>
      <trkpt lat="44.4847" lon="5.61284">
        <ele>1368.09</ele>
        <time>2018-10-04T13:09:30Z</time>
      </trkpt>
      <trkpt lat="44.48487" lon="5.61288">
        <ele>1368.09</ele>
        <time>2018-10-04T13:09:47Z</time>
      </trkpt>
      <trkpt lat="44.48504" lon="5.61299">
        <ele>1367.13</ele>
        <time>2018-10-04T13:10:05Z</time>
      </trkpt>
      <trkpt lat="44.48517" lon="5.61312">
        <ele>1365.69</ele>
        <time>2018-10-04T13:10:22Z</time>
      </trkpt>
      <trkpt lat="44.48519" lon="5.61316">
        <ele>1365.21</ele>
        <time>2018-10-04T13:10:26Z</time>
      </trkpt>
      <trkpt lat="44.4853" lon="5.61337">
        <ele>1363.77</ele>
        <time>2018-10-04T13:10:44Z</time>
      </trkpt>
      <trkpt lat="44.48538" lon="5.61356">
        <ele>1362.33</ele>
        <time>2018-10-04T13:11:00Z</time>
      </trkpt>
      <trkpt lat="44.48549" lon="5.61377">
        <ele>1360.4</ele>
        <time>2018-10-04T13:11:18Z</time>
      </trkpt>
      <trkpt lat="44.48558" lon="5.61396">
        <ele>1359.92</ele>
        <time>2018-10-04T13:11:34Z</time>
      </trkpt>
      <trkpt lat="44.48568" lon="5.61413">
        <ele>1357.04</ele>
        <time>2018-10-04T13:11:50Z</time>
      </trkpt>
      <trkpt lat="44.48579" lon="5.6143">
        <ele>1355.12</ele>
        <time>2018-10-04T13:12:07Z</time>
      </trkpt>
      <trkpt lat="44.4859" lon="5.61449">
        <ele>1353.19</ele>
        <time>2018-10-04T13:12:25Z</time>
      </trkpt>
      <trkpt lat="44.486" lon="5.61464">
        <ele>1351.75</ele>
        <time>2018-10-04T13:12:40Z</time>
      </trkpt>
      <trkpt lat="44.48602" lon="5.61468">
        <ele>1350.79</ele>
        <time>2018-10-04T13:12:43Z</time>
      </trkpt>
      <trkpt lat="44.48612" lon="5.61492">
        <ele>1348.87</ele>
        <time>2018-10-04T13:13:02Z</time>
      </trkpt>
      <trkpt lat="44.48617" lon="5.61505">
        <ele>1347.91</ele>
        <time>2018-10-04T13:13:15Z</time>
      </trkpt>
      <trkpt lat="44.48626" lon="5.61522">
        <ele>1347.91</ele>
        <time>2018-10-04T13:13:31Z</time>
      </trkpt>
      <trkpt lat="44.48627" lon="5.61524">
        <ele>1347.91</ele>
        <time>2018-10-04T13:13:32Z</time>
      </trkpt>
      <trkpt lat="44.48629" lon="5.6153">
        <ele>1347.91</ele>
        <time>2018-10-04T13:13:36Z</time>
      </trkpt>
      <trkpt lat="44.48635" lon="5.61542">
        <ele>1347.43</ele>
        <time>2018-10-04T13:13:46Z</time>
      </trkpt>
      <trkpt lat="44.48637" lon="5.61561">
        <ele>1348.39</ele>
        <time>2018-10-04T13:14:01Z</time>
      </trkpt>
      <trkpt lat="44.48642" lon="5.61585">
        <ele>1350.31</ele>
        <time>2018-10-04T13:14:19Z</time>
      </trkpt>
      <trkpt lat="44.48645" lon="5.6161">
        <ele>1351.27</ele>
        <time>2018-10-04T13:14:39Z</time>
      </trkpt>
      <trkpt lat="44.48648" lon="5.61633">
        <ele>1353.19</ele>
        <time>2018-10-04T13:14:57Z</time>
      </trkpt>
      <trkpt lat="44.48652" lon="5.61653">
        <ele>1354.63</ele>
        <time>2018-10-04T13:15:13Z</time>
      </trkpt>
      <trkpt lat="44.48655" lon="5.6167">
        <ele>1355.12</ele>
        <time>2018-10-04T13:15:27Z</time>
      </trkpt>
      <trkpt lat="44.48659" lon="5.6169">
        <ele>1356.08</ele>
        <time>2018-10-04T13:15:43Z</time>
      </trkpt>
      <trkpt lat="44.48661" lon="5.61708">
        <ele>1357.52</ele>
        <time>2018-10-04T13:15:56Z</time>
      </trkpt>
      <trkpt lat="44.48662" lon="5.61713">
        <ele>1358</ele>
        <time>2018-10-04T13:16:00Z</time>
      </trkpt>
      <trkpt lat="44.48663" lon="5.6173">
        <ele>1359.44</ele>
        <time>2018-10-04T13:16:15Z</time>
      </trkpt>
      <trkpt lat="44.48662" lon="5.61746">
        <ele>1360.4</ele>
        <time>2018-10-04T13:16:29Z</time>
      </trkpt>
      <trkpt lat="44.48664" lon="5.61765">
        <ele>1361.84</ele>
        <time>2018-10-04T13:16:43Z</time>
      </trkpt>
      <trkpt lat="44.48664" lon="5.61766">
        <ele>1361.84</ele>
        <time>2018-10-04T13:16:44Z</time>
      </trkpt>
      <trkpt lat="44.48667" lon="5.61783">
        <ele>1362.81</ele>
        <time>2018-10-04T13:16:57Z</time>
      </trkpt>
      <trkpt lat="44.48669" lon="5.61802">
        <ele>1363.77</ele>
        <time>2018-10-04T13:17:12Z</time>
      </trkpt>
      <trkpt lat="44.48669" lon="5.61808">
        <ele>1364.25</ele>
        <time>2018-10-04T13:17:16Z</time>
      </trkpt>
      <trkpt lat="44.4867" lon="5.6181">
        <ele>1364.25</ele>
        <time>2018-10-04T13:17:18Z</time>
      </trkpt>
      <trkpt lat="44.48671" lon="5.61827">
        <ele>1365.21</ele>
        <time>2018-10-04T13:17:32Z</time>
      </trkpt>
      <trkpt lat="44.48672" lon="5.61845">
        <ele>1366.17</ele>
        <time>2018-10-04T13:17:46Z</time>
      </trkpt>
      <trkpt lat="44.48673" lon="5.61861">
        <ele>1367.13</ele>
        <time>2018-10-04T13:17:59Z</time>
      </trkpt>
      <trkpt lat="44.48674" lon="5.61877">
        <ele>1367.13</ele>
        <time>2018-10-04T13:18:13Z</time>
      </trkpt>
      <trkpt lat="44.48678" lon="5.61895">
        <ele>1369.05</ele>
        <time>2018-10-04T13:18:25Z</time>
      </trkpt>
      <trkpt lat="44.48682" lon="5.6191">
        <ele>1369.54</ele>
        <time>2018-10-04T13:18:39Z</time>
      </trkpt>
      <trkpt lat="44.48688" lon="5.61926">
        <ele>1370.98</ele>
        <time>2018-10-04T13:18:56Z</time>
      </trkpt>
      <trkpt lat="44.48693" lon="5.61939">
        <ele>1371.94</ele>
        <time>2018-10-04T13:19:09Z</time>
      </trkpt>
      <trkpt lat="44.48699" lon="5.61954">
        <ele>1372.9</ele>
        <time>2018-10-04T13:19:22Z</time>
      </trkpt>
      <trkpt lat="44.48699" lon="5.61955">
        <ele>1372.9</ele>
        <time>2018-10-04T13:19:23Z</time>
      </trkpt>
      <trkpt lat="44.48709" lon="5.61973">
        <ele>1373.86</ele>
        <time>2018-10-04T13:19:39Z</time>
      </trkpt>
      <trkpt lat="44.48719" lon="5.6199">
        <ele>1374.82</ele>
        <time>2018-10-04T13:19:55Z</time>
      </trkpt>
      <trkpt lat="44.48729" lon="5.62001">
        <ele>1376.26</ele>
        <time>2018-10-04T13:20:10Z</time>
      </trkpt>
      <trkpt lat="44.48737" lon="5.6201">
        <ele>1377.23</ele>
        <time>2018-10-04T13:20:23Z</time>
      </trkpt>
      <trkpt lat="44.48748" lon="5.62024">
        <ele>1378.67</ele>
        <time>2018-10-04T13:20:38Z</time>
      </trkpt>
      <trkpt lat="44.48758" lon="5.62037">
        <ele>1379.15</ele>
        <time>2018-10-04T13:20:53Z</time>
      </trkpt>
      <trkpt lat="44.48774" lon="5.62051">
        <ele>1380.59</ele>
        <time>2018-10-04T13:21:11Z</time>
      </trkpt>
      <trkpt lat="44.48784" lon="5.62058">
        <ele>1381.55</ele>
        <time>2018-10-04T13:21:25Z</time>
      </trkpt>
      <trkpt lat="44.48795" lon="5.62063">
        <ele>1382.99</ele>
        <time>2018-10-04T13:21:40Z</time>
      </trkpt>
      <trkpt lat="44.48803" lon="5.62056">
        <ele>1383.47</ele>
        <time>2018-10-04T13:21:55Z</time>
      </trkpt>
      <trkpt lat="44.48818" lon="5.62046">
        <ele>1384.92</ele>
        <time>2018-10-04T13:22:12Z</time>
      </trkpt>
      <trkpt lat="44.4882" lon="5.62044">
        <ele>1384.92</ele>
        <time>2018-10-04T13:22:14Z</time>
      </trkpt>
      <trkpt lat="44.48831" lon="5.62036">
        <ele>1385.4</ele>
        <time>2018-10-04T13:22:26Z</time>
      </trkpt>
      <trkpt lat="44.48847" lon="5.62043">
        <ele>1385.88</ele>
        <time>2018-10-04T13:22:43Z</time>
      </trkpt>
      <trkpt lat="44.4885" lon="5.62046">
        <ele>1385.88</ele>
        <time>2018-10-04T13:22:46Z</time>
      </trkpt>
      <trkpt lat="44.48855" lon="5.62066">
        <ele>1385.88</ele>
        <time>2018-10-04T13:23:03Z</time>
      </trkpt>
      <trkpt lat="44.48853" lon="5.62075">
        <ele>1385.4</ele>
        <time>2018-10-04T13:23:11Z</time>
      </trkpt>
      <trkpt lat="44.48849" lon="5.62098">
        <ele>1383.47</ele>
        <time>2018-10-04T13:23:30Z</time>
      </trkpt>
      <trkpt lat="44.48845" lon="5.6212">
        <ele>1381.55</ele>
        <time>2018-10-04T13:23:47Z</time>
      </trkpt>
      <trkpt lat="44.48846" lon="5.62133">
        <ele>1380.11</ele>
        <time>2018-10-04T13:23:56Z</time>
      </trkpt>
      <trkpt lat="44.48842" lon="5.62158">
        <ele>1378.67</ele>
        <time>2018-10-04T13:24:14Z</time>
      </trkpt>
      <trkpt lat="44.48836" lon="5.62177">
        <ele>1377.71</ele>
        <time>2018-10-04T13:24:29Z</time>
      </trkpt>
      <trkpt lat="44.48834" lon="5.62198">
        <ele>1375.3</ele>
        <time>2018-10-04T13:24:47Z</time>
      </trkpt>
      <trkpt lat="44.48835" lon="5.62217">
        <ele>1373.86</ele>
        <time>2018-10-04T13:25:03Z</time>
      </trkpt>
      <trkpt lat="44.48837" lon="5.62239">
        <ele>1371.46</ele>
        <time>2018-10-04T13:25:20Z</time>
      </trkpt>
      <trkpt lat="44.48841" lon="5.6225">
        <ele>1370.5</ele>
        <time>2018-10-04T13:25:30Z</time>
      </trkpt>
      <trkpt lat="44.48853" lon="5.62264">
        <ele>1368.57</ele>
        <time>2018-10-04T13:25:48Z</time>
      </trkpt>
      <trkpt lat="44.48866" lon="5.62269">
        <ele>1367.13</ele>
        <time>2018-10-04T13:26:01Z</time>
      </trkpt>
      <trkpt lat="44.48871" lon="5.62263">
        <ele>1366.17</ele>
        <time>2018-10-04T13:26:07Z</time>
      </trkpt>
      <trkpt lat="44.48872" lon="5.62256">
        <ele>1366.17</ele>
        <time>2018-10-04T13:26:11Z</time>
      </trkpt>
      <trkpt lat="44.48869" lon="5.6223">
        <ele>1363.77</ele>
        <time>2018-10-04T13:26:31Z</time>
      </trkpt>
      <trkpt lat="44.48869" lon="5.62217">
        <ele>1362.33</ele>
        <time>2018-10-04T13:26:42Z</time>
      </trkpt>
      <trkpt lat="44.48874" lon="5.62203">
        <ele>1360.88</ele>
        <time>2018-10-04T13:26:59Z</time>
      </trkpt>
      <trkpt lat="44.48884" lon="5.62208">
        <ele>1359.92</ele>
        <time>2018-10-04T13:27:13Z</time>
      </trkpt>
      <trkpt lat="44.48895" lon="5.62224">
        <ele>1357.04</ele>
        <time>2018-10-04T13:27:31Z</time>
      </trkpt>
      <trkpt lat="44.48908" lon="5.62235">
        <ele>1355.12</ele>
        <time>2018-10-04T13:27:49Z</time>
      </trkpt>
      <trkpt lat="44.48917" lon="5.6225">
        <ele>1353.67</ele>
        <time>2018-10-04T13:28:04Z</time>
      </trkpt>
      <trkpt lat="44.48924" lon="5.62272">
        <ele>1352.71</ele>
        <time>2018-10-04T13:28:21Z</time>
      </trkpt>
      <trkpt lat="44.48936" lon="5.62292">
        <ele>1352.71</ele>
        <time>2018-10-04T13:28:38Z</time>
      </trkpt>
      <trkpt lat="44.48948" lon="5.6231">
        <ele>1352.23</ele>
        <time>2018-10-04T13:28:54Z</time>
      </trkpt>
      <trkpt lat="44.48956" lon="5.62326">
        <ele>1351.27</ele>
        <time>2018-10-04T13:29:09Z</time>
      </trkpt>
      <trkpt lat="44.4897" lon="5.62338">
        <ele>1348.39</ele>
        <time>2018-10-04T13:29:27Z</time>
      </trkpt>
      <trkpt lat="44.48971" lon="5.62339">
        <ele>1348.39</ele>
        <time>2018-10-04T13:29:29Z</time>
      </trkpt>
      <trkpt lat="44.48974" lon="5.6234">
        <ele>1347.91</ele>
        <time>2018-10-04T13:29:32Z</time>
      </trkpt>
      <trkpt lat="44.48989" lon="5.6235">
        <ele>1345.98</ele>
        <time>2018-10-04T13:29:48Z</time>
      </trkpt>
      <trkpt lat="44.48998" lon="5.62358">
        <ele>1344.06</ele>
        <time>2018-10-04T13:30:00Z</time>
      </trkpt>
      <trkpt lat="44.4901" lon="5.6237">
        <ele>1341.66</ele>
        <time>2018-10-04T13:30:17Z</time>
      </trkpt>
      <trkpt lat="44.49026" lon="5.62377">
        <ele>1338.77</ele>
        <time>2018-10-04T13:30:36Z</time>
      </trkpt>
      <trkpt lat="44.49042" lon="5.62377">
        <ele>1336.37</ele>
        <time>2018-10-04T13:30:53Z</time>
      </trkpt>
      <trkpt lat="44.49057" lon="5.62377">
        <ele>1334.45</ele>
        <time>2018-10-04T13:31:09Z</time>
      </trkpt>
      <trkpt lat="44.49075" lon="5.6238">
        <ele>1333.01</ele>
        <time>2018-10-04T13:31:27Z</time>
      </trkpt>
      <trkpt lat="44.4909" lon="5.62385">
        <ele>1333.49</ele>
        <time>2018-10-04T13:31:43Z</time>
      </trkpt>
      <trkpt lat="44.49108" lon="5.62394">
        <ele>1332.04</ele>
        <time>2018-10-04T13:32:02Z</time>
      </trkpt>
      <trkpt lat="44.49126" lon="5.62403">
        <ele>1330.6</ele>
        <time>2018-10-04T13:32:20Z</time>
      </trkpt>
      <trkpt lat="44.49142" lon="5.62413">
        <ele>1329.64</ele>
        <time>2018-10-04T13:32:36Z</time>
      </trkpt>
      <trkpt lat="44.49144" lon="5.62418">
        <ele>1329.64</ele>
        <time>2018-10-04T13:32:49Z</time>
      </trkpt>
      <trkpt lat="44.49142" lon="5.62415">
        <ele>1329.64</ele>
        <time>2018-10-04T13:33:08Z</time>
      </trkpt>
      <trkpt lat="44.4914" lon="5.62413">
        <ele>1328.68</ele>
        <time>2018-10-04T13:33:23Z</time>
      </trkpt>
      <trkpt lat="44.49141" lon="5.62414">
        <ele>1328.68</ele>
        <time>2018-10-04T13:34:00Z</time>
      </trkpt>
      <trkpt lat="44.49141" lon="5.62413">
        <ele>1328.68</ele>
        <time>2018-10-04T13:34:45Z</time>
      </trkpt>
      <trkpt lat="44.49139" lon="5.6241">
        <ele>1328.68</ele>
        <time>2018-10-04T13:35:06Z</time>
      </trkpt>
      <trkpt lat="44.49138" lon="5.62408">
        <ele>1328.68</ele>
        <time>2018-10-04T13:35:13Z</time>
      </trkpt>
      <trkpt lat="44.49145" lon="5.62416">
        <ele>1329.64</ele>
        <time>2018-10-04T13:35:25Z</time>
      </trkpt>
      <trkpt lat="44.49149" lon="5.62419">
        <ele>1329.16</ele>
        <time>2018-10-04T13:35:40Z</time>
      </trkpt>
      <trkpt lat="44.49147" lon="5.62418">
        <ele>1329.16</ele>
        <time>2018-10-04T13:36:03Z</time>
      </trkpt>
      <trkpt lat="44.49147" lon="5.62422">
        <ele>1329.16</ele>
        <time>2018-10-04T13:36:22Z</time>
      </trkpt>
      <trkpt lat="44.49147" lon="5.62421">
        <ele>1329.16</ele>
        <time>2018-10-04T13:36:43Z</time>
      </trkpt>
      <trkpt lat="44.49147" lon="5.6242">
        <ele>1329.16</ele>
        <time>2018-10-04T13:37:13Z</time>
      </trkpt>
      <trkpt lat="44.49147" lon="5.62419">
        <ele>1329.16</ele>
        <time>2018-10-04T13:37:43Z</time>
      </trkpt>
      <trkpt lat="44.49147" lon="5.62419">
        <ele>1329.16</ele>
        <time>2018-10-04T13:38:08Z</time>
      </trkpt>
      <trkpt lat="44.49147" lon="5.62422">
        <ele>1329.16</ele>
        <time>2018-10-04T13:38:32Z</time>
      </trkpt>
      <trkpt lat="44.49147" lon="5.62425">
        <ele>1329.64</ele>
        <time>2018-10-04T13:39:01Z</time>
      </trkpt>
      <trkpt lat="44.49147" lon="5.62422">
        <ele>1329.64</ele>
        <time>2018-10-04T13:39:27Z</time>
      </trkpt>
      <trkpt lat="44.49145" lon="5.62423">
        <ele>1329.64</ele>
        <time>2018-10-04T13:39:50Z</time>
      </trkpt>
      <trkpt lat="44.49146" lon="5.62421">
        <ele>1329.64</ele>
        <time>2018-10-04T13:40:22Z</time>
      </trkpt>
      <trkpt lat="44.49145" lon="5.62422">
        <ele>1329.64</ele>
        <time>2018-10-04T13:40:47Z</time>
      </trkpt>
      <trkpt lat="44.49144" lon="5.62424">
        <ele>1329.64</ele>
        <time>2018-10-04T13:41:07Z</time>
      </trkpt>
      <trkpt lat="44.49139" lon="5.62425">
        <ele>1328.2</ele>
        <time>2018-10-04T13:41:32Z</time>
      </trkpt>
      <trkpt lat="44.49136" lon="5.62425">
        <ele>1328.2</ele>
        <time>2018-10-04T13:41:35Z</time>
      </trkpt>
      <trkpt lat="44.49118" lon="5.62421">
        <ele>1326.28</ele>
        <time>2018-10-04T13:41:55Z</time>
      </trkpt>
      <trkpt lat="44.49101" lon="5.62422">
        <ele>1323.87</ele>
        <time>2018-10-04T13:42:11Z</time>
      </trkpt>
      <trkpt lat="44.4908" lon="5.62427">
        <ele>1321.95</ele>
        <time>2018-10-04T13:42:30Z</time>
      </trkpt>
      <trkpt lat="44.49063" lon="5.62431">
        <ele>1320.99</ele>
        <time>2018-10-04T13:42:46Z</time>
      </trkpt>
      <trkpt lat="44.49045" lon="5.62438">
        <ele>1319.55</ele>
        <time>2018-10-04T13:43:03Z</time>
      </trkpt>
      <trkpt lat="44.4903" lon="5.62446">
        <ele>1316.66</ele>
        <time>2018-10-04T13:43:19Z</time>
      </trkpt>
      <trkpt lat="44.49029" lon="5.62448">
        <ele>1316.18</ele>
        <time>2018-10-04T13:43:21Z</time>
      </trkpt>
      <trkpt lat="44.4903" lon="5.62457">
        <ele>1314.74</ele>
        <time>2018-10-04T13:43:29Z</time>
      </trkpt>
      <trkpt lat="44.49045" lon="5.62458">
        <ele>1312.82</ele>
        <time>2018-10-04T13:43:44Z</time>
      </trkpt>
      <trkpt lat="44.49059" lon="5.6246">
        <ele>1310.9</ele>
        <time>2018-10-04T13:43:59Z</time>
      </trkpt>
      <trkpt lat="44.49068" lon="5.62463">
        <ele>1309.93</ele>
        <time>2018-10-04T13:44:10Z</time>
      </trkpt>
      <trkpt lat="44.49084" lon="5.62466">
        <ele>1307.53</ele>
        <time>2018-10-04T13:44:28Z</time>
      </trkpt>
      <trkpt lat="44.49088" lon="5.62466">
        <ele>1306.57</ele>
        <time>2018-10-04T13:44:32Z</time>
      </trkpt>
      <trkpt lat="44.49099" lon="5.62474">
        <ele>1304.65</ele>
        <time>2018-10-04T13:44:48Z</time>
      </trkpt>
      <trkpt lat="44.4911" lon="5.62486">
        <ele>1302.24</ele>
        <time>2018-10-04T13:45:05Z</time>
      </trkpt>
      <trkpt lat="44.49109" lon="5.62497">
        <ele>1299.36</ele>
        <time>2018-10-04T13:45:19Z</time>
      </trkpt>
      <trkpt lat="44.49097" lon="5.62498">
        <ele>1296.96</ele>
        <time>2018-10-04T13:45:34Z</time>
      </trkpt>
      <trkpt lat="44.4909" lon="5.62499">
        <ele>1295.99</ele>
        <time>2018-10-04T13:45:41Z</time>
      </trkpt>
      <trkpt lat="44.49085" lon="5.62501">
        <ele>1295.03</ele>
        <time>2018-10-04T13:45:46Z</time>
      </trkpt>
      <trkpt lat="44.49071" lon="5.62506">
        <ele>1293.11</ele>
        <time>2018-10-04T13:46:02Z</time>
      </trkpt>
      <trkpt lat="44.49059" lon="5.62513">
        <ele>1290.71</ele>
        <time>2018-10-04T13:46:18Z</time>
      </trkpt>
      <trkpt lat="44.49049" lon="5.62526">
        <ele>1288.78</ele>
        <time>2018-10-04T13:46:35Z</time>
      </trkpt>
      <trkpt lat="44.49046" lon="5.62535">
        <ele>1288.3</ele>
        <time>2018-10-04T13:46:42Z</time>
      </trkpt>
      <trkpt lat="44.49054" lon="5.62559">
        <ele>1286.86</ele>
        <time>2018-10-04T13:47:01Z</time>
      </trkpt>
      <trkpt lat="44.49055" lon="5.62561">
        <ele>1286.86</ele>
        <time>2018-10-04T13:47:03Z</time>
      </trkpt>
      <trkpt lat="44.4906" lon="5.62572">
        <ele>1285.42</ele>
        <time>2018-10-04T13:47:16Z</time>
      </trkpt>
      <trkpt lat="44.49061" lon="5.6258">
        <ele>1283.98</ele>
        <time>2018-10-04T13:47:24Z</time>
      </trkpt>
      <trkpt lat="44.4906" lon="5.626">
        <ele>1282.06</ele>
        <time>2018-10-04T13:47:41Z</time>
      </trkpt>
      <trkpt lat="44.49057" lon="5.62617">
        <ele>1281.09</ele>
        <time>2018-10-04T13:47:55Z</time>
      </trkpt>
      <trkpt lat="44.49059" lon="5.6263">
        <ele>1278.69</ele>
        <time>2018-10-04T13:48:08Z</time>
      </trkpt>
      <trkpt lat="44.49062" lon="5.62642">
        <ele>1277.25</ele>
        <time>2018-10-04T13:48:20Z</time>
      </trkpt>
      <trkpt lat="44.49064" lon="5.62658">
        <ele>1274.85</ele>
        <time>2018-10-04T13:48:34Z</time>
      </trkpt>
      <trkpt lat="44.49064" lon="5.62676">
        <ele>1272.92</ele>
        <time>2018-10-04T13:48:48Z</time>
      </trkpt>
      <trkpt lat="44.49069" lon="5.62691">
        <ele>1270.04</ele>
        <time>2018-10-04T13:49:04Z</time>
      </trkpt>
      <trkpt lat="44.49072" lon="5.62705">
        <ele>1267.16</ele>
        <time>2018-10-04T13:49:19Z</time>
      </trkpt>
      <trkpt lat="44.49076" lon="5.62718">
        <ele>1264.27</ele>
        <time>2018-10-04T13:49:34Z</time>
      </trkpt>
      <trkpt lat="44.49088" lon="5.62724">
        <ele>1262.35</ele>
        <time>2018-10-04T13:49:52Z</time>
      </trkpt>
      <trkpt lat="44.49096" lon="5.62721">
        <ele>1259.46</ele>
        <time>2018-10-04T13:50:04Z</time>
      </trkpt>
      <trkpt lat="44.491" lon="5.62716">
        <ele>1258.5</ele>
        <time>2018-10-04T13:50:11Z</time>
      </trkpt>
      <trkpt lat="44.4911" lon="5.6271">
        <ele>1256.1</ele>
        <time>2018-10-04T13:50:25Z</time>
      </trkpt>
      <trkpt lat="44.49123" lon="5.62711">
        <ele>1253.7</ele>
        <time>2018-10-04T13:50:41Z</time>
      </trkpt>
      <trkpt lat="44.49132" lon="5.62722">
        <ele>1251.77</ele>
        <time>2018-10-04T13:50:55Z</time>
      </trkpt>
      <trkpt lat="44.49141" lon="5.62728">
        <ele>1248.89</ele>
        <time>2018-10-04T13:51:10Z</time>
      </trkpt>
      <trkpt lat="44.49153" lon="5.62736">
        <ele>1246.97</ele>
        <time>2018-10-04T13:51:26Z</time>
      </trkpt>
      <trkpt lat="44.49167" lon="5.62746">
        <ele>1244.56</ele>
        <time>2018-10-04T13:51:43Z</time>
      </trkpt>
      <trkpt lat="44.49174" lon="5.62765">
        <ele>1243.6</ele>
        <time>2018-10-04T13:52:00Z</time>
      </trkpt>
      <trkpt lat="44.49179" lon="5.62775">
        <ele>1241.68</ele>
        <time>2018-10-04T13:52:14Z</time>
      </trkpt>
      <trkpt lat="44.49186" lon="5.62784">
        <ele>1239.76</ele>
        <time>2018-10-04T13:52:28Z</time>
      </trkpt>
      <trkpt lat="44.49193" lon="5.62791">
        <ele>1237.83</ele>
        <time>2018-10-04T13:52:41Z</time>
      </trkpt>
      <trkpt lat="44.49195" lon="5.62803">
        <ele>1235.91</ele>
        <time>2018-10-04T13:52:53Z</time>
      </trkpt>
      <trkpt lat="44.49191" lon="5.62816">
        <ele>1233.99</ele>
        <time>2018-10-04T13:53:07Z</time>
      </trkpt>
      <trkpt lat="44.49181" lon="5.62834">
        <ele>1231.59</ele>
        <time>2018-10-04T13:53:27Z</time>
      </trkpt>
      <trkpt lat="44.49179" lon="5.6285">
        <ele>1229.66</ele>
        <time>2018-10-04T13:53:42Z</time>
      </trkpt>
      <trkpt lat="44.49181" lon="5.62859">
        <ele>1228.7</ele>
        <time>2018-10-04T13:53:50Z</time>
      </trkpt>
      <trkpt lat="44.49182" lon="5.62861">
        <ele>1228.22</ele>
        <time>2018-10-04T13:53:52Z</time>
      </trkpt>
      <trkpt lat="44.49195" lon="5.62869">
        <ele>1227.74</ele>
        <time>2018-10-04T13:54:08Z</time>
      </trkpt>
      <trkpt lat="44.49211" lon="5.62876">
        <ele>1226.78</ele>
        <time>2018-10-04T13:54:25Z</time>
      </trkpt>
      <trkpt lat="44.49225" lon="5.62884">
        <ele>1226.3</ele>
        <time>2018-10-04T13:54:41Z</time>
      </trkpt>
      <trkpt lat="44.49242" lon="5.62891">
        <ele>1224.86</ele>
        <time>2018-10-04T13:54:59Z</time>
      </trkpt>
      <trkpt lat="44.49258" lon="5.62907">
        <ele>1223.42</ele>
        <time>2018-10-04T13:55:18Z</time>
      </trkpt>
      <trkpt lat="44.49273" lon="5.62923">
        <ele>1223.9</ele>
        <time>2018-10-04T13:55:36Z</time>
      </trkpt>
      <trkpt lat="44.49288" lon="5.62932">
        <ele>1223.9</ele>
        <time>2018-10-04T13:55:52Z</time>
      </trkpt>
      <trkpt lat="44.493" lon="5.62946">
        <ele>1224.86</ele>
        <time>2018-10-04T13:56:07Z</time>
      </trkpt>
      <trkpt lat="44.49313" lon="5.62961">
        <ele>1224.86</ele>
        <time>2018-10-04T13:56:24Z</time>
      </trkpt>
      <trkpt lat="44.49327" lon="5.62978">
        <ele>1223.9</ele>
        <time>2018-10-04T13:56:40Z</time>
      </trkpt>
      <trkpt lat="44.49337" lon="5.62994">
        <ele>1223.42</ele>
        <time>2018-10-04T13:56:55Z</time>
      </trkpt>
      <trkpt lat="44.49345" lon="5.63006">
        <ele>1222.93</ele>
        <time>2018-10-04T13:57:09Z</time>
      </trkpt>
      <trkpt lat="44.49354" lon="5.63013">
        <ele>1222.93</ele>
        <time>2018-10-04T13:57:18Z</time>
      </trkpt>
      <trkpt lat="44.49373" lon="5.6302">
        <ele>1222.93</ele>
        <time>2018-10-04T13:57:36Z</time>
      </trkpt>
      <trkpt lat="44.49392" lon="5.63024">
        <ele>1223.42</ele>
        <time>2018-10-04T13:57:53Z</time>
      </trkpt>
      <trkpt lat="44.49408" lon="5.63037">
        <ele>1223.9</ele>
        <time>2018-10-04T13:58:10Z</time>
      </trkpt>
      <trkpt lat="44.4942" lon="5.63054">
        <ele>1222.93</ele>
        <time>2018-10-04T13:58:25Z</time>
      </trkpt>
      <trkpt lat="44.49429" lon="5.63073">
        <ele>1222.93</ele>
        <time>2018-10-04T13:58:41Z</time>
      </trkpt>
      <trkpt lat="44.49429" lon="5.63075">
        <ele>1222.93</ele>
        <time>2018-10-04T13:58:43Z</time>
      </trkpt>
      <trkpt lat="44.49431" lon="5.6308">
        <ele>1222.45</ele>
        <time>2018-10-04T13:58:47Z</time>
      </trkpt>
      <trkpt lat="44.49438" lon="5.63094">
        <ele>1221.49</ele>
        <time>2018-10-04T13:59:00Z</time>
      </trkpt>
      <trkpt lat="44.49442" lon="5.63115">
        <ele>1220.05</ele>
        <time>2018-10-04T13:59:16Z</time>
      </trkpt>
      <trkpt lat="44.49453" lon="5.63129">
        <ele>1219.09</ele>
        <time>2018-10-04T13:59:31Z</time>
      </trkpt>
      <trkpt lat="44.49465" lon="5.63146">
        <ele>1218.61</ele>
        <time>2018-10-04T13:59:48Z</time>
      </trkpt>
      <trkpt lat="44.49475" lon="5.63157">
        <ele>1218.61</ele>
        <time>2018-10-04T13:59:59Z</time>
      </trkpt>
      <trkpt lat="44.49486" lon="5.63173">
        <ele>1217.65</ele>
        <time>2018-10-04T14:00:15Z</time>
      </trkpt>
      <trkpt lat="44.49497" lon="5.63187">
        <ele>1216.21</ele>
        <time>2018-10-04T14:00:32Z</time>
      </trkpt>
      <trkpt lat="44.49506" lon="5.63201">
        <ele>1215.24</ele>
        <time>2018-10-04T14:00:47Z</time>
      </trkpt>
      <trkpt lat="44.49514" lon="5.63219">
        <ele>1213.32</ele>
        <time>2018-10-04T14:01:03Z</time>
      </trkpt>
      <trkpt lat="44.49519" lon="5.63231">
        <ele>1211.88</ele>
        <time>2018-10-04T14:01:16Z</time>
      </trkpt>
      <trkpt lat="44.49527" lon="5.63243">
        <ele>1209.96</ele>
        <time>2018-10-04T14:01:32Z</time>
      </trkpt>
      <trkpt lat="44.49534" lon="5.63254">
        <ele>1208.03</ele>
        <time>2018-10-04T14:01:45Z</time>
      </trkpt>
      <trkpt lat="44.49542" lon="5.63267">
        <ele>1205.63</ele>
        <time>2018-10-04T14:02:00Z</time>
      </trkpt>
      <trkpt lat="44.49545" lon="5.63279">
        <ele>1204.67</ele>
        <time>2018-10-04T14:02:10Z</time>
      </trkpt>
      <trkpt lat="44.49547" lon="5.63289">
        <ele>1204.19</ele>
        <time>2018-10-04T14:02:17Z</time>
      </trkpt>
      <trkpt lat="44.49547" lon="5.63294">
        <ele>1203.71</ele>
        <time>2018-10-04T14:02:21Z</time>
      </trkpt>
      <trkpt lat="44.49552" lon="5.63316">
        <ele>1201.79</ele>
        <time>2018-10-04T14:02:40Z</time>
      </trkpt>
      <trkpt lat="44.4956" lon="5.63334">
        <ele>1199.86</ele>
        <time>2018-10-04T14:02:57Z</time>
      </trkpt>
      <trkpt lat="44.49562" lon="5.63337">
        <ele>1199.38</ele>
        <time>2018-10-04T14:03:00Z</time>
      </trkpt>
      <trkpt lat="44.49571" lon="5.63345">
        <ele>1197.46</ele>
        <time>2018-10-04T14:03:13Z</time>
      </trkpt>
      <trkpt lat="44.49578" lon="5.63353">
        <ele>1195.54</ele>
        <time>2018-10-04T14:03:24Z</time>
      </trkpt>
      <trkpt lat="44.49585" lon="5.63369">
        <ele>1193.61</ele>
        <time>2018-10-04T14:03:41Z</time>
      </trkpt>
      <trkpt lat="44.49589" lon="5.63386">
        <ele>1191.69</ele>
        <time>2018-10-04T14:03:56Z</time>
      </trkpt>
      <trkpt lat="44.49595" lon="5.63396">
        <ele>1190.25</ele>
        <time>2018-10-04T14:04:07Z</time>
      </trkpt>
      <trkpt lat="44.49601" lon="5.6341">
        <ele>1188.81</ele>
        <time>2018-10-04T14:04:20Z</time>
      </trkpt>
      <trkpt lat="44.49607" lon="5.63427">
        <ele>1186.88</ele>
        <time>2018-10-04T14:04:36Z</time>
      </trkpt>
      <trkpt lat="44.49612" lon="5.63443">
        <ele>1184.48</ele>
        <time>2018-10-04T14:04:52Z</time>
      </trkpt>
      <trkpt lat="44.49614" lon="5.63456">
        <ele>1182.08</ele>
        <time>2018-10-04T14:05:06Z</time>
      </trkpt>
      <trkpt lat="44.49616" lon="5.63472">
        <ele>1180.64</ele>
        <time>2018-10-04T14:05:19Z</time>
      </trkpt>
      <trkpt lat="44.49616" lon="5.63485">
        <ele>1178.23</ele>
        <time>2018-10-04T14:05:32Z</time>
      </trkpt>
      <trkpt lat="44.49619" lon="5.635">
        <ele>1176.31</ele>
        <time>2018-10-04T14:05:45Z</time>
      </trkpt>
      <trkpt lat="44.49624" lon="5.63516">
        <ele>1174.87</ele>
        <time>2018-10-04T14:06:01Z</time>
      </trkpt>
      <trkpt lat="44.49631" lon="5.6353">
        <ele>1172.95</ele>
        <time>2018-10-04T14:06:16Z</time>
      </trkpt>
      <trkpt lat="44.49639" lon="5.63544">
        <ele>1171.98</ele>
        <time>2018-10-04T14:06:30Z</time>
      </trkpt>
      <trkpt lat="44.49647" lon="5.63559">
        <ele>1170.54</ele>
        <time>2018-10-04T14:06:45Z</time>
      </trkpt>
      <trkpt lat="44.49646" lon="5.63576">
        <ele>1168.62</ele>
        <time>2018-10-04T14:06:59Z</time>
      </trkpt>
      <trkpt lat="44.49649" lon="5.63592">
        <ele>1166.22</ele>
        <time>2018-10-04T14:07:13Z</time>
      </trkpt>
      <trkpt lat="44.49652" lon="5.63608">
        <ele>1164.29</ele>
        <time>2018-10-04T14:07:26Z</time>
      </trkpt>
      <trkpt lat="44.49652" lon="5.63612">
        <ele>1163.33</ele>
        <time>2018-10-04T14:07:29Z</time>
      </trkpt>
      <trkpt lat="44.49659" lon="5.63632">
        <ele>1161.41</ele>
        <time>2018-10-04T14:07:46Z</time>
      </trkpt>
      <trkpt lat="44.49669" lon="5.63647">
        <ele>1159.97</ele>
        <time>2018-10-04T14:08:00Z</time>
      </trkpt>
      <trkpt lat="44.49677" lon="5.63661">
        <ele>1157.56</ele>
        <time>2018-10-04T14:08:15Z</time>
      </trkpt>
      <trkpt lat="44.4968" lon="5.63676">
        <ele>1155.64</ele>
        <time>2018-10-04T14:08:29Z</time>
      </trkpt>
      <trkpt lat="44.49685" lon="5.6369">
        <ele>1154.2</ele>
        <time>2018-10-04T14:08:41Z</time>
      </trkpt>
      <trkpt lat="44.49686" lon="5.63705">
        <ele>1152.28</ele>
        <time>2018-10-04T14:08:55Z</time>
      </trkpt>
      <trkpt lat="44.49684" lon="5.63708">
        <ele>1151.8</ele>
        <time>2018-10-04T14:08:58Z</time>
      </trkpt>
      <trkpt lat="44.4968" lon="5.63725">
        <ele>1148.91</ele>
        <time>2018-10-04T14:09:14Z</time>
      </trkpt>
      <trkpt lat="44.49678" lon="5.63745">
        <ele>1146.03</ele>
        <time>2018-10-04T14:09:31Z</time>
      </trkpt>
      <trkpt lat="44.49675" lon="5.63762">
        <ele>1144.59</ele>
        <time>2018-10-04T14:09:45Z</time>
      </trkpt>
      <trkpt lat="44.49669" lon="5.6378">
        <ele>1142.18</ele>
        <time>2018-10-04T14:10:03Z</time>
      </trkpt>
      <trkpt lat="44.49664" lon="5.63796">
        <ele>1139.78</ele>
        <time>2018-10-04T14:10:17Z</time>
      </trkpt>
      <trkpt lat="44.49663" lon="5.63814">
        <ele>1138.34</ele>
        <time>2018-10-04T14:10:31Z</time>
      </trkpt>
      <trkpt lat="44.49662" lon="5.63822">
        <ele>1137.38</ele>
        <time>2018-10-04T14:10:38Z</time>
      </trkpt>
      <trkpt lat="44.49659" lon="5.6384">
        <ele>1134.97</ele>
        <time>2018-10-04T14:10:53Z</time>
      </trkpt>
      <trkpt lat="44.49655" lon="5.63858">
        <ele>1132.09</ele>
        <time>2018-10-04T14:11:08Z</time>
      </trkpt>
      <trkpt lat="44.4965" lon="5.63873">
        <ele>1129.21</ele>
        <time>2018-10-04T14:11:24Z</time>
      </trkpt>
      <trkpt lat="44.49646" lon="5.63887">
        <ele>1126.32</ele>
        <time>2018-10-04T14:11:38Z</time>
      </trkpt>
      <trkpt lat="44.49639" lon="5.63903">
        <ele>1123.44</ele>
        <time>2018-10-04T14:11:54Z</time>
      </trkpt>
      <trkpt lat="44.49636" lon="5.63911">
        <ele>1122</ele>
        <time>2018-10-04T14:12:07Z</time>
      </trkpt>
      <trkpt lat="44.4963" lon="5.63924">
        <ele>1120.07</ele>
        <time>2018-10-04T14:12:20Z</time>
      </trkpt>
      <trkpt lat="44.49624" lon="5.63936">
        <ele>1118.15</ele>
        <time>2018-10-04T14:12:33Z</time>
      </trkpt>
      <trkpt lat="44.49615" lon="5.63953">
        <ele>1116.23</ele>
        <time>2018-10-04T14:12:50Z</time>
      </trkpt>
      <trkpt lat="44.4961" lon="5.63967">
        <ele>1114.79</ele>
        <time>2018-10-04T14:13:03Z</time>
      </trkpt>
      <trkpt lat="44.49599" lon="5.63987">
        <ele>1112.86</ele>
        <time>2018-10-04T14:13:21Z</time>
      </trkpt>
      <trkpt lat="44.49591" lon="5.64007">
        <ele>1110.46</ele>
        <time>2018-10-04T14:13:39Z</time>
      </trkpt>
      <trkpt lat="44.49583" lon="5.64023">
        <ele>1109.02</ele>
        <time>2018-10-04T14:13:55Z</time>
      </trkpt>
      <trkpt lat="44.49576" lon="5.64037">
        <ele>1107.58</ele>
        <time>2018-10-04T14:14:09Z</time>
      </trkpt>
      <trkpt lat="44.49567" lon="5.64056">
        <ele>1106.13</ele>
        <time>2018-10-04T14:14:24Z</time>
      </trkpt>
      <trkpt lat="44.4956" lon="5.64067">
        <ele>1104.69</ele>
        <time>2018-10-04T14:14:37Z</time>
      </trkpt>
      <trkpt lat="44.49554" lon="5.64075">
        <ele>1103.25</ele>
        <time>2018-10-04T14:14:53Z</time>
      </trkpt>
      <trkpt lat="44.49554" lon="5.64076">
        <ele>1103.25</ele>
        <time>2018-10-04T14:15:18Z</time>
      </trkpt>
      <trkpt lat="44.49551" lon="5.64079">
        <ele>1102.77</ele>
        <time>2018-10-04T14:15:34Z</time>
      </trkpt>
      <trkpt lat="44.49547" lon="5.64085">
        <ele>1102.29</ele>
        <time>2018-10-04T14:15:50Z</time>
      </trkpt>
      <trkpt lat="44.49543" lon="5.64086">
        <ele>1102.29</ele>
        <time>2018-10-04T14:16:13Z</time>
      </trkpt>
      <trkpt lat="44.49543" lon="5.64086">
        <ele>1102.29</ele>
        <time>2018-10-04T14:16:21Z</time>
      </trkpt>
    </trkseg>
  </trk>
</gpx>